GEFSMA_500_meanwind_000.txt.gz
Wind_Speed
26 28 30 33 34 33 30 25 24 25 26 26 27 30 33 35 36 37 37 37 36 37 38 38 39 40 41 41 41 41 41 41 41 42 42 43 43 43 43 43 44 44 45
29 31 32 34 34 32 29 27 26 28 29 30 32 34 36 39 41 41 39 38 38 38 39 40 41 42 42 42 43 44 45 45 45 45 44 44 45 46 47 47 47 48 48
30 31 31 32 34 32 29 28 28 31 33 36 38 40 43 44 44 41 39 39 39 40 41 42 43 44 44 44 45 46 48 48 50 50 51 51 53 54 55 55 55 55 55
26 27 31 32 33 31 30 29 31 34 37 40 42 43 44 45 43 39 37 38 40 41 42 44 45 46 47 48 49 50 52 54 56 57 59 59 60 62 63 63 63 63 63
25 27 31 32 31 29 29 31 33 37 39 40 42 42 39 37 37 37 38 39 41 42 44 46 48 49 51 53 54 56 57 59 61 62 63 64 65 66 67 67 67 68 68
25 29 32 30 28 28 32 34 37 37 38 40 40 38 35 35 37 39 40 42 44 46 49 51 52 54 56 58 59 61 62 63 65 65 65 66 67 67 68 68 69 70 71
27 30 30 28 29 31 35 37 37 38 39 39 36 36 37 39 40 42 44 46 49 52 54 55 57 58 61 62 64 64 65 65 66 66 66 67 69 68 68 69 69 70 71
29 30 31 32 34 35 38 38 39 41 41 39 37 37 39 41 44 46 48 50 53 55 57 60 61 62 63 63 63 64 64 65 66 68 69 70 72 73 74 75 75 75 75
32 33 35 37 38 39 40 40 42 43 42 42 41 41 42 43 45 46 50 54 56 59 60 61 61 61 61 62 63 64 67 70 72 74 76 77 79 80 81 82 82 82 82
36 38 40 41 41 42 42 43 44 43 42 43 44 47 50 52 54 53 52 55 56 57 58 58 59 60 63 66 69 71 74 77 79 81 83 85 87 89 90 90 90 90 90
41 43 44 44 44 43 44 45 44 43 43 45 48 51 54 58 61 62 60 59 59 59 59 59 61 65 68 71 73 76 79 82 86 89 92 95 97 99 100 100 100 100 99
44 45 46 45 44 44 45 44 44 45 47 50 53 56 60 63 65 65 65 65 65 64 64 65 66 69 72 75 78 83 87 92 96 100 103 105 107 108 110 111 111 113 113
45 46 45 45 44 44 43 43 45 48 51 54 57 61 65 68 69 71 72 70 69 69 71 73 74 76 79 83 88 94 99 104 108 112 115 118 119 120 120 121 122 124 124
45 45 44 44 43 42 43 45 48 52 55 58 62 66 69 72 75 75 74 73 74 74 75 77 79 83 89 95 101 106 112 118 123 126 127 127 126 124 121 118 117 115 112
43 43 43 43 42 43 45 48 51 55 58 62 66 69 73 77 77 75 75 78 80 79 77 81 87 93 100 106 111 118 124 129 130 129 123 117 110 102 94 88 86 84 85
42 43 43 42 43 45 48 51 54 57 61 65 68 72 77 78 77 77 79 81 83 85 85 89 98 105 111 117 123 128 129 125 118 114 111 106 97 88 82 75 72 70 69
41 42 42 43 46 49 51 54 57 61 65 68 72 76 79 78 78 80 80 83 88 94 99 99 105 110 116 119 119 115 109 105 101 97 92 88 84 78 71 67 64 62 63
41 42 44 46 49 52 55 58 61 64 67 71 76 78 77 78 79 80 83 89 95 102 108 110 112 115 110 101 94 89 82 78 76 73 70 68 66 62 59 59 58 59 61
41 44 46 49 52 55 57 59 61 66 72 76 76 76 77 78 80 85 89 96 103 108 113 117 112 102 90 81 71 61 56 52 49 48 47 47 48 48 48 49 50 53 55
44 47 50 52 54 54 56 61 66 72 75 74 74 76 78 81 86 91 96 104 109 111 111 105 94 83 70 57 50 47 42 39 36 34 31 31 33 35 38 41 42 43 44
46 50 52 52 53 56 61 66 71 73 72 73 75 78 82 87 93 97 104 108 110 105 97 87 76 63 50 46 45 41 35 30 30 30 24 24 26 28 31 35 38 39 42
48 50 51 54 57 61 66 70 71 70 73 74 78 83 88 94 99 103 108 108 102 92 82 71 57 46 42 43 37 33 30 27 26 29 26 27 29 29 31 33 34 36 40
49 52 55 57 60 64 68 68 69 71 74 79 84 88 94 100 104 107 105 97 85 77 68 55 43 44 42 36 33 28 26 25 27 28 24 24 28 28 32 35 34 34 36
52 54 56 59 63 65 65 67 70 74 79 85 89 95 100 103 107 103 94 82 71 60 50 45 46 42 34 33 31 29 25 22 25 30 28 25 29 27 29 32 28 28 28
53 55 59 61 62 63 66 70 74 80 85 89 95 101 103 105 100 89 78 67 55 44 39 42 41 35 34 34 32 28 25 23 23 29 32 29 28 26 27 27 22 22 19
54 58 59 59 61 64 69 74 80 86 90 95 99 101 102 95 82 72 62 51 39 33 35 34 32 32 33 33 32 32 30 28 27 28 30 27 25 24 21 25 24 21 17

GEFSMA_500_meanwind_006.txt.gz
Wind_Speed
31 31 32 32 30 29 28 28 30 31 32 30 27 26 27 28 29 31 33 37 39 40 40 40 39 39 39 38 37 37 38 39 40 40 41 41 41 41 41 41 42 42 42
30 30 31 32 31 32 31 31 32 32 33 32 30 30 29 31 32 34 36 38 40 40 39 37 36 35 36 37 38 39 40 42 43 44 44 44 44 44 45 45 45 46 45
30 30 31 32 33 33 32 32 32 34 35 33 31 31 31 33 34 36 38 39 39 38 36 35 35 36 38 40 41 42 43 44 46 48 48 48 48 49 50 51 51 51 51
32 31 32 33 33 32 31 31 33 35 35 33 32 32 33 34 35 37 39 39 38 38 37 38 39 41 42 44 46 47 48 49 50 52 54 54 54 55 56 56 56 56 57
34 33 33 34 33 32 32 32 34 35 33 33 34 35 36 36 37 39 40 40 40 40 41 42 43 45 47 49 51 52 54 55 55 56 58 58 58 59 60 61 61 61 61
36 35 34 34 32 31 31 32 32 33 33 35 37 39 39 40 41 42 42 42 43 43 45 46 48 50 52 53 55 56 58 58 59 60 61 61 61 62 63 64 64 65 65
36 37 35 33 31 31 31 32 33 34 36 39 41 42 42 43 44 45 45 45 46 47 49 51 53 55 56 58 60 61 61 61 61 62 63 65 66 67 68 68 68 68 68
38 38 35 34 33 34 34 35 37 38 40 42 43 46 47 46 47 47 48 48 49 51 53 55 57 59 61 62 63 63 64 64 64 66 68 70 71 72 73 73 73 74 74
37 39 37 37 37 37 38 39 41 42 44 45 46 47 48 48 47 49 50 51 52 55 58 60 62 64 66 68 68 69 69 70 70 71 72 74 75 77 79 79 80 81 82
37 39 40 41 42 43 43 43 45 46 47 48 49 50 50 51 50 48 49 52 55 58 60 63 65 67 70 71 73 74 74 74 74 75 76 78 80 83 84 86 87 88 89
38 39 41 42 44 45 45 46 47 48 49 51 51 51 51 53 53 52 51 54 56 58 60 64 68 71 73 74 74 74 74 74 76 78 80 82 84 86 87 89 91 93 95
40 40 41 43 44 45 46 47 48 50 51 52 52 52 53 54 54 56 57 58 59 60 63 66 69 72 73 73 73 74 75 77 78 80 82 84 86 89 92 95 98 101 103
42 42 43 45 46 46 47 48 50 51 52 52 52 53 54 55 57 60 62 63 64 66 69 71 72 73 73 74 76 77 79 81 83 85 88 91 95 99 103 106 109 112 115
42 42 43 44 45 47 48 50 51 51 52 52 53 54 56 58 60 62 64 67 69 71 74 75 76 78 80 80 82 84 87 90 94 97 101 104 107 110 112 114 115 117 118
42 42 42 43 45 47 48 49 50 51 52 53 54 57 60 61 62 64 66 70 74 76 76 76 78 80 82 85 88 92 97 102 106 109 112 114 114 111 107 101 96 93 91
41 42 41 42 44 46 47 49 51 52 53 55 58 60 61 62 63 66 70 74 75 77 77 77 81 84 89 93 98 104 109 112 113 113 111 105 97 88 79 71 65 63 64
40 41 41 42 44 46 48 50 51 53 55 58 60 60 62 64 68 71 73 74 77 79 79 80 85 90 97 103 109 114 115 110 103 94 85 76 68 61 56 53 50 48 48
39 41 42 44 45 46 48 50 53 55 58 59 61 63 65 68 70 72 74 77 79 82 86 88 91 98 105 110 112 109 100 88 78 67 60 56 52 50 47 44 42 42 43
39 42 43 45 46 47 49 52 55 57 59 62 64 66 68 70 72 75 77 80 84 88 93 98 101 105 107 105 98 86 74 64 55 51 49 46 44 43 41 41 40 40 40
39 41 44 45 46 49 51 54 57 59 62 64 67 69 71 73 75 77 81 85 90 95 101 106 108 105 97 84 73 62 51 45 43 43 42 41 40 40 40 41 41 40 38
39 42 44 45 48 51 53 56 59 62 64 66 69 71 73 74 77 82 87 92 98 103 107 107 101 90 74 61 51 43 38 36 36 39 38 38 39 40 42 42 42 41 38
40 42 44 47 50 52 56 59 61 63 66 69 71 72 74 78 82 88 93 99 104 105 103 94 82 67 54 45 39 35 33 31 31 36 36 35 38 39 40 40 39 38 37
40 43 46 49 51 54 57 60 63 66 68 70 71 74 79 83 88 93 98 103 102 95 85 75 62 50 42 38 34 29 29 29 31 35 33 31 34 35 35 34 33 32 33
41 44 47 50 53 55 59 62 65 66 68 70 75 79 84 89 94 99 102 99 88 76 67 58 48 41 38 35 31 28 28 27 28 34 33 30 30 31 31 29 27 27 27
42 45 48 50 54 57 60 63 65 66 70 74 79 84 88 93 99 101 97 86 71 60 52 45 40 39 37 33 32 31 31 30 28 31 32 31 30 30 29 25 23 22 23
44 46 49 52 55 58 61 62 65 69 73 77 82 87 94 98 100 93 81 67 54 46 42 40 39 38 37 36 37 37 35 33 30 28 29 29 29 26 24 25 22 21 23

GEFSMA_500_meanwind_012.txt.gz
Wind_Speed
28 27 26 26 26 28 30 31 33 34 35 37 37 37 36 35 35 34 33 33 32 32 31 32 32 34 35 35 34 33 32 32 31 32 32 33 35 36 37 38 38 39 40
30 28 28 28 29 30 31 32 34 34 35 36 37 38 38 37 36 35 35 34 34 34 34 34 34 35 36 37 36 35 35 35 36 37 38 39 40 40 41 42 42 43 43
31 30 29 30 31 32 33 34 35 36 36 36 36 36 36 36 36 36 34 34 34 34 35 36 36 37 39 39 39 39 39 39 39 41 42 43 45 46 47 48 49 49 49
33 32 31 33 34 35 35 36 36 36 36 36 35 35 35 35 35 34 33 34 34 35 36 37 39 40 42 42 42 43 43 43 44 45 47 49 50 51 52 53 54 55 56
35 34 34 35 36 37 37 37 38 37 37 36 35 35 34 33 33 34 35 36 37 38 38 40 42 44 45 46 46 46 46 47 49 50 52 53 55 56 56 56 57 58 59
37 36 35 36 37 39 39 39 39 38 37 37 37 36 35 35 36 38 39 40 41 42 44 44 46 47 48 49 49 49 50 51 53 55 56 57 58 60 61 61 60 59 60
38 37 37 37 39 40 40 41 40 39 39 39 39 39 39 41 42 43 43 44 45 45 47 48 49 50 51 51 51 52 53 55 58 60 61 61 62 63 63 64 64 63 63
39 39 38 39 40 41 41 41 40 39 40 42 43 44 45 45 47 47 46 46 47 47 49 50 52 54 54 54 54 55 57 59 61 63 64 64 65 66 67 67 67 67 68
39 39 38 40 41 41 41 41 40 40 41 44 46 48 49 50 49 49 49 49 49 50 51 53 55 56 57 58 59 61 62 64 65 66 67 68 69 70 71 72 72 73 73
38 39 40 40 42 42 41 41 41 42 43 45 47 49 50 50 51 50 49 50 50 51 53 55 56 58 60 63 65 67 68 68 69 70 71 72 74 75 76 77 77 77 78
38 38 39 40 41 41 41 41 42 43 45 47 49 50 51 50 50 50 49 49 50 52 53 55 56 59 62 64 66 68 70 71 72 74 76 78 79 80 81 81 81 81 81
39 38 39 40 40 40 40 41 43 45 47 49 49 50 49 49 50 50 50 50 50 52 54 57 60 62 63 64 66 68 70 73 75 77 79 81 82 84 84 85 85 85 86
40 40 40 39 39 40 41 42 44 46 47 48 48 48 48 49 50 52 53 53 53 54 57 59 62 64 65 66 68 70 72 74 77 79 81 83 85 87 88 90 91 93 95
41 41 41 40 40 40 41 43 45 46 47 47 47 48 49 51 52 53 55 56 57 58 60 61 63 65 67 69 71 73 75 77 79 81 84 87 90 92 96 98 101 104 106
42 42 41 40 39 40 42 44 45 45 46 47 48 49 51 52 53 54 56 59 62 63 62 63 65 67 69 72 74 76 78 81 84 87 91 95 98 101 104 106 106 105 104
42 42 40 39 39 41 43 43 45 46 47 49 50 52 53 54 55 57 59 61 63 65 67 67 69 71 73 75 78 81 84 89 93 97 101 104 105 104 102 97 89 81 74
42 41 39 39 40 42 43 44 45 47 49 51 52 53 54 55 57 60 61 63 64 67 68 68 71 74 77 80 84 88 93 98 101 103 102 100 95 88 77 67 59 53 48
41 39 38 39 41 42 43 45 46 49 50 52 53 54 56 58 60 61 62 64 66 68 71 72 73 77 82 87 92 96 100 101 99 94 87 80 70 60 52 46 42 39 37
39 38 38 39 40 42 44 46 48 50 51 52 54 56 58 60 61 63 64 66 68 71 75 77 79 84 90 96 99 99 96 89 81 73 65 57 50 45 42 39 38 36 35
36 36 37 39 41 43 45 47 49 50 52 54 57 58 60 61 62 64 66 69 72 76 80 83 87 92 97 99 97 89 78 68 60 55 51 47 43 41 40 38 36 35 34
34 35 37 40 43 45 45 47 49 51 54 56 58 59 61 62 64 66 69 73 77 81 86 90 95 98 97 90 81 71 60 52 48 48 45 43 41 40 39 38 37 35 34
34 36 39 42 44 44 44 47 51 54 56 57 58 59 61 63 66 69 73 78 83 88 93 97 98 95 85 74 63 55 50 46 43 44 43 40 40 40 40 39 38 36 35
36 39 41 42 41 43 47 50 53 54 55 57 58 59 62 65 69 73 77 82 89 95 98 97 91 80 68 59 54 50 48 46 43 44 42 39 40 39 39 39 38 36 35
37 39 40 40 42 45 49 52 53 54 55 57 58 61 64 68 73 77 82 87 92 94 91 83 74 64 57 53 51 49 47 45 42 43 44 40 38 37 38 39 39 37 35
37 37 38 41 45 47 49 51 52 53 55 57 60 64 68 72 77 82 87 90 91 85 76 66 58 54 52 51 50 48 47 45 42 41 43 42 39 37 35 37 38 37 35
35 37 41 44 46 47 48 50 51 53 55 58 63 67 72 77 82 87 89 88 81 69 59 53 51 50 49 48 48 47 46 45 43 40 40 39 37 37 31 32 36 37 34

GEFSMA_500_meanwind_018.txt.gz
Wind_Speed
27 27 26 24 24 24 25 25 25 25 26 27 29 30 31 32 33 34 35 36 37 38 37 36 36 35 34 34 35 35 33 32 31 32 32 32 32 32 33 33 33 32 32
29 29 28 27 26 26 26 26 26 27 28 29 30 31 32 33 33 32 32 33 33 34 35 36 35 34 34 34 34 35 35 35 34 35 35 36 36 36 36 37 37 37 37
30 31 30 29 29 28 28 28 29 29 30 31 32 33 34 34 34 33 32 31 31 32 33 33 33 33 33 34 35 35 36 37 37 38 39 40 40 40 40 41 41 41 41
31 32 31 31 31 31 31 31 31 32 32 33 34 35 35 35 35 34 33 32 31 32 32 33 34 35 37 38 39 39 40 41 41 42 43 43 43 43 44 44 45 46 46
32 33 33 33 33 34 34 34 34 33 33 34 36 36 36 36 36 35 35 34 35 36 37 38 39 40 41 43 44 45 46 46 46 45 45 46 46 46 47 48 49 50 51
33 33 34 34 34 35 35 35 35 34 34 36 37 37 37 37 37 36 36 37 38 40 42 44 45 46 47 47 48 49 49 49 48 48 48 48 48 49 50 51 53 54 56
33 33 33 34 34 34 34 34 35 35 35 36 37 38 37 38 38 38 38 38 40 42 44 47 48 50 50 50 49 50 50 50 50 50 51 51 52 52 54 55 57 59 60
33 33 33 32 33 33 33 34 35 35 36 36 37 38 38 39 39 40 40 41 42 44 46 48 50 51 51 50 50 50 50 51 52 53 54 54 55 56 58 60 61 62 63
36 35 33 32 32 33 33 34 34 35 36 36 36 37 38 39 40 40 42 43 44 46 48 49 50 50 49 50 50 51 52 53 54 55 56 58 59 61 63 64 64 64 64
39 37 35 34 34 33 33 34 34 35 35 36 37 37 38 39 41 42 43 44 46 47 48 49 49 49 49 50 52 53 55 56 57 59 60 62 64 65 66 66 67 67 68
42 40 38 36 36 36 35 35 35 35 36 36 37 38 39 40 41 43 44 45 46 47 48 49 50 51 52 53 54 55 57 58 60 62 64 66 67 68 69 69 70 71 72
46 44 41 40 39 38 37 36 36 36 37 38 39 40 40 41 42 43 44 45 46 48 50 52 53 54 54 55 56 58 59 61 63 64 66 67 69 70 71 72 73 75 76
48 46 44 42 41 40 39 38 37 38 38 39 40 41 42 43 44 45 46 47 48 49 50 52 54 55 56 57 59 61 62 63 65 66 68 69 70 71 73 74 76 78 80
48 47 46 44 42 41 40 40 39 40 40 41 42 43 44 45 46 47 49 50 51 52 52 53 54 56 58 60 62 63 64 66 67 68 70 71 73 75 77 79 82 84 87
49 48 46 44 43 41 41 41 41 41 42 43 44 44 45 47 48 50 52 54 55 55 54 55 57 58 60 61 62 64 65 67 68 70 73 76 79 82 84 86 89 92 94
49 47 45 44 43 42 42 42 42 42 43 44 44 45 47 49 51 53 55 57 58 58 59 60 61 61 62 63 64 65 67 69 72 75 79 83 86 89 92 94 96 98 98
49 46 44 43 42 41 41 41 42 43 45 45 45 46 49 52 54 56 58 58 59 61 62 63 64 65 65 66 67 69 72 75 79 84 88 91 94 96 97 97 96 93 89
47 45 42 41 40 40 40 41 43 44 45 45 46 48 52 55 57 58 59 60 61 63 64 64 64 65 67 69 72 74 78 83 87 92 95 96 97 95 92 88 82 75 69
45 42 41 39 39 39 40 42 43 44 44 45 48 51 55 58 59 59 60 62 63 64 65 65 66 68 70 74 77 80 85 90 94 95 95 92 87 82 77 72 66 61 58
41 40 39 38 37 38 40 41 42 42 44 47 51 55 58 59 60 61 62 63 64 65 66 67 68 71 74 78 82 85 88 91 91 89 85 78 73 69 66 63 59 56 55
38 37 36 36 37 38 40 40 41 43 47 52 55 57 59 60 61 62 63 64 65 66 68 69 72 75 78 82 86 88 88 84 79 75 70 66 65 63 61 59 57 55 54
35 34 35 36 37 37 38 40 43 47 51 54 56 58 59 61 62 63 64 65 67 69 71 73 75 78 82 85 86 85 81 74 66 63 62 59 61 59 58 56 55 55 53
32 33 35 36 38 39 43 45 47 49 52 54 56 58 60 61 62 63 65 66 69 72 74 76 79 82 84 84 81 76 70 64 59 59 59 56 57 55 53 52 53 53 52
32 35 36 38 40 44 46 46 47 49 52 54 57 58 60 61 63 64 65 67 70 73 76 79 82 83 82 78 72 66 61 57 55 57 59 56 53 52 49 48 50 51 50
35 37 40 40 40 41 43 44 47 49 52 55 57 59 61 63 64 66 68 70 73 76 79 82 82 79 74 68 62 58 55 55 53 53 57 55 51 49 44 44 47 49 49
33 33 33 34 37 39 42 45 48 51 54 56 59 61 63 64 66 69 71 73 75 77 79 78 75 69 62 57 55 54 55 55 54 52 52 51 48 46 40 37 40 44 45

GEFSMA_500_meanwind_024.txt.gz
Wind_Speed
28 27 27 27 26 25 25 25 25 25 25 25 25 26 26 28 29 29 30 31 32 33 34 33 33 32 31 31 31 31 32 32 32 33 33 33 33 33 33 32 31 30 29
29 28 28 28 28 27 27 26 27 27 26 26 27 27 28 30 31 32 33 34 35 35 35 34 33 32 31 30 30 30 30 31 31 31 32 33 34 35 36 36 36 35 34
29 29 29 29 29 28 28 28 28 28 29 29 29 30 31 32 33 34 35 36 36 36 35 34 34 33 32 32 31 31 31 32 32 33 34 36 37 38 39 39 40 40 40
30 30 30 30 30 29 29 30 30 30 31 32 33 33 34 34 35 35 37 38 38 38 36 35 34 34 34 35 36 36 36 37 38 39 40 41 42 43 43 44 44 45 45
32 31 31 32 31 31 31 31 31 32 33 33 34 34 34 35 35 36 37 38 38 37 36 35 34 34 35 36 38 39 41 42 43 44 45 46 46 47 47 48 48 48 48
33 33 34 33 32 32 32 32 32 33 33 33 33 33 33 34 35 36 37 37 37 36 36 35 35 35 36 37 38 40 42 43 44 45 46 47 47 47 48 49 50 50 50
35 35 36 35 34 34 33 34 34 33 33 33 33 32 33 33 34 35 36 36 36 35 35 35 36 36 37 38 39 41 42 43 44 45 46 46 47 47 48 49 50 51 52
38 38 38 37 36 36 35 35 35 34 34 34 34 34 34 34 35 35 36 36 35 35 36 36 37 37 38 39 40 41 42 43 44 45 45 46 47 48 49 50 52 53 54
42 42 41 41 40 39 38 37 37 37 37 36 36 35 35 36 36 37 37 37 37 37 38 38 39 40 40 41 41 42 43 44 45 46 47 47 48 49 50 52 53 54 56
45 45 44 44 43 41 40 40 40 39 39 39 38 38 38 38 38 38 39 39 39 40 40 41 42 42 43 43 44 45 45 46 47 48 49 49 50 51 53 54 55 57 58
47 46 47 47 47 45 44 43 43 42 42 41 40 40 41 41 41 41 40 41 42 42 43 44 45 45 46 46 47 47 48 49 49 50 51 52 53 54 55 56 58 59 60
49 48 48 48 48 48 47 47 46 45 44 43 42 43 43 43 43 43 43 44 44 45 46 47 49 49 48 49 50 51 52 53 53 53 54 55 56 57 58 59 60 62 63
52 50 50 50 50 50 49 49 48 47 46 45 44 44 44 45 45 45 46 46 46 47 49 50 52 52 52 52 54 55 56 56 57 58 58 59 60 61 62 62 64 65 66
55 53 52 52 51 51 50 50 49 49 47 46 46 46 46 46 46 46 47 48 48 49 50 52 53 54 54 56 58 59 59 60 61 62 63 63 64 65 65 66 68 69 71
59 57 56 54 52 52 51 51 50 49 48 48 47 47 47 47 47 48 48 49 50 51 52 53 55 56 58 60 61 62 62 63 64 64 65 66 67 68 69 71 72 74 75
63 61 58 56 54 53 53 52 51 50 49 49 49 49 49 49 49 49 50 51 52 53 54 55 57 59 62 64 65 65 65 66 66 67 68 69 70 71 73 74 76 78 80
65 63 61 58 56 55 55 54 52 51 51 50 50 50 50 50 51 51 52 53 55 55 56 58 61 64 66 67 68 68 69 69 69 70 71 72 73 75 77 78 80 81 83
67 64 62 59 57 56 55 54 53 52 51 51 51 51 51 51 52 54 56 56 57 58 60 63 65 68 69 70 70 70 71 71 72 73 74 76 77 79 81 82 83 84 85
66 65 62 60 58 56 55 54 53 52 51 50 50 51 52 53 55 57 58 61 62 63 65 67 69 70 71 72 72 72 72 73 74 76 78 79 81 83 84 85 85 85 84
61 61 60 58 56 54 54 52 51 50 50 49 50 51 53 55 57 59 61 65 67 68 69 70 70 71 72 73 73 73 73 75 76 79 81 82 84 84 85 84 82 81 79
53 54 54 53 53 51 50 49 49 48 48 48 50 52 55 57 59 62 66 68 69 70 71 71 72 72 73 74 75 76 76 77 78 81 81 82 82 81 80 79 77 76 74
41 44 46 47 47 47 46 46 46 46 46 48 51 54 57 59 62 64 67 69 70 70 71 72 72 73 74 76 77 78 79 79 78 79 78 76 76 74 73 71 70 69 68
31 35 38 39 40 41 42 41 42 43 45 49 53 56 59 60 62 65 67 68 69 71 72 74 75 76 78 79 80 80 80 78 75 74 72 68 68 66 63 62 62 63 62
24 27 30 33 34 35 36 38 40 42 46 50 53 56 57 59 61 64 65 67 69 72 74 77 79 81 82 83 82 79 75 71 68 66 65 60 58 57 56 56 58 59 58
20 22 24 27 29 31 34 36 39 42 45 47 48 51 54 57 60 63 65 68 71 75 78 81 83 84 83 81 76 71 66 63 58 55 57 55 52 50 49 49 51 52 53
15 18 21 23 26 28 31 32 35 38 41 44 48 51 54 57 61 65 69 73 76 79 81 83 83 81 76 70 65 61 56 53 50 48 50 48 45 45 41 38 41 44 46

GEFSMA_500_meanwind_030.txt.gz
Wind_Speed
28 27 27 27 27 27 28 28 28 29 29 29 28 27 27 26 26 26 27 28 28 29 30 30 31 32 33 33 33 32 32 31 30 30 29 29 29 28 28 28 29 29 29
31 30 30 30 29 29 29 29 30 30 30 30 30 29 29 28 27 28 29 29 30 30 30 30 31 31 31 31 31 31 31 30 30 30 30 30 30 30 29 29 30 30 30
34 33 32 32 32 32 31 31 30 30 31 31 31 30 30 29 29 29 29 29 29 29 29 29 30 30 29 29 28 28 29 29 30 30 31 32 33 33 34 34 35 35 36
37 36 36 35 35 34 34 32 31 31 31 31 32 31 30 30 29 29 29 29 28 27 27 28 28 28 27 27 27 27 28 29 30 30 31 33 34 35 37 38 38 39 40
40 40 40 39 38 37 36 35 34 33 33 32 32 32 31 30 30 29 29 28 27 27 27 27 27 27 27 27 27 27 27 28 29 30 32 33 34 36 37 39 40 40 41
44 43 43 42 42 40 39 38 36 35 34 34 34 33 33 32 31 30 29 29 29 29 29 29 29 29 29 29 29 28 28 29 30 31 32 33 34 35 36 37 38 39 40
48 47 46 45 44 44 43 42 40 37 36 36 36 36 35 33 32 32 31 31 31 32 32 32 32 32 32 32 32 32 32 32 33 33 34 35 35 36 37 37 38 39 40
51 50 49 48 48 47 46 45 43 41 40 39 39 38 37 35 34 34 34 34 34 34 35 35 35 35 35 35 36 36 36 36 36 36 37 37 38 38 39 39 40 40 41
53 53 52 52 51 50 49 48 47 45 43 42 41 41 39 38 37 37 37 37 37 37 38 38 38 39 39 40 40 40 40 40 40 40 41 41 41 41 41 41 42 43 44
55 56 55 54 53 53 52 50 49 48 47 45 44 44 43 42 40 39 40 40 40 40 40 41 41 42 43 43 44 44 44 44 44 44 44 44 44 44 44 44 45 46 46
56 57 57 57 56 55 55 53 52 51 50 48 47 46 46 45 44 43 43 43 42 42 43 43 44 45 46 47 47 47 48 48 48 47 47 47 47 47 48 48 49 49 50
57 58 59 60 59 59 58 57 55 54 52 51 50 49 48 48 47 47 46 45 44 44 45 46 47 48 49 50 50 50 51 52 51 51 50 50 50 50 51 52 53 54 54
59 60 61 62 62 62 61 60 59 57 55 54 52 52 51 50 50 49 48 47 46 47 48 49 50 51 52 53 53 53 54 55 55 54 54 54 54 54 55 56 57 58 59
63 63 63 63 64 64 64 63 61 60 58 56 55 54 54 53 52 51 51 49 48 49 50 51 52 54 54 55 56 56 57 58 58 58 59 59 59 60 61 62 63 64 64
67 67 67 66 65 65 65 65 64 62 61 59 58 56 56 55 54 53 52 51 52 52 53 53 55 57 57 58 59 60 61 61 62 62 63 64 65 66 67 68 68 69 69
69 69 69 68 67 66 65 65 64 64 63 62 60 58 57 55 53 55 54 55 55 55 56 56 58 59 60 62 63 64 64 64 64 66 68 69 70 71 71 72 72 72 72
68 69 68 67 66 66 65 64 63 63 63 62 61 59 59 58 58 58 57 57 57 57 59 60 61 62 64 66 67 67 68 68 69 70 72 73 73 73 73 73 74 75 75
62 63 63 63 63 62 62 62 62 62 61 61 60 60 59 59 58 58 59 59 59 60 62 63 64 65 67 69 69 70 71 71 71 72 73 74 75 75 75 77 78 79 79
54 54 55 56 56 56 57 57 58 59 59 59 60 59 59 59 60 61 60 60 61 63 64 65 66 67 69 71 72 72 72 72 73 74 75 77 78 79 80 81 82 82 82
43 44 45 46 47 48 49 50 51 53 54 56 56 57 57 58 59 59 60 60 61 63 64 65 67 69 70 71 72 72 72 73 74 76 79 81 82 83 84 84 84 83 82
33 34 35 36 37 39 40 40 42 45 47 49 50 51 53 55 57 58 59 59 61 63 65 66 68 69 69 70 71 72 74 76 78 81 83 84 85 85 84 82 81 79 77
23 25 26 27 28 30 30 31 33 36 39 41 44 46 49 51 53 55 57 58 60 62 63 64 66 67 68 71 73 76 78 79 81 83 83 83 83 81 79 77 74 71 68
15 18 19 20 22 23 24 25 27 30 33 36 38 41 44 46 49 51 54 55 57 58 60 62 64 67 70 73 76 78 79 80 80 80 79 76 75 72 69 65 62 59 57
7 9 11 14 15 16 18 20 21 23 25 28 32 36 40 43 45 46 48 50 53 55 59 62 66 69 72 74 76 76 75 73 71 70 68 64 60 57 53 52 52 52 50
3 2 5 7 8 11 14 16 17 20 23 26 29 31 33 35 38 40 44 48 52 57 61 65 68 70 70 70 69 66 64 61 58 56 54 50 47 44 43 44 45 46 45
5 4 2 3 5 7 9 11 13 15 18 21 24 27 30 33 37 41 46 51 56 60 63 65 65 64 61 58 56 52 50 47 44 42 42 40 39 38 35 37 40 42 42

GEFSMA_500_meanwind_036.txt.gz
Wind_Speed
27 27 27 27 27 27 27 28 28 28 28 28 28 28 28 29 28 27 28 28 27 27 26 26 26 25 24 23 22 21 19 18 18 18 18 18 19 19 20 20 21 21 21
30 30 30 29 29 30 30 31 31 31 30 30 30 30 30 30 30 28 29 29 29 29 28 27 27 26 25 23 21 20 19 19 18 18 18 19 19 19 20 21 21 22 23
32 32 33 33 32 33 33 33 34 34 34 33 33 32 32 32 32 30 29 30 31 30 30 29 28 26 25 23 22 21 20 20 20 20 20 20 20 20 21 22 23 23 24
36 35 35 36 37 37 37 37 37 37 37 37 36 35 35 34 34 33 31 30 31 32 31 30 29 28 26 25 24 23 23 23 22 22 22 22 22 23 23 24 24 25 26
38 39 39 39 40 40 41 41 41 41 41 41 40 39 38 37 36 35 33 32 32 33 33 32 31 30 28 27 27 26 26 26 26 25 25 25 26 26 26 27 27 27 28
41 42 42 42 42 43 43 44 44 44 44 44 44 43 42 40 39 38 36 35 34 34 34 34 33 33 32 31 30 30 29 29 29 28 29 29 29 29 30 30 30 30 30
44 44 45 45 45 46 46 46 47 47 47 48 48 47 46 44 42 41 40 38 37 36 36 36 36 35 35 34 34 33 32 32 32 32 32 32 33 33 33 33 34 33 33
47 48 49 49 49 49 49 49 50 50 50 51 51 51 50 48 45 44 43 42 40 39 39 39 39 38 38 38 37 36 36 36 35 35 35 36 36 36 36 37 37 37 37
48 50 51 52 53 53 53 53 53 53 53 53 54 54 53 50 49 47 46 45 44 43 42 42 42 42 41 40 40 40 39 39 38 38 39 39 39 40 40 40 40 40 40
49 50 51 53 55 56 56 56 56 56 56 56 56 55 55 54 52 50 49 48 47 46 45 45 44 44 44 43 42 42 42 42 41 41 42 42 43 43 44 44 44 44 44
49 50 52 54 55 57 58 59 60 60 59 59 58 58 58 57 55 54 52 50 49 49 48 47 47 46 45 45 44 44 45 44 44 45 45 46 46 47 47 47 47 48 48
49 50 52 54 56 58 59 60 62 62 62 62 61 60 59 59 58 57 55 53 52 51 51 51 50 49 48 48 47 47 47 46 46 47 49 50 50 50 50 51 51 51 52
49 51 53 54 57 58 60 62 63 64 64 64 64 63 61 60 60 59 58 57 55 54 53 53 52 52 52 50 48 49 49 48 48 49 51 52 53 54 54 54 55 56 56
49 51 52 54 57 60 62 64 65 66 66 66 65 64 63 61 60 60 59 58 57 55 54 54 54 53 52 51 50 50 50 50 50 51 53 54 55 56 57 58 59 59 60
48 51 53 55 58 61 63 65 66 67 67 66 65 64 63 61 60 59 59 58 58 57 56 55 55 54 54 53 53 52 52 51 52 54 57 58 59 60 61 62 62 63 64
47 49 52 56 59 62 64 65 65 64 64 63 62 62 61 61 60 59 58 58 58 58 57 56 57 57 55 54 52 52 53 55 56 57 60 62 63 63 64 65 66 66 67
46 49 52 54 57 58 59 60 59 58 57 57 57 57 57 58 58 57 56 56 58 58 58 57 56 56 57 55 54 55 57 57 59 61 63 64 65 65 67 67 68 69 69
44 47 49 50 52 52 51 51 51 50 50 50 51 52 52 53 54 54 55 55 56 57 57 59 60 58 58 59 60 60 60 61 62 64 66 67 67 67 68 68 69 70 71
41 43 44 45 44 43 42 41 40 40 40 41 43 45 46 48 49 50 52 54 55 55 56 57 57 58 60 60 61 62 63 64 65 66 67 67 67 68 69 70 71 72 73
39 39 39 39 38 38 36 34 33 32 33 34 35 37 40 41 44 46 48 50 52 53 54 55 56 57 58 60 62 63 63 64 65 66 67 67 69 70 71 72 73 73 74
35 35 35 35 34 33 32 29 28 27 27 28 30 32 35 36 38 40 42 44 45 47 48 50 52 55 57 58 60 61 61 62 64 65 67 69 70 71 72 72 72 72 72
32 32 32 31 30 29 27 25 23 21 21 22 23 25 27 28 31 34 36 38 40 42 44 46 49 52 54 55 57 58 60 62 64 66 67 69 70 69 68 68 67 66 65
29 29 28 27 26 25 23 21 19 17 16 16 17 19 21 23 26 29 30 31 34 37 40 43 45 47 49 51 54 57 60 62 65 66 66 64 64 62 61 60 59 57 55
26 26 25 24 22 21 20 19 17 16 14 13 13 13 15 17 20 22 25 28 31 33 36 39 42 45 48 52 55 58 60 62 64 63 61 58 57 55 54 53 52 49 48
23 22 21 20 20 19 18 17 17 15 14 13 13 12 13 14 17 19 22 25 28 31 35 39 43 47 51 54 57 59 59 59 58 57 55 52 50 47 47 47 45 44 42
20 20 19 19 18 18 17 16 16 15 14 13 12 14 15 16 18 21 24 27 31 35 39 42 46 49 52 55 56 56 55 54 52 50 49 47 45 43 39 40 42 42 41

GEFSMA_500_meanwind_042.txt.gz
Wind_Speed
23 24 25 26 27 28 28 29 29 29 30 31 32 32 32 31 30 30 30 30 30 29 29 28 28 28 28 27 27 27 26 26 25 23 22 20 19 18 17 16 16 15 15
25 26 27 28 29 30 31 31 32 32 32 33 34 35 35 34 34 33 33 32 32 32 31 30 30 30 30 29 28 28 28 27 26 25 24 22 21 20 19 19 18 17 17
28 28 29 29 31 32 32 33 34 35 35 36 37 38 38 37 37 37 36 36 35 35 34 33 32 32 31 31 30 30 29 28 28 27 26 25 24 23 23 22 21 20 20
30 31 31 32 33 34 34 35 36 37 38 39 40 41 41 41 40 40 39 39 38 38 37 36 35 34 34 33 33 32 31 30 30 29 29 29 28 27 26 26 25 24 23
33 33 34 35 36 36 37 38 39 40 41 42 43 43 44 44 44 44 43 42 42 41 40 40 38 37 36 36 35 35 34 33 33 32 32 32 31 31 31 30 29 28 27
35 36 37 38 39 39 40 41 42 43 43 44 45 46 46 46 47 46 46 46 45 45 44 43 42 41 40 39 38 37 37 36 36 35 35 35 35 35 34 34 33 32 32
38 38 39 40 41 42 42 43 44 45 46 47 48 48 48 49 49 49 49 49 48 48 47 46 45 44 43 42 42 41 40 39 39 38 38 38 38 39 38 38 37 36 35
40 41 42 42 43 44 45 46 46 47 48 49 50 51 51 51 50 51 52 52 51 50 49 48 47 47 46 45 45 44 43 42 41 41 42 42 42 42 42 42 41 40 39
42 43 44 45 46 46 47 47 48 49 49 50 51 53 54 54 54 54 55 54 53 52 51 50 49 49 49 48 47 46 45 45 45 44 43 44 44 45 44 44 44 43 42
43 44 45 46 47 48 48 48 49 50 51 51 53 54 55 56 57 56 56 56 55 55 54 53 52 51 51 50 49 48 47 47 48 47 47 46 46 47 47 47 47 47 45
43 44 45 46 47 47 48 48 49 50 51 52 53 54 56 57 58 59 59 59 59 58 58 57 55 54 53 52 51 50 50 50 50 49 49 48 48 48 48 47 48 49 48
44 45 45 45 46 46 47 48 49 50 51 52 54 55 57 59 60 62 62 62 62 61 60 59 57 56 55 54 53 53 53 52 53 52 51 50 50 49 50 49 49 49 49
44 45 45 45 45 45 46 47 48 48 50 52 54 56 58 60 62 63 64 64 63 62 61 60 60 58 56 55 54 54 55 54 54 53 52 51 50 48 48 48 49 49 50
44 44 44 44 44 45 45 45 46 48 50 52 54 56 58 60 62 62 62 62 62 61 60 58 57 58 58 57 56 55 54 54 54 53 50 51 49 47 47 48 48 48 48
42 43 43 44 44 44 44 44 45 47 49 51 53 55 56 58 59 58 58 58 58 57 55 53 53 53 54 55 56 55 54 53 53 51 49 45 44 46 47 46 46 47 47
41 42 42 42 42 42 43 44 45 47 48 50 51 52 53 52 52 52 52 51 52 53 52 50 51 50 50 51 52 54 54 54 52 50 50 48 47 46 45 45 46 48 49
40 40 40 39 40 40 42 43 44 45 46 47 48 49 49 48 47 46 44 44 45 45 45 45 47 48 48 49 49 49 51 52 50 48 48 49 49 49 49 50 50 50 51
38 38 37 37 38 39 40 41 42 43 43 44 44 44 43 44 43 41 38 37 38 39 38 39 41 43 45 46 47 48 48 49 49 50 50 50 51 51 51 51 51 52 52
35 35 36 36 37 38 38 39 40 40 40 40 39 39 38 38 37 35 33 32 33 32 32 33 35 36 39 42 45 47 49 49 49 49 50 52 52 51 50 50 50 51 52
33 34 35 35 35 36 36 37 37 36 36 35 34 34 34 34 33 31 29 28 28 27 28 29 31 33 35 38 41 44 46 47 49 49 49 50 50 50 50 51 52 53 55
32 32 33 33 34 34 34 34 33 32 32 31 31 31 31 30 29 28 26 25 24 23 24 25 27 29 32 35 37 39 42 43 45 46 47 48 49 50 52 53 55 57 58
30 30 30 31 32 32 32 31 30 29 29 28 28 28 27 26 26 25 23 22 22 22 22 23 24 26 28 31 33 36 39 41 43 45 47 49 51 53 54 56 57 58 59
27 28 29 29 29 29 28 28 27 27 26 26 25 25 24 24 24 23 22 21 21 20 21 23 24 26 28 30 33 35 38 40 43 46 48 51 53 55 57 58 58 59 58
25 26 26 26 26 26 26 25 24 24 24 23 23 22 22 22 23 23 22 22 21 22 23 24 25 27 30 32 35 37 40 43 46 48 50 52 55 56 58 58 58 57 56
23 24 24 25 24 24 23 23 22 22 22 23 23 23 23 24 24 24 24 25 25 26 27 28 30 32 34 36 38 41 43 46 48 50 52 53 55 55 56 56 56 55 53
23 23 24 23 23 23 22 22 22 23 24 24 25 26 26 27 27 28 29 29 30 31 32 33 34 36 38 40 42 44 46 48 50 52 53 54 54 54 52 52 53 53 52

GEFSMA_500_meanwind_048.txt.gz
Wind_Speed
24 24 24 24 25 25 25 26 27 28 29 30 31 32 33 34 35 36 37 37 37 38 37 37 37 37 37 36 35 35 34 34 33 33 32 31 30 28 27 25 24 23 22
26 26 26 26 27 27 28 28 29 30 31 32 34 35 36 36 37 38 39 39 40 40 40 40 40 39 39 39 38 37 37 36 35 35 35 34 33 31 29 28 27 26 24
27 27 28 28 29 30 30 30 32 33 34 35 37 38 39 39 40 40 41 42 42 42 43 43 43 42 41 41 41 40 39 39 38 37 37 36 35 34 33 31 30 29 27
29 29 29 30 31 31 32 33 34 36 37 38 40 41 41 42 42 43 43 44 44 44 45 45 45 44 44 43 43 42 41 41 40 40 39 38 38 37 36 34 33 32 31
31 31 31 32 33 34 34 36 37 39 40 41 43 43 44 44 45 45 45 45 46 46 46 46 46 46 46 45 45 44 43 43 42 42 41 40 40 39 38 37 37 35 34
33 33 33 34 35 36 37 39 40 41 43 44 45 45 46 46 46 46 46 47 47 47 48 48 48 47 47 47 46 46 45 45 45 44 44 43 42 41 41 40 39 39 37
35 35 36 36 37 38 40 41 43 44 45 47 47 47 47 47 46 47 47 47 47 48 48 48 48 48 48 48 48 48 48 47 47 46 46 45 44 43 43 42 42 41 40
37 38 38 39 40 41 42 43 45 47 47 48 49 49 48 46 46 47 47 46 47 47 48 49 50 50 51 51 51 51 51 50 49 48 48 47 47 46 45 44 43 43 42
39 39 40 40 42 43 44 46 48 49 49 49 49 49 49 48 47 46 45 46 47 48 50 51 51 52 53 54 53 53 53 52 51 51 50 49 49 48 47 46 45 44 44
41 41 41 42 43 45 47 49 50 50 50 49 49 49 49 49 48 47 45 46 48 50 51 53 54 55 56 56 56 55 55 54 54 53 52 52 50 49 49 48 48 46 44
42 42 42 43 45 47 49 50 50 50 49 49 49 49 49 49 48 48 46 47 49 51 52 54 55 56 57 57 57 57 56 55 54 53 54 54 54 53 50 50 49 48 47
43 44 44 46 48 49 50 49 49 48 48 48 48 48 48 47 47 48 48 47 49 51 52 54 55 55 56 56 56 57 56 56 55 54 54 53 52 54 53 51 49 48 48
45 45 47 48 49 49 49 48 47 47 47 47 47 47 47 47 47 47 48 48 49 49 50 51 52 52 52 52 52 52 52 53 53 54 53 54 54 54 53 52 51 51 49
46 47 49 49 49 48 47 46 46 46 46 45 46 46 46 46 46 47 47 48 47 47 48 47 48 49 49 48 46 46 47 46 47 49 50 51 50 51 51 50 49 48 47
48 49 49 48 47 46 45 45 45 45 44 44 44 44 44 44 45 46 46 46 46 45 44 44 45 45 44 44 43 41 39 41 41 42 46 46 45 46 46 45 48 48 46
48 47 47 46 44 43 43 43 43 44 44 43 43 43 43 43 44 44 43 43 43 43 42 41 40 40 38 37 36 34 32 33 34 35 37 38 39 41 41 40 40 42 42
46 45 44 42 42 41 41 42 42 42 42 42 42 42 42 42 42 41 41 41 41 40 39 37 36 35 33 31 29 28 26 24 24 26 28 29 32 34 35 36 37 38 38
43 41 40 40 39 39 40 40 41 40 40 40 40 40 40 40 39 38 38 38 37 36 35 34 33 31 30 28 26 24 23 22 22 22 24 26 29 31 32 34 36 38 39
39 38 37 37 37 38 38 38 38 38 38 39 39 39 38 37 36 36 35 35 34 33 32 31 30 29 28 27 25 23 22 22 22 23 25 26 28 30 32 34 36 38 39
36 35 35 35 36 36 36 36 36 36 37 37 37 36 35 34 34 33 32 32 31 30 29 29 29 28 27 26 25 24 23 23 24 24 25 27 29 31 33 34 35 37 38
33 33 33 34 34 34 34 34 34 34 35 35 34 33 33 32 31 31 30 30 29 29 29 29 29 29 28 27 26 26 25 26 26 26 27 28 30 31 33 34 36 37 38
30 31 31 31 31 31 31 32 32 33 32 32 32 31 30 30 29 29 29 30 29 29 29 30 30 30 30 29 29 29 29 29 29 30 31 32 33 34 35 37 38 40 42
28 28 28 28 28 29 30 30 30 31 31 30 30 29 28 29 29 30 30 30 31 31 31 32 32 32 32 32 32 32 33 33 33 34 35 36 38 39 40 41 43 44 46
25 25 25 26 26 27 28 29 29 29 29 29 29 28 29 29 30 31 31 32 32 33 34 34 34 34 34 34 35 35 36 37 37 38 39 40 42 43 44 45 47 48 49
22 22 23 24 25 26 27 28 28 28 28 28 29 29 29 30 31 32 32 33 34 34 35 35 36 36 36 37 37 38 38 39 40 42 43 44 45 46 48 49 50 52 53
21 22 23 24 25 26 27 28 28 28 28 29 30 30 31 31 32 33 34 35 35 36 36 37 37 38 38 39 39 40 41 42 43 45 46 47 48 49 50 52 54 55 55

GEFSMA_500_meanwind_054.txt.gz
Wind_Speed
19 19 20 20 20 20 21 22 22 23 25 26 27 28 30 31 32 34 35 37 38 38 38 38 38 38 37 36 36 36 35 35 35 34 34 34 34 34 33 33 32 31 30
22 22 22 22 22 22 23 24 25 26 27 28 30 31 32 33 35 36 38 39 40 40 40 39 38 38 38 37 37 37 36 36 36 36 35 35 35 35 34 34 33 32 31
24 24 25 25 25 25 26 27 28 29 30 31 32 34 35 36 37 39 40 41 41 41 41 40 39 39 38 38 37 37 37 37 36 36 36 36 36 36 36 35 35 34 33
27 27 27 28 27 27 28 29 30 31 32 34 35 36 37 38 40 41 42 43 43 43 42 41 40 39 39 38 38 37 37 37 37 37 37 37 37 38 37 37 37 36 35
30 29 30 30 30 30 31 32 33 34 35 36 37 38 39 40 42 43 45 45 44 44 42 42 41 40 39 39 39 38 38 39 39 39 39 40 40 40 40 39 39 38 38
32 32 32 33 33 33 33 34 35 36 37 38 39 40 41 42 44 46 46 45 45 43 43 42 41 41 40 40 40 40 40 41 41 41 41 41 42 42 42 42 41 40 40
35 35 34 34 35 35 36 37 38 39 40 41 41 41 42 44 45 46 46 46 44 43 43 42 41 41 41 42 42 42 42 43 43 43 43 43 43 44 44 44 43 43 42
38 37 37 37 37 38 38 39 40 41 42 42 43 44 44 45 45 46 45 45 44 44 43 43 42 42 42 43 43 44 44 44 44 44 44 44 45 46 47 47 46 46 45
40 39 39 39 40 40 40 41 42 43 43 43 45 46 47 47 46 44 43 43 43 43 43 42 42 43 43 43 44 44 44 44 44 44 44 45 46 46 46 47 47 47 48
42 42 42 42 42 42 43 43 44 44 45 45 46 47 48 48 48 46 43 42 42 42 42 42 43 44 44 44 44 44 44 44 43 43 44 45 46 47 47 47 47 49 49
44 44 44 44 44 44 44 45 45 46 46 46 47 48 48 48 47 46 44 43 42 42 43 43 43 43 43 44 44 44 43 43 43 43 43 44 45 46 46 46 47 49 49
46 46 46 46 46 45 45 46 46 46 47 47 48 49 48 47 46 45 44 43 42 42 43 43 43 43 43 43 42 42 42 42 41 41 41 41 42 43 44 44 45 46 47
46 46 46 46 46 46 46 46 46 47 48 48 48 48 47 46 45 44 43 42 42 42 41 42 42 43 42 41 40 40 40 39 38 37 38 38 38 39 39 40 42 42 43
46 47 47 46 46 47 47 47 47 48 48 48 47 46 45 44 43 43 42 42 41 40 40 41 42 41 40 38 38 37 37 36 35 34 34 34 34 34 33 33 36 38 38
47 47 47 46 46 46 46 47 47 47 47 46 45 44 43 43 42 41 41 41 40 40 40 40 40 39 37 36 36 35 34 33 32 32 31 30 29 29 28 29 29 30 33
47 47 47 47 46 46 46 47 47 46 45 45 44 42 42 41 40 40 39 40 40 39 39 38 38 37 35 34 33 33 32 31 30 30 28 27 26 24 24 24 25 26 28
47 47 47 47 47 46 46 46 46 45 44 43 41 41 40 40 39 39 38 38 38 38 37 36 35 34 33 32 31 31 30 29 29 28 27 25 24 24 23 23 22 22 23
47 47 46 46 46 45 45 45 44 43 42 40 40 39 39 38 37 37 36 36 36 36 35 34 33 33 32 31 31 30 30 29 29 28 26 25 24 23 22 22 22 22 23
47 47 46 45 44 44 43 42 41 41 39 39 38 37 37 36 35 35 35 34 34 34 34 33 32 32 31 31 31 31 30 30 29 29 28 27 26 25 24 24 24 24 25
46 46 45 44 43 42 41 40 39 38 37 37 36 35 34 34 33 33 33 33 33 33 32 32 32 31 31 31 32 31 31 31 31 31 30 30 29 28 27 27 27 28 29
44 43 43 42 41 40 39 38 37 36 35 34 33 33 32 32 32 32 32 32 32 31 31 31 31 32 32 32 32 32 32 32 32 32 32 32 31 31 30 30 30 31 32
42 41 41 40 39 38 37 36 35 34 33 32 31 31 30 30 30 31 31 31 31 31 31 31 32 32 32 33 33 33 33 33 33 34 34 34 34 34 34 34 35 35 35
39 39 38 37 36 36 35 33 32 31 30 29 29 29 29 29 29 29 30 30 30 31 32 32 33 33 34 34 35 35 35 36 35 35 36 36 36 36 37 38 38 39 40
37 36 35 35 34 32 31 30 29 28 28 28 28 28 28 28 29 29 30 30 31 32 33 34 34 35 35 36 36 37 37 37 37 37 38 38 39 39 40 41 42 43 44
34 33 33 32 31 30 29 28 27 27 27 27 27 27 27 28 29 30 31 32 33 33 34 35 36 36 37 37 38 38 38 39 39 39 40 41 42 43 44 45 45 46 47
31 30 30 30 29 29 28 27 27 27 27 27 27 27 28 29 30 31 32 33 34 35 36 36 37 38 39 39 39 40 40 40 41 42 42 43 44 45 46 47 47 48 49

GEFSMA_500_meanwind_060.txt.gz
Wind_Speed
17 16 16 17 17 17 18 19 19 20 21 22 23 24 25 27 28 30 31 32 34 35 36 37 38 38 38 37 36 35 34 34 33 33 32 32 31 31 30 29 28 28 27
20 19 19 19 19 19 20 21 21 22 23 24 25 26 27 29 30 32 33 34 35 36 37 39 39 39 39 38 37 36 35 35 34 34 33 33 32 31 31 31 31 30 29
22 22 21 21 21 22 22 23 24 24 25 26 27 28 30 31 32 34 35 36 36 37 39 40 41 40 40 38 37 36 36 35 35 35 34 34 33 33 32 33 33 32 31
25 25 24 24 24 24 24 25 26 27 28 29 30 31 32 33 34 36 37 37 38 39 40 41 42 42 40 39 38 37 37 36 36 36 36 35 35 35 34 34 34 34 33
29 28 28 28 27 27 27 28 28 29 30 31 32 33 34 35 36 37 38 39 40 41 42 43 43 42 41 40 39 39 38 37 37 37 37 36 36 36 36 35 35 35 35
32 32 31 31 30 30 30 31 31 32 32 33 34 35 36 37 38 38 39 40 42 42 43 44 43 42 42 41 40 39 39 39 38 38 38 37 37 37 36 36 35 35 35
35 35 34 34 34 33 33 34 34 35 35 36 37 37 37 38 39 39 40 41 43 44 44 44 44 43 42 41 40 40 39 39 39 38 38 38 37 37 36 36 36 35 35
38 38 38 38 37 37 37 37 37 38 38 39 40 40 39 38 39 40 40 41 43 44 45 45 45 43 42 41 40 40 39 39 38 38 38 37 37 36 36 36 36 36 36
41 41 41 41 40 40 40 40 40 41 41 41 41 42 42 41 41 41 41 42 43 44 44 45 44 43 42 41 40 40 39 38 38 37 37 37 36 36 36 35 35 36 36
44 44 45 44 44 44 43 43 43 43 43 42 43 43 44 44 43 43 43 44 44 44 45 44 44 43 42 41 40 39 38 38 37 36 36 35 35 35 35 34 34 34 34
47 47 47 47 46 46 45 45 45 45 44 44 44 43 43 44 44 44 44 44 45 45 45 44 43 42 41 40 39 38 37 37 36 35 34 33 33 33 33 32 32 32 34
48 48 48 48 48 47 46 46 46 45 45 44 44 44 44 44 44 44 44 44 45 45 44 43 42 41 41 39 38 37 36 36 34 34 33 32 32 31 31 31 32 32 32
49 49 49 48 47 46 46 46 46 45 44 44 44 44 44 44 44 44 44 44 44 44 43 42 41 40 39 38 37 36 35 34 33 32 31 31 31 30 30 30 30 30 30
49 49 48 47 47 46 46 46 45 45 45 45 45 44 44 44 44 45 45 44 44 43 42 41 40 39 38 36 35 34 33 32 31 31 31 30 29 28 28 28 27 27 26
49 48 47 47 46 46 46 45 45 45 45 45 45 45 44 44 45 45 45 44 43 41 40 39 38 38 36 34 33 32 31 30 30 30 29 29 28 28 27 27 26 25 24
48 48 47 47 47 47 46 46 46 46 45 45 45 45 45 45 45 44 44 42 41 40 38 38 37 35 34 32 32 31 30 30 30 29 28 28 28 27 27 27 25 24 24
48 48 48 47 47 47 47 47 47 46 46 45 45 45 45 44 44 43 42 40 39 38 37 36 34 33 32 31 30 30 29 29 29 28 28 28 28 28 27 27 26 25 24
48 48 48 48 48 48 48 47 47 46 46 46 46 45 44 44 43 42 40 39 37 36 35 33 32 31 30 30 30 29 29 28 28 28 28 28 28 28 28 27 27 27 26
47 47 48 48 48 48 48 47 47 46 46 45 44 44 43 43 41 40 38 36 35 34 33 32 31 30 29 29 29 28 28 28 28 28 29 29 29 29 29 29 29 28 27
47 47 47 47 47 47 47 46 46 45 45 44 43 43 42 41 39 37 35 34 33 33 31 31 30 29 28 28 28 28 28 29 29 30 30 30 30 30 30 30 30 30 30
46 46 46 46 45 45 45 45 44 44 43 42 41 40 39 38 36 34 33 32 32 31 30 29 28 28 28 28 29 29 30 30 31 31 31 31 32 32 32 32 32 32 32
44 44 44 44 44 44 44 43 43 42 41 40 38 37 35 34 33 33 32 31 31 30 29 28 28 28 29 29 30 31 32 32 32 33 33 33 33 34 34 34 34 34 35
42 43 43 43 43 43 42 42 40 39 38 36 35 34 33 32 31 31 30 30 29 29 28 28 29 29 30 31 32 33 33 33 34 34 34 35 35 35 36 36 36 37 37
41 41 41 41 41 40 39 38 37 36 35 34 32 31 30 30 29 29 29 29 29 29 29 29 30 31 32 32 33 34 34 35 36 36 36 36 36 37 37 38 38 39 39
39 39 38 38 37 36 35 34 34 33 32 31 30 29 29 28 28 29 29 29 30 30 30 31 31 32 33 34 35 35 36 36 37 37 38 38 38 39 40 41 41 42 42
36 35 34 34 33 33 32 32 31 30 30 29 29 29 28 29 29 29 29 30 30 31 32 32 33 34 35 35 36 36 37 37 38 38 39 39 40 41 42 43 44 44 44

GEFSMA_500_meanwind_066.txt.gz
Wind_Speed
22 21 20 19 19 18 18 18 18 18 18 18 19 20 21 22 23 24 25 27 28 29 30 30 31 32 32 33 34 34 34 34 33 33 33 32 32 32 31 30 29 28 27
23 23 22 22 21 20 20 20 20 20 20 20 21 22 23 24 25 26 27 29 30 31 32 32 32 32 33 33 34 35 35 35 34 34 34 33 33 32 31 30 30 29 28
25 25 24 24 23 23 22 22 22 22 22 23 24 24 25 26 28 29 30 31 32 33 33 33 33 34 34 34 34 35 36 36 35 35 34 34 33 33 32 31 31 30 29
27 27 27 26 26 25 25 25 25 25 26 26 26 27 28 29 30 31 32 33 34 34 34 34 34 34 35 35 35 36 37 37 36 36 36 35 34 33 32 31 30 30 29
28 29 29 29 28 28 28 28 28 28 29 29 29 30 31 32 33 34 35 36 36 36 36 35 35 35 35 35 36 37 37 37 37 37 36 36 34 33 32 31 30 30 29
30 30 31 31 31 31 31 31 31 31 31 32 32 33 34 35 35 36 37 38 38 37 36 36 36 36 36 36 37 37 37 37 37 37 37 36 34 33 32 31 30 29 29
33 32 32 33 33 34 34 34 34 34 34 35 35 35 36 37 38 39 39 39 39 38 37 37 37 37 37 37 38 38 38 38 37 37 36 35 34 33 31 31 30 29 28
36 36 36 36 35 35 36 37 37 37 37 38 39 40 39 39 40 41 41 40 39 39 38 37 37 38 38 38 39 38 38 38 37 37 36 34 33 32 31 31 30 28 28
37 37 37 38 38 38 38 39 40 40 40 41 42 43 43 41 40 40 40 40 40 39 38 38 38 38 38 39 39 39 38 38 37 36 35 34 33 31 31 29 28 27 27
39 39 39 39 40 40 40 41 41 42 42 43 44 44 45 45 44 42 40 39 39 39 38 38 38 38 39 39 39 39 38 38 37 35 34 33 31 30 28 28 27 26 26
41 41 41 42 42 43 43 44 44 44 45 45 45 45 45 45 44 43 41 40 40 39 39 39 38 39 39 39 39 39 38 37 36 34 33 31 29 28 27 27 26 26 25
44 44 44 44 45 45 46 46 47 47 46 46 46 45 45 44 43 43 42 41 41 41 40 40 40 40 40 40 40 39 38 36 35 33 31 30 28 27 26 26 25 25 24
47 47 47 48 47 47 48 48 48 48 48 47 46 46 44 44 43 43 43 42 43 42 41 41 41 41 41 40 40 38 37 35 33 32 30 28 27 26 25 24 24 24 23
48 48 48 49 49 49 49 48 48 48 47 47 46 46 45 44 43 43 43 43 43 42 42 42 42 42 41 40 39 38 36 34 32 30 28 27 26 25 24 24 23 23 23
49 50 50 50 50 50 50 49 49 48 48 47 47 46 45 45 45 44 44 44 43 43 43 42 42 42 41 40 38 36 34 33 31 29 27 26 25 25 24 23 23 23 23
50 50 50 51 51 51 51 51 50 49 49 48 47 47 46 46 45 45 44 44 44 44 43 42 42 41 40 38 36 35 33 32 30 28 27 26 25 25 24 23 23 23 23
51 51 52 52 51 51 51 51 51 50 49 49 48 47 47 46 46 45 45 45 44 44 43 42 42 40 38 36 35 33 32 31 29 28 27 25 25 25 24 24 24 24 24
52 52 52 52 52 52 51 51 50 50 50 49 48 48 47 47 46 46 45 45 44 43 42 41 40 38 36 35 34 32 31 30 29 27 26 25 25 25 25 25 25 25 24
51 52 51 50 50 49 49 49 48 48 48 48 47 47 47 46 46 45 45 44 43 42 41 39 38 36 35 34 33 31 30 29 28 27 26 25 25 26 26 26 26 26 26
47 47 47 47 47 46 45 45 45 46 46 47 46 46 46 46 45 44 43 43 42 40 39 37 36 34 33 32 31 30 29 28 27 27 26 27 27 27 28 28 28 28 28
43 43 43 43 43 44 44 44 45 45 45 45 46 45 45 44 43 42 41 40 39 38 37 35 33 32 31 30 30 29 28 28 28 28 28 28 28 29 29 29 29 29 30
42 42 42 42 42 42 43 43 43 43 43 44 44 43 43 42 41 40 39 38 37 35 34 32 31 31 30 29 29 29 29 29 29 29 29 29 29 30 30 31 31 31 31
42 42 42 42 42 42 42 42 43 43 42 42 42 42 41 40 39 38 37 36 34 32 31 30 30 29 29 29 29 29 29 30 30 30 30 31 31 31 32 32 32 32 33
41 41 42 42 42 42 42 42 42 41 41 41 40 39 39 38 37 36 34 33 32 31 30 29 28 28 29 29 30 30 30 30 31 31 32 32 32 33 33 33 33 33 33
41 41 41 41 40 40 40 40 39 38 38 38 37 36 35 34 34 34 33 32 31 30 29 28 28 28 29 29 30 30 30 31 31 32 32 33 33 33 33 34 34 34 34
39 39 39 39 38 38 37 36 36 35 35 34 34 34 33 32 32 32 31 30 29 29 29 29 29 29 29 30 30 31 31 31 32 32 33 33 33 34 34 35 35 36 36

GEFSMA_500_meanwind_072.txt.gz
Wind_Speed
24 24 23 23 22 22 21 21 20 20 20 20 20 20 21 22 22 23 23 24 25 26 28 29 31 32 34 35 35 35 34 34 33 33 33 33 33 33 33 32 32 31 30
25 25 24 24 24 24 23 23 23 23 23 23 23 23 24 24 25 25 26 27 28 29 30 31 32 34 35 36 36 36 35 35 34 34 33 34 34 33 33 33 32 31 30
26 25 26 26 26 25 25 25 25 25 25 25 26 26 26 27 27 28 29 29 30 31 33 34 35 36 37 37 37 37 36 36 35 35 35 35 35 34 33 33 32 31 30
26 26 26 27 27 27 27 27 27 28 28 28 28 29 29 30 31 31 31 32 33 34 35 36 37 38 38 38 38 37 37 36 35 35 35 35 35 35 34 34 32 31 30
27 26 27 27 28 28 29 29 29 30 30 31 31 32 32 33 33 34 34 35 35 36 37 38 39 40 40 40 39 38 37 37 36 36 36 36 36 35 35 34 32 31 29
27 27 28 28 29 30 30 31 31 32 33 33 33 34 35 35 36 36 37 37 38 39 40 40 41 42 41 40 39 39 38 37 36 36 36 36 36 36 35 34 32 30 29
29 29 29 30 31 31 32 32 33 33 34 35 35 35 36 37 38 39 39 40 41 42 43 43 43 42 41 40 40 39 38 37 37 37 37 37 37 36 35 34 32 30 28
31 31 32 32 32 32 33 33 34 35 36 37 37 37 37 38 38 39 40 42 43 44 44 43 43 42 41 41 40 39 38 38 37 37 37 37 36 35 34 33 32 30 27
34 33 33 34 35 35 35 35 35 36 37 38 39 40 40 39 39 39 41 43 44 43 44 43 42 42 41 40 40 39 39 38 38 38 38 37 36 35 34 32 31 29 26
35 35 35 36 36 36 36 37 38 38 39 40 41 42 42 43 42 42 42 44 44 44 43 43 42 41 41 41 40 40 40 39 38 38 38 37 36 34 33 31 30 28 25
36 37 37 37 37 37 38 39 40 40 41 42 43 43 44 45 46 46 45 44 45 44 43 43 42 42 41 41 41 40 40 39 39 39 38 37 35 34 32 30 28 27 25
37 38 38 38 39 39 39 40 41 42 43 44 44 46 47 47 47 47 46 45 44 43 43 43 42 42 41 41 41 41 40 39 39 38 38 36 34 33 31 29 27 26 24
39 40 40 40 40 40 41 43 44 44 45 45 46 47 47 48 48 47 47 46 45 45 44 44 44 44 43 42 42 41 40 40 39 38 37 35 33 31 29 28 26 24 23
43 42 43 42 42 43 44 44 46 47 47 47 47 47 47 48 47 47 47 47 46 45 45 45 45 44 44 44 43 42 41 40 39 38 36 34 32 30 28 27 25 24 23
45 45 46 45 46 46 47 48 48 48 48 47 48 48 48 47 48 48 48 48 47 46 45 45 45 45 45 44 43 42 41 40 38 37 34 33 31 29 28 26 25 24 23
46 47 47 48 49 49 49 50 50 50 50 50 50 50 50 49 49 49 49 49 48 48 47 46 46 46 45 44 43 42 40 39 37 35 33 32 30 28 27 26 25 23 23
47 48 48 49 50 51 50 50 50 50 50 50 50 50 49 50 50 49 49 49 48 48 48 47 46 45 44 43 42 41 38 37 36 34 32 31 29 28 27 26 24 23 22
49 49 49 49 49 50 50 50 50 50 50 49 49 49 49 49 49 48 48 48 48 47 47 46 45 45 44 43 41 39 37 36 34 32 31 30 29 28 27 25 24 23 23
49 49 50 50 50 51 51 50 50 50 49 48 48 47 47 47 47 47 47 46 46 46 46 45 44 43 42 41 39 37 35 34 32 32 31 30 28 27 26 25 25 24 24
49 49 49 49 50 49 49 48 48 47 47 46 46 46 46 46 46 46 45 45 45 45 44 44 42 41 40 38 36 35 34 33 32 30 29 28 27 26 25 25 25 25 25
48 47 47 47 47 46 46 45 45 45 45 45 45 45 44 44 44 44 44 44 44 43 42 41 40 38 37 35 34 33 32 31 30 29 28 27 27 26 26 26 26 26 26
47 47 46 46 46 46 46 46 45 45 44 44 43 43 43 43 43 43 43 43 42 41 40 39 38 36 35 33 32 32 31 30 29 28 27 27 26 26 27 27 27 27 27
49 48 48 47 47 47 46 45 44 44 43 43 42 42 42 41 41 41 41 40 39 38 37 37 36 35 33 32 32 31 30 29 28 27 27 27 27 27 28 28 28 28 28
48 48 47 46 46 45 45 44 43 42 42 41 41 41 41 40 40 39 39 38 37 36 35 34 33 33 32 32 31 30 29 29 28 27 27 28 28 28 28 28 28 29 29
47 46 45 45 44 43 43 43 42 42 41 40 40 39 39 38 37 37 36 35 34 33 33 32 32 31 31 31 31 30 29 28 28 28 28 28 28 29 29 29 29 30 30
46 45 45 44 43 43 42 42 41 41 40 40 39 38 37 36 35 34 34 33 32 31 31 30 30 30 30 30 30 29 28 28 28 28 28 29 29 29 29 30 30 31 31

GEFSMA_500_meanwind_078.txt.gz
Wind_Speed
33 32 30 29 28 27 27 26 25 24 24 23 23 23 22 22 23 23 24 24 25 26 26 27 28 29 29 30 31 32 33 34 35 35 35 34 34 33 32 32 31 31 30
35 34 32 31 31 30 29 28 28 27 26 26 26 25 25 25 25 26 26 26 27 28 28 29 30 31 31 32 33 34 35 36 37 36 36 35 34 33 33 32 32 31 30
37 36 35 34 33 32 31 30 30 29 29 28 28 28 28 28 28 29 29 29 30 30 30 31 32 32 33 34 35 36 37 38 38 37 36 36 34 33 33 32 32 31 31
39 38 37 36 35 34 33 32 31 31 31 31 30 30 30 31 31 31 32 32 32 33 33 33 34 34 35 36 37 38 38 39 38 37 36 36 34 34 33 33 32 32 31
41 40 39 38 37 36 35 34 34 33 33 33 33 32 32 33 33 34 34 34 34 34 35 35 35 36 37 38 39 40 40 39 38 37 36 36 35 34 34 33 33 32 31
43 42 41 40 38 38 37 36 35 35 35 34 34 34 34 34 34 35 35 35 36 36 36 36 36 37 39 40 40 40 39 38 38 37 36 36 36 35 34 33 33 32 31
44 44 43 42 40 39 38 37 37 36 36 35 34 34 35 35 35 36 36 36 37 37 37 37 38 39 40 41 41 40 39 39 39 38 37 37 36 36 35 34 33 32 31
44 44 44 42 41 41 39 39 38 37 36 36 35 35 35 35 35 35 36 37 38 38 38 39 40 41 42 42 42 42 41 40 40 39 38 38 37 36 35 34 34 32 30
44 44 44 43 42 41 40 39 38 37 37 36 36 36 36 36 36 36 37 38 39 39 40 41 42 43 43 43 43 42 42 42 41 40 39 38 38 37 36 35 34 32 30
43 43 43 42 42 42 41 39 38 38 37 37 37 38 37 37 36 36 37 38 39 40 41 42 43 43 44 44 43 43 43 42 41 40 40 40 39 38 37 35 34 32 31
42 41 41 40 39 39 38 38 38 38 37 37 37 37 37 37 38 39 39 40 40 41 42 43 44 44 44 44 44 44 43 43 43 42 41 41 40 39 37 36 34 32 30
39 39 39 39 38 37 37 37 37 36 37 38 38 38 38 39 40 40 41 41 42 43 44 44 44 45 45 45 45 45 45 44 44 43 42 41 40 38 37 35 34 32 30
36 37 38 38 38 38 38 38 38 37 38 39 39 39 39 40 41 42 43 43 43 44 44 45 45 45 46 46 46 46 45 45 44 43 42 40 39 38 37 35 33 31 29
37 37 37 38 39 40 40 38 38 38 39 39 39 39 40 41 42 43 44 45 45 44 45 45 46 47 48 48 47 47 46 45 44 43 41 40 39 37 36 34 32 30 28
38 39 39 38 39 39 40 40 39 39 39 40 40 41 42 43 44 44 45 45 46 46 46 46 47 47 48 48 47 46 45 44 43 42 41 40 38 36 35 33 31 29 27
35 38 40 40 40 40 41 41 41 42 42 41 41 42 43 43 44 45 46 46 47 47 47 47 47 47 47 47 46 46 45 44 43 41 40 39 37 35 33 31 30 28 27
37 37 39 40 41 41 41 41 41 42 42 42 42 42 43 44 44 46 46 47 47 47 47 46 47 46 46 46 45 44 44 42 41 40 38 37 35 33 32 30 29 28 27
40 40 41 41 42 43 43 43 43 43 43 43 43 44 45 45 46 46 46 46 45 45 45 44 44 45 45 44 44 43 41 40 39 38 36 34 33 32 31 29 28 27 27
43 44 44 44 45 45 45 45 45 45 45 45 45 45 45 45 45 45 44 44 43 43 43 43 43 43 43 42 42 41 40 38 37 35 34 33 32 31 29 28 27 27 27
46 47 46 47 47 47 47 47 47 47 46 46 45 45 44 43 43 43 43 42 42 42 42 42 42 42 41 41 40 39 38 36 35 34 33 32 30 29 28 27 26 26 26
48 49 48 48 48 48 48 48 47 47 46 45 45 44 44 43 43 43 42 41 41 42 41 41 40 40 39 38 38 37 35 34 33 32 31 30 29 28 28 27 26 25 25
50 50 50 50 50 50 50 49 48 48 47 46 45 44 44 43 43 42 42 41 41 41 40 40 39 38 37 37 35 34 33 32 31 30 29 28 28 27 26 26 26 25 25
53 52 52 51 51 51 50 50 49 48 47 46 45 44 43 42 42 41 41 41 40 39 39 38 37 36 35 34 33 32 30 29 29 28 28 27 26 26 26 26 25 25 26
54 53 53 52 51 50 49 49 48 47 46 45 44 44 43 42 41 41 40 39 39 38 37 36 35 34 33 32 31 30 29 29 28 27 27 26 26 26 26 25 25 26 26
53 53 52 51 51 50 49 48 48 47 45 44 44 43 42 41 41 40 39 38 38 36 35 34 34 33 31 30 29 28 28 27 27 26 25 26 25 25 26 25 25 26 26
52 52 51 50 50 49 49 48 47 46 45 44 43 42 41 41 40 39 38 37 36 35 34 33 32 31 30 29 28 27 27 26 25 25 25 25 25 25 25 25 26 26 27

GEFSMA_500_meanwind_084.txt.gz
Wind_Speed
39 38 36 35 34 33 32 31 30 29 28 27 26 26 25 25 24 24 24 24 24 25 25 25 26 27 27 28 29 29 30 31 31 32 33 34 35 35 35 34 33 33 32
41 40 39 38 36 35 34 33 32 30 29 29 29 29 28 27 27 27 26 27 27 27 28 28 28 29 30 31 31 31 31 32 32 33 35 35 35 35 35 35 34 33 33
43 42 41 39 38 37 36 35 34 32 31 31 31 31 30 30 29 29 29 29 29 30 30 31 31 32 32 32 32 32 32 33 33 35 36 36 36 36 36 35 35 34 34
46 44 42 41 41 40 38 37 36 34 34 34 34 33 33 32 32 31 31 32 32 32 32 33 33 33 33 33 33 33 33 33 34 36 37 36 37 37 36 36 36 36 34
47 45 44 43 43 41 40 39 38 37 37 36 36 35 35 34 34 34 34 34 34 34 34 33 33 33 33 33 34 34 34 35 36 37 37 37 37 38 38 38 37 37 35
50 48 47 45 44 43 42 41 40 39 39 38 38 37 36 36 35 35 35 35 35 35 34 34 34 34 34 34 35 35 35 36 37 37 37 38 39 39 39 39 39 38 36
51 50 48 47 47 45 43 43 41 41 41 40 39 38 38 38 37 37 36 36 35 35 34 34 35 35 35 35 35 35 36 37 37 37 38 40 41 41 41 41 40 39 37
49 49 49 48 47 46 45 44 43 42 42 41 40 40 39 39 38 38 37 36 36 36 36 36 35 35 34 34 35 36 37 38 38 39 40 42 42 42 42 42 42 40 39
47 47 48 47 46 45 45 44 43 42 42 42 41 40 40 40 38 37 37 37 37 37 37 36 36 36 35 36 36 37 38 39 40 41 42 43 44 44 43 43 42 41 39
48 47 47 46 45 45 45 46 45 42 40 41 41 41 41 40 39 38 38 38 38 38 38 37 37 37 37 37 37 38 39 40 42 43 44 45 45 45 44 44 42 41 39
47 47 46 45 44 44 45 45 45 43 42 41 41 40 39 39 40 39 38 38 39 38 37 37 37 37 37 38 39 40 40 42 43 45 46 47 47 46 45 44 42 41 39
45 46 47 46 44 45 45 44 43 43 43 42 40 39 39 40 40 40 40 39 38 37 37 37 37 37 38 38 40 41 42 43 45 46 47 48 48 47 46 44 42 41 39
43 44 45 45 46 46 45 45 44 44 44 43 41 41 41 41 41 40 40 39 39 38 38 38 38 38 39 39 40 42 43 45 46 47 48 48 48 47 45 44 42 40 38
40 40 41 42 43 44 45 45 44 45 45 45 44 44 44 42 41 40 40 40 40 39 38 38 38 39 40 41 42 44 45 46 47 48 48 48 47 46 44 43 41 38 36
39 39 40 42 42 41 42 44 45 44 45 44 44 44 43 42 40 40 40 40 40 39 38 38 38 39 40 41 43 44 46 46 47 47 47 46 46 45 43 42 39 37 35
35 37 40 41 41 42 42 43 43 44 44 44 43 42 42 41 40 41 41 41 40 39 38 38 39 40 41 43 44 45 45 46 46 46 46 46 44 43 41 39 37 36 34
32 34 36 38 39 40 41 42 42 43 44 44 43 43 42 42 41 41 41 40 40 39 39 40 41 42 43 44 44 44 44 45 45 45 45 44 43 41 39 38 36 34 32
34 35 36 37 38 39 41 43 44 44 45 45 45 45 43 41 41 41 41 41 41 41 41 41 42 43 43 43 43 43 44 45 44 44 43 42 42 40 38 36 34 32 30
36 37 38 39 39 40 41 42 42 42 43 43 43 43 41 41 42 42 42 42 42 42 43 43 43 43 43 42 42 43 44 44 43 43 42 41 40 38 36 35 33 31 29
38 39 39 40 41 41 42 42 42 42 42 43 43 43 43 43 44 44 44 43 43 43 44 44 43 43 43 43 43 43 43 43 42 42 41 40 38 36 35 33 31 30 28
42 43 44 44 44 45 45 45 45 46 45 45 45 45 45 45 45 45 45 45 45 45 45 44 44 43 43 43 43 43 42 42 41 40 39 37 36 34 33 31 29 28 27
46 46 47 47 47 48 48 48 48 49 48 48 48 48 48 47 47 46 46 46 46 46 46 45 44 44 44 43 43 42 41 40 39 38 37 35 34 33 31 29 28 26 26
49 50 50 50 50 50 51 51 51 51 50 50 50 49 49 49 48 48 48 47 47 47 46 45 44 44 43 42 41 40 40 39 37 36 35 33 32 31 29 28 26 25 25
52 52 53 53 53 53 53 53 53 53 52 51 51 50 50 49 49 48 48 47 47 47 46 45 44 43 43 42 41 40 39 37 36 35 33 32 30 29 28 27 25 24 24
55 54 55 55 54 54 54 54 54 54 53 52 51 50 50 50 49 48 48 47 46 46 46 45 44 43 42 41 40 39 37 36 34 33 32 30 29 28 27 26 25 24 23
58 57 56 56 56 56 56 55 55 54 53 52 51 50 50 50 49 49 48 47 46 46 45 44 44 43 41 40 39 38 36 35 33 32 30 29 28 27 26 25 24 23 23

GEFSMA_500_meanwind_090.txt.gz
Wind_Speed
44 42 41 40 38 37 36 35 34 33 32 31 30 29 29 28 27 27 26 26 26 26 26 27 27 27 27 28 28 29 29 30 30 30 30 30 30 31 31 32 32 33 34
46 44 43 42 41 40 39 38 36 34 34 33 32 32 31 30 30 29 29 28 28 28 28 29 29 29 29 30 30 30 31 31 31 31 30 31 31 31 32 32 33 34 35
48 47 45 44 43 42 41 39 38 36 36 35 34 34 34 33 32 32 31 30 30 30 30 31 31 31 31 31 31 32 32 32 31 31 31 31 31 31 32 33 34 35 36
50 49 48 46 45 44 43 41 40 39 39 38 37 36 35 34 34 33 32 32 32 33 32 33 33 33 33 33 32 32 32 32 32 32 32 31 32 32 33 34 35 36 38
51 51 50 49 48 47 45 44 43 42 41 41 39 38 38 36 36 35 35 36 36 35 35 34 34 34 34 34 34 33 33 32 32 32 31 32 32 33 33 34 36 37 39
52 52 51 51 51 49 48 47 46 45 43 42 41 40 40 39 38 37 37 38 37 37 36 36 35 35 35 35 34 34 33 33 32 32 32 32 33 33 34 36 37 39 40
50 52 52 52 52 51 49 49 48 46 45 43 42 42 41 40 39 39 39 38 38 38 37 37 36 36 36 35 34 34 34 33 32 32 33 33 33 34 35 37 38 40 40
47 49 51 52 51 49 49 47 46 46 45 44 43 43 42 42 40 40 40 39 39 38 38 37 37 36 36 36 36 35 34 34 34 34 34 34 34 35 36 37 39 40 40
47 49 50 51 50 49 48 47 45 44 45 45 44 43 43 43 42 41 40 39 38 38 38 37 37 36 36 36 35 35 35 35 35 35 35 34 35 36 37 38 39 41 41
45 46 47 49 49 49 48 48 46 45 45 45 46 46 44 42 41 40 40 39 39 39 39 38 37 37 37 37 37 36 36 36 36 36 36 35 36 37 38 39 41 41 41
44 45 45 45 46 48 49 49 48 48 47 47 48 47 45 43 42 42 41 40 40 40 39 39 39 39 38 38 38 38 38 37 37 37 37 37 37 38 39 40 41 41 41
43 44 45 45 46 46 46 47 46 47 46 47 46 45 45 44 43 43 42 41 40 40 40 39 39 40 39 39 39 39 39 39 38 38 38 38 39 40 41 41 41 42 42
42 42 44 46 46 46 46 46 46 47 48 48 46 45 45 45 47 46 44 43 43 43 43 43 42 42 41 41 40 39 39 39 39 39 39 39 40 41 41 42 42 42 42
41 42 43 44 45 46 47 47 46 47 48 47 46 47 47 47 47 46 45 45 46 45 45 45 45 44 44 43 42 41 40 40 40 40 40 40 41 42 42 43 43 42 41
39 42 42 42 43 44 45 45 46 47 48 48 47 47 47 47 46 47 46 47 47 47 47 47 47 47 46 45 43 42 42 41 41 41 41 41 42 42 43 43 43 42 40
35 37 39 40 41 43 44 44 44 46 48 48 46 47 48 48 49 49 49 49 49 49 48 48 48 47 47 46 45 44 43 42 42 42 42 42 42 42 43 43 42 41 40
33 36 38 40 42 43 44 45 45 46 47 48 48 47 48 49 49 50 50 50 49 48 48 47 46 46 46 45 44 44 43 43 43 43 42 42 42 43 42 42 42 40 39
33 36 39 41 42 44 46 46 47 47 47 48 48 49 49 49 49 49 50 49 49 48 48 47 46 45 44 44 44 43 43 43 43 43 43 43 42 43 42 41 41 40 38
31 33 37 39 41 43 45 46 47 48 49 49 49 50 50 50 50 50 50 50 49 49 49 48 46 45 45 44 44 43 44 44 44 44 43 43 43 42 41 41 40 38 36
31 33 35 38 41 43 45 47 48 49 50 51 51 51 51 52 52 51 51 51 51 51 50 49 48 47 46 46 46 45 45 45 45 44 44 43 42 42 41 40 39 36 34
35 37 38 40 42 44 45 47 48 49 50 51 52 52 52 53 54 54 54 53 53 52 52 51 49 48 48 47 46 46 46 45 44 44 44 43 42 41 40 39 37 35 32
41 42 43 45 46 47 47 48 50 51 52 53 53 53 53 54 54 54 54 54 53 53 52 51 50 50 49 49 48 46 46 46 45 44 44 43 42 40 39 37 35 33 31
46 47 49 50 51 52 52 52 53 54 55 55 56 55 55 55 54 54 54 54 54 55 54 53 52 50 50 49 48 47 47 46 45 44 43 42 41 39 38 35 33 31 30
52 53 54 55 55 56 57 57 57 57 58 58 59 58 58 58 58 57 57 56 56 55 54 54 53 52 50 49 48 48 47 46 45 43 42 41 40 38 36 34 32 30 28
58 60 60 60 60 60 61 62 62 62 61 61 61 61 62 61 60 61 60 58 57 55 55 54 53 52 50 49 49 48 47 45 44 43 42 40 39 37 35 32 31 29 27
65 65 65 66 65 65 65 66 65 65 65 64 64 63 63 63 63 62 61 60 59 57 56 55 53 52 51 50 49 47 46 45 44 42 40 39 37 35 33 31 29 28 27

GEFSMA_500_meanwind_096.txt.gz
Wind_Speed
41 41 41 41 42 41 39 39 38 37 36 34 33 32 31 30 30 29 29 29 29 28 28 28 28 28 28 28 29 29 30 30 30 30 29 29 29 28 28 28 28 28 28
43 42 42 42 43 43 42 41 40 39 38 36 35 34 33 32 31 31 31 31 31 31 30 30 30 31 31 30 30 31 32 32 31 31 31 30 29 29 29 28 28 28 29
44 44 44 43 43 44 44 44 42 41 40 38 37 36 35 34 34 33 32 32 32 32 32 32 32 32 32 32 32 33 33 33 33 32 32 31 30 30 29 29 29 29 30
44 44 44 45 44 45 46 45 44 43 42 40 39 38 38 37 36 36 35 35 34 34 34 35 34 34 34 34 34 34 34 34 34 34 33 33 32 31 30 29 29 30 31
45 45 46 46 46 47 46 46 45 44 43 43 42 41 40 40 39 38 38 37 37 36 36 36 36 36 36 36 36 36 36 36 36 35 35 33 32 31 30 30 31 31 32
47 46 47 48 49 48 47 47 46 46 45 45 44 43 42 42 42 41 40 40 39 39 39 39 38 38 39 39 38 38 38 37 37 36 35 33 32 31 31 31 31 32 33
49 47 48 48 48 48 47 47 49 48 47 47 46 44 43 43 42 41 41 40 40 41 41 40 39 40 40 40 39 39 38 38 37 36 35 34 33 32 32 32 32 33 34
50 48 47 48 48 47 47 48 49 48 47 47 46 45 44 44 43 43 43 42 42 41 41 40 40 40 40 41 41 40 39 39 37 36 35 34 33 32 32 32 33 34 35
49 49 48 48 48 47 47 48 48 48 48 47 46 46 45 44 44 44 43 42 42 41 40 41 41 41 41 41 41 40 39 38 37 36 35 34 34 33 34 34 35 35 36
48 47 48 48 48 47 48 49 48 47 48 48 48 48 47 46 45 45 44 43 42 42 43 44 43 42 42 41 40 39 39 38 37 36 35 35 35 35 36 36 36 36 36
47 46 46 46 47 47 48 48 49 49 49 49 50 50 49 47 46 46 45 45 45 44 44 43 43 42 42 42 41 40 40 39 38 37 36 36 37 37 37 38 37 37 38
46 46 45 45 46 47 48 49 48 48 50 51 51 51 50 49 48 48 48 48 47 46 44 43 43 41 41 42 42 41 40 40 39 39 38 37 38 39 40 40 39 39 39
42 44 44 44 45 46 47 49 49 49 49 51 52 52 53 52 51 50 48 47 47 46 45 44 43 42 43 43 43 42 42 41 41 42 41 40 40 40 40 40 39 39 39
40 42 43 43 45 45 46 49 50 51 51 52 51 51 51 51 50 49 48 47 46 46 46 45 44 45 45 44 45 44 44 44 44 44 44 43 42 41 40 40 40 39 39
36 39 41 41 42 43 45 48 49 50 50 50 49 50 50 50 50 50 49 49 48 47 47 46 46 46 47 47 46 46 46 46 46 46 45 44 44 43 42 41 41 40 40
31 34 36 37 40 42 44 46 47 48 48 48 49 50 51 51 51 50 50 50 51 50 49 48 48 49 49 48 48 48 48 48 47 47 46 45 45 44 43 42 42 41 40
30 31 34 36 38 41 43 44 45 46 48 49 50 51 52 52 52 52 52 52 52 52 52 52 51 51 50 50 49 49 49 49 48 46 46 44 44 44 43 42 42 41 40
29 30 32 34 36 37 40 42 43 45 47 48 49 51 51 52 54 55 54 53 53 53 53 52 52 51 50 49 50 51 51 50 49 48 48 46 45 44 43 42 41 40 40
28 30 32 34 36 38 40 42 45 46 48 49 51 52 53 54 55 56 55 54 54 55 55 55 54 53 52 50 51 51 51 50 50 51 49 47 46 44 43 43 42 41 40
30 32 34 36 37 39 41 43 45 47 49 50 52 54 54 55 56 56 56 56 57 57 57 57 57 55 54 53 53 52 52 51 50 50 48 47 46 45 44 43 43 41 40
32 34 36 37 40 42 43 45 47 49 51 52 54 56 57 57 58 59 60 59 60 59 59 58 58 57 57 56 56 55 55 54 52 49 48 47 46 45 45 44 42 41 40
36 37 39 40 42 43 45 47 49 51 53 55 56 56 58 59 60 61 62 63 62 62 62 61 60 59 59 59 59 58 57 55 52 51 49 48 47 46 45 44 43 42 40
40 42 44 45 47 48 50 52 55 57 58 59 60 60 61 62 63 64 64 65 66 66 66 64 62 61 61 61 61 60 58 57 54 52 50 48 48 46 45 43 42 41 39
47 49 51 52 54 55 56 57 59 60 61 62 63 63 64 65 67 68 68 68 68 68 68 67 66 65 64 63 62 60 59 58 55 52 51 50 49 47 45 43 41 40 38
54 55 57 59 60 61 62 63 64 64 63 64 65 66 67 68 69 70 71 70 70 70 70 69 68 66 65 64 63 61 60 58 55 54 53 51 49 47 45 43 41 39 38
59 61 63 64 66 67 68 68 68 67 67 67 67 68 69 71 72 73 73 72 70 69 69 68 67 66 65 64 63 61 60 57 56 55 53 51 49 46 44 42 40 38 36

GEFSMA_500_meanwind_102.txt.gz
Wind_Speed
45 44 43 42 42 41 40 40 40 40 40 39 38 37 37 36 36 34 34 33 32 31 30 29 29 29 29 29 29 29 29 29 29 29 29 29 29 28 28 28 27 27 26
48 46 46 45 44 43 41 41 41 40 41 40 40 39 39 38 37 37 36 35 34 33 32 31 31 31 31 31 31 31 31 31 30 30 30 30 30 29 29 28 28 28 28
50 49 48 46 45 44 42 42 42 42 42 42 41 41 41 40 39 39 38 36 36 35 34 33 33 32 32 33 33 33 33 33 32 32 32 32 32 31 30 29 29 28 28
53 50 49 49 47 45 43 43 43 43 43 43 43 43 43 42 41 40 39 38 37 37 36 35 35 35 35 35 35 35 35 35 34 34 34 34 33 33 31 31 30 29 28
54 53 50 49 48 46 45 45 45 45 45 45 44 44 44 44 43 41 41 40 39 38 38 38 37 37 37 37 37 37 37 37 37 36 36 36 35 34 33 32 31 30 29
56 55 52 50 49 48 47 47 46 46 46 46 46 46 45 44 44 43 42 42 41 40 40 39 39 39 39 39 39 39 39 39 39 38 37 36 35 34 34 33 31 30 30
56 55 53 52 50 49 49 49 49 47 46 47 46 46 46 46 45 44 44 43 42 41 41 40 40 40 40 40 40 40 40 40 40 39 38 36 35 35 34 33 32 31 30
55 54 53 53 52 51 50 49 49 49 48 48 48 48 47 46 44 44 43 43 43 43 42 41 41 41 41 40 40 40 40 39 38 38 38 37 37 36 35 34 32 32 31
55 54 54 54 54 53 52 51 51 50 50 50 50 51 49 48 46 45 44 43 43 43 43 42 42 42 42 41 40 39 39 38 38 38 38 37 37 35 35 34 33 32 31
53 53 53 54 53 53 53 52 51 52 52 52 51 51 50 49 48 46 46 46 46 45 45 44 44 43 43 42 40 40 40 39 39 38 38 38 37 37 36 34 33 33 32
51 52 52 53 54 53 53 53 52 52 53 52 51 50 51 51 49 48 48 47 46 46 46 45 44 44 44 43 42 42 41 41 41 40 40 39 39 38 37 35 34 33 33
48 49 51 51 52 52 53 53 53 53 53 52 51 52 52 51 50 49 48 46 46 46 46 47 45 45 44 44 44 43 43 42 42 42 40 39 39 38 37 36 35 35 35
42 45 48 49 50 50 50 51 52 53 54 53 52 52 52 51 50 51 51 50 48 48 48 47 47 46 45 45 44 43 43 42 42 42 41 41 40 39 38 37 37 36 36
37 40 42 45 46 47 48 50 50 52 52 52 53 52 52 52 52 52 51 52 52 51 50 48 47 47 47 46 44 44 44 44 44 44 43 42 41 40 39 38 37 37 36
32 34 36 38 40 43 45 49 50 51 52 52 52 53 52 53 54 53 51 52 53 53 51 48 48 48 49 48 47 46 45 44 44 44 44 44 43 42 41 40 39 38 37
30 31 33 35 37 38 41 44 47 49 50 51 53 54 53 52 54 54 53 54 54 54 53 51 51 51 51 51 49 49 48 47 47 46 45 44 44 44 43 42 41 40 39
28 31 32 33 35 36 38 41 43 45 46 48 50 51 53 53 53 54 54 55 55 56 55 54 54 53 53 53 53 52 51 50 48 48 47 47 47 45 44 44 43 42 41
26 28 30 32 34 37 39 41 43 44 45 47 49 50 51 54 55 55 56 57 56 56 57 57 56 56 56 56 56 55 54 52 51 50 49 49 48 47 46 45 44 43 42
26 28 31 33 35 37 38 40 41 43 46 48 50 52 53 55 55 56 57 57 57 58 59 59 59 59 59 59 58 57 56 54 53 51 51 50 49 48 47 45 45 44 43
29 30 32 34 35 38 39 41 43 46 47 49 50 51 53 56 57 58 59 59 59 60 61 62 61 60 60 60 60 59 58 56 54 53 52 51 49 48 47 46 46 45 44
31 33 34 36 38 40 42 44 45 47 49 50 52 53 55 56 58 60 61 62 63 63 64 64 64 64 63 63 61 59 58 58 57 55 54 52 51 50 50 49 48 47 46
32 34 36 38 41 43 45 46 47 49 51 53 55 55 56 58 59 61 63 64 66 66 66 66 66 66 65 64 61 61 60 60 59 57 56 55 54 53 53 52 52 50 48
36 38 40 41 43 45 47 49 51 52 54 56 58 59 60 62 63 64 65 67 67 68 69 70 69 67 66 64 64 63 63 62 61 60 60 58 57 56 55 54 53 52 50
40 42 44 46 48 50 52 54 56 57 59 60 62 63 64 65 67 68 69 70 70 70 71 72 71 70 68 67 66 66 66 65 64 63 62 61 59 57 56 55 54 52 50
44 46 48 50 53 55 57 58 60 62 63 64 66 67 68 68 69 71 71 72 72 73 73 73 73 72 71 70 69 69 68 67 66 65 63 62 60 58 57 55 54 53 51
48 50 52 54 56 58 60 61 63 64 66 67 68 69 70 70 70 72 73 74 73 73 74 74 74 73 72 72 71 70 69 67 67 66 63 61 60 59 58 56 54 53 50

GEFSMA_500_meanwind_108.txt.gz
Wind_Speed
48 47 45 45 44 44 43 42 41 41 39 39 38 37 37 37 36 36 35 35 34 34 34 34 33 33 33 32 32 31 30 30 29 29 29 29 28 27 27 27 27 27 27
51 51 50 48 47 46 44 43 42 41 40 40 39 38 39 39 38 38 37 37 36 35 35 35 34 34 34 34 34 33 32 32 31 31 31 30 30 29 29 29 29 29 29
53 52 52 52 51 49 47 45 44 43 42 42 42 41 40 40 39 38 38 38 37 36 36 36 36 35 36 35 35 35 34 34 33 32 32 32 32 31 32 31 31 31 30
53 53 52 52 52 52 50 49 47 46 45 45 44 43 42 41 40 40 39 38 38 38 37 37 37 37 37 37 37 36 36 36 35 34 34 33 34 34 34 33 33 32 31
54 54 53 52 52 52 52 51 50 49 48 47 47 46 45 44 43 42 42 41 39 39 38 38 38 38 38 38 37 37 37 37 37 36 36 35 36 36 36 35 34 32 31
55 55 54 53 53 53 53 52 52 51 50 50 49 49 47 46 46 44 44 43 41 41 41 40 39 39 39 39 38 38 38 38 39 38 38 38 37 37 36 36 35 33 31
55 55 54 54 54 53 53 53 52 53 52 52 51 50 49 48 47 46 45 45 43 43 42 41 41 40 40 40 40 40 39 39 39 39 39 39 38 37 36 36 35 32 31
54 54 54 54 54 54 53 53 53 52 52 52 51 51 51 51 50 49 48 46 45 44 43 42 42 42 41 41 41 41 41 40 40 40 40 39 38 37 36 35 33 32 31
52 54 54 54 55 55 54 54 54 53 53 52 52 51 51 51 51 51 51 49 47 46 44 43 43 43 42 42 42 41 41 41 41 41 40 39 38 38 36 34 32 31 30
48 50 51 52 53 54 53 55 55 55 54 54 53 52 53 53 53 53 51 50 49 48 47 46 45 45 44 44 43 43 42 42 41 41 41 39 38 37 35 34 33 32 31
44 45 47 49 50 51 52 53 54 53 53 54 53 52 53 54 54 53 51 51 50 49 48 48 47 46 46 45 44 44 44 43 42 41 41 39 38 37 36 36 34 33 32
40 42 44 45 47 48 49 50 50 52 54 55 54 53 53 53 54 54 53 53 52 50 49 48 47 47 47 47 46 45 44 44 44 43 42 41 39 38 37 37 36 35 34
35 37 39 40 42 44 46 48 49 51 53 53 52 52 53 53 54 55 54 54 53 53 52 51 51 50 49 49 48 47 46 45 45 44 43 42 41 40 39 38 37 36 35
28 31 33 34 35 36 38 41 44 47 49 51 51 51 53 53 53 54 55 56 56 56 55 52 51 51 50 50 49 49 47 46 47 47 46 45 43 41 40 40 39 38 37
25 26 28 30 32 33 34 36 39 42 45 47 49 50 52 53 53 54 54 54 55 55 54 52 51 52 51 51 50 49 48 48 48 48 48 46 44 43 42 42 41 39 38
23 25 25 27 29 31 33 34 36 39 42 44 46 48 50 51 52 53 53 54 53 53 53 51 52 51 52 52 51 51 51 50 50 49 48 47 46 45 44 44 43 41 40
22 23 25 26 28 30 32 33 35 37 40 43 45 46 47 48 51 52 52 53 54 54 55 54 54 53 52 52 52 53 53 51 50 50 50 49 50 49 47 46 45 44 43
22 23 25 27 29 30 32 33 35 36 38 40 42 44 44 45 48 49 51 52 54 55 56 54 54 54 54 53 54 55 55 54 54 53 53 53 52 51 50 49 48 47 46
23 25 26 28 29 31 33 34 35 36 38 39 40 42 45 46 47 49 51 52 53 55 56 57 56 56 57 57 57 56 57 57 57 57 57 55 54 54 52 51 50 49 48
24 26 28 29 31 32 33 34 35 36 38 40 42 44 45 47 49 50 51 53 54 56 57 59 59 59 59 60 60 60 60 61 60 60 58 57 56 55 54 53 53 52 50
25 26 28 30 31 33 35 36 38 39 41 42 43 45 47 49 51 53 54 54 56 57 58 58 60 60 60 61 62 62 63 63 63 63 61 60 59 57 56 55 54 53 52
27 29 31 32 33 35 36 38 40 41 43 44 46 47 49 51 53 55 57 58 58 59 59 60 60 61 62 63 63 63 63 64 65 64 63 62 62 60 57 56 55 54 53
31 33 35 36 37 38 40 42 43 44 46 48 49 51 52 54 55 57 58 60 61 62 63 63 64 64 65 66 67 67 67 66 66 66 66 64 63 61 60 58 57 55 54
36 38 39 40 41 42 43 45 47 48 50 51 53 55 56 57 59 60 61 62 63 64 65 66 66 66 67 68 70 70 70 70 69 69 69 69 67 66 64 63 61 59 57
39 40 41 42 43 45 46 48 50 51 52 54 56 58 59 60 60 62 63 63 64 65 66 67 67 67 68 69 70 71 72 72 72 72 72 71 70 69 67 65 64 61 59
41 42 43 44 45 47 49 51 52 54 56 57 59 60 62 63 63 63 65 65 66 66 67 68 69 69 68 69 70 71 72 72 72 72 71 71 70 70 69 67 65 63 61

GEFSMA_500_meanwind_114.txt.gz
Wind_Speed
44 45 46 46 46 46 45 44 43 43 42 42 41 40 39 39 38 38 36 36 35 34 34 34 33 33 33 33 33 32 32 32 31 31 31 31 30 30 29 28 28 27 27
46 46 47 48 48 48 47 46 45 45 44 44 43 43 42 41 40 39 39 38 37 36 35 35 35 35 35 35 34 34 34 33 33 32 32 32 32 31 31 30 29 29 28
48 48 48 49 49 50 49 48 47 46 46 46 45 45 44 43 42 41 40 40 39 38 38 37 37 36 36 37 36 35 35 35 34 34 33 33 33 33 32 31 30 30 29
48 49 49 49 50 51 51 50 49 49 48 47 46 45 45 45 45 43 42 42 42 41 40 39 39 38 38 37 37 37 37 36 36 35 35 35 34 34 33 32 31 31 30
49 49 49 50 51 51 51 51 51 50 49 49 49 47 46 46 46 45 45 44 43 43 42 42 41 40 40 39 38 38 38 37 37 37 37 36 36 35 35 34 33 33 32
50 50 50 50 51 51 50 50 50 51 51 50 50 50 49 49 48 48 47 45 44 44 44 44 43 43 42 41 41 40 39 39 39 39 38 38 37 37 36 36 35 34 33
49 49 49 50 50 51 51 50 51 52 52 52 52 52 51 52 51 50 49 47 46 46 46 45 44 44 43 43 42 42 41 41 41 41 40 39 39 38 37 37 36 35 34
47 47 47 48 48 49 50 51 51 52 52 53 53 53 52 52 52 52 52 51 49 48 48 47 46 46 45 44 44 44 44 43 42 42 41 41 40 39 39 38 37 36 35
46 46 46 47 48 48 49 50 50 50 52 53 53 54 53 53 53 53 52 52 52 51 48 47 48 48 47 47 47 46 45 44 44 43 42 42 41 41 40 39 38 37 35
43 44 44 45 45 46 47 48 48 49 50 51 52 53 53 54 53 53 53 53 53 52 51 50 49 47 48 48 48 47 46 46 45 45 44 43 43 42 41 41 40 39 38
40 40 41 42 43 44 45 46 48 48 49 50 51 52 52 53 54 55 54 54 55 54 53 52 51 50 49 49 49 48 48 47 46 46 45 45 44 43 43 43 42 41 40
36 37 38 38 40 42 43 44 46 46 47 47 49 50 51 52 53 54 55 55 54 55 55 54 53 52 52 52 52 51 50 49 48 47 47 46 45 44 44 43 43 42 41
32 34 35 35 36 37 38 40 41 43 44 46 47 49 50 51 52 53 54 55 55 54 56 56 56 53 53 52 53 53 53 52 51 49 49 49 48 46 45 45 44 43 42
28 29 31 31 32 33 35 36 37 38 40 41 44 46 49 50 50 51 53 54 55 55 54 54 56 56 55 54 52 53 54 53 52 52 50 49 49 48 47 46 45 44 43
24 26 27 29 31 32 34 35 36 38 38 39 40 42 44 46 48 49 50 52 53 54 54 53 54 55 57 57 55 53 53 54 54 53 53 52 51 51 50 49 48 46 46
24 24 25 27 29 30 33 34 35 37 38 38 38 38 40 42 45 46 48 49 51 54 55 54 55 56 57 57 57 56 55 55 55 55 55 54 54 53 52 51 51 49 48
24 25 26 27 28 30 31 32 33 34 36 37 38 39 40 41 43 45 47 49 51 53 54 53 54 54 56 57 57 56 56 56 56 56 57 57 56 55 54 54 53 52 51
24 25 25 27 28 29 30 31 32 34 35 37 39 40 40 42 43 44 46 48 50 52 53 53 53 54 55 57 56 56 57 57 57 57 58 58 57 57 56 55 55 54 53
22 23 24 26 27 28 31 33 34 35 37 38 40 41 42 43 44 45 46 48 49 51 52 52 53 53 54 56 57 57 57 57 58 59 58 58 59 59 57 57 57 56 55
22 23 25 26 27 29 30 32 34 36 38 39 40 41 42 43 45 46 47 48 49 50 52 54 55 55 55 56 58 59 58 58 59 61 60 59 60 61 61 60 59 59 58
24 25 26 28 29 31 32 34 36 37 39 40 42 43 44 45 46 46 48 49 50 51 53 54 55 56 57 58 59 59 59 59 60 61 62 61 61 62 62 62 61 60 59
26 27 28 30 31 32 34 35 37 38 39 41 43 44 46 47 48 49 49 51 52 53 54 55 56 57 58 59 60 60 61 61 60 61 63 62 62 62 62 62 62 62 61
28 29 31 32 33 34 35 36 37 38 40 42 44 46 48 49 50 51 53 55 55 56 57 58 58 59 59 61 62 61 61 62 61 62 63 63 63 62 63 64 63 63 63
30 31 33 34 35 36 37 38 40 41 42 44 46 48 50 51 53 54 55 56 58 59 59 60 61 61 62 62 63 64 64 63 64 64 65 65 65 65 64 65 65 65 65
33 34 35 36 37 38 39 41 42 43 45 46 48 50 52 53 55 56 57 58 59 60 61 62 62 63 63 64 65 66 67 67 66 67 69 68 67 67 67 66 67 68 68
35 37 37 38 40 41 42 43 45 46 48 49 51 52 54 56 57 58 59 60 60 60 61 61 62 62 63 63 64 66 67 68 68 68 70 71 70 69 69 68 68 68 69

GEFSMA_500_meanwind_120.txt.gz
Wind_Speed
42 42 43 43 43 43 42 42 42 42 42 42 42 42 42 41 41 41 40 39 38 38 37 37 37 36 35 35 34 33 33 33 33 32 32 31 31 30 30 29 29 29 29
42 43 44 44 45 45 45 45 45 45 45 45 45 44 44 43 43 43 43 42 41 40 39 40 39 38 37 37 36 35 34 34 33 33 33 33 33 32 31 31 30 30 30
44 44 45 45 46 47 47 47 47 46 46 46 47 47 46 45 45 44 44 44 44 43 42 41 41 40 39 38 38 37 37 36 35 35 35 34 34 34 33 32 32 31 31
45 45 46 46 47 48 48 48 48 48 47 47 47 48 47 47 46 46 45 45 45 45 44 42 41 42 42 40 40 39 39 38 38 37 37 36 36 36 35 34 33 33 32
44 45 46 46 47 48 48 48 48 48 48 48 47 48 48 48 48 47 47 47 46 46 45 44 43 43 43 43 42 41 41 40 39 39 39 38 38 37 36 35 35 34 34
44 45 45 46 47 48 47 47 48 48 48 48 48 47 47 47 47 47 48 48 48 47 47 47 46 45 44 44 44 43 41 41 40 40 40 40 40 39 38 37 36 36 35
44 44 44 44 45 46 46 46 47 48 48 48 48 49 48 48 48 48 49 50 49 50 49 48 48 47 45 45 45 45 44 43 42 42 42 42 42 41 39 38 37 37 36
42 43 43 43 44 44 44 45 46 47 47 47 48 48 49 49 49 49 50 49 49 50 49 48 49 49 48 47 47 47 47 46 45 45 45 43 43 43 41 40 39 38 38
41 42 43 43 43 43 44 44 46 47 47 46 47 48 49 49 48 48 48 48 49 49 49 50 50 51 51 51 50 49 48 48 47 46 46 45 44 44 44 43 42 40 39
40 41 42 43 43 43 43 43 44 44 45 45 46 48 49 50 50 47 48 49 49 50 50 51 51 51 52 53 52 52 51 50 48 48 47 46 47 45 45 44 43 43 41
39 40 40 41 42 42 42 42 43 43 44 44 44 46 46 47 49 49 47 48 48 48 50 51 51 51 52 52 52 52 52 51 50 50 49 48 47 47 47 46 45 45 44
37 38 38 38 39 39 40 41 41 41 42 44 44 45 45 45 46 46 45 45 46 46 48 50 51 51 51 52 52 51 52 52 51 51 51 50 48 47 47 48 47 47 46
34 34 34 34 35 37 38 38 39 39 40 40 42 43 44 43 43 44 44 43 45 45 46 47 49 51 51 51 52 52 52 52 51 50 51 51 51 50 49 49 48 48 48
32 32 32 33 33 34 34 35 37 37 38 38 40 41 43 43 43 44 44 44 45 46 47 48 49 50 52 52 53 53 52 52 52 52 52 53 52 52 52 51 50 49 49
31 32 32 33 33 34 34 34 35 36 37 38 39 40 42 43 45 45 45 45 46 46 47 49 50 51 52 54 55 55 54 53 53 54 54 54 54 53 53 52 53 53 51
29 30 31 31 32 32 33 34 34 35 36 36 38 39 41 42 43 44 45 45 47 48 48 49 50 52 53 54 55 56 57 57 56 55 56 56 55 55 54 53 53 54 53
30 31 31 31 31 32 32 33 33 34 34 36 37 38 40 42 43 44 45 46 47 47 48 48 49 51 52 53 54 55 57 57 57 56 56 56 57 57 56 56 56 55 54
29 30 31 31 31 32 32 33 33 34 35 36 37 38 40 41 43 45 46 46 47 48 48 48 48 50 51 53 54 55 55 56 57 56 56 57 58 58 58 58 57 57 56
30 30 31 32 32 32 32 33 34 35 36 36 37 39 40 41 43 44 45 46 47 48 49 49 50 50 51 51 52 53 55 56 58 58 59 59 58 58 59 59 59 58 58
30 31 31 31 31 32 32 33 34 34 36 37 38 38 39 41 42 43 45 46 47 48 49 50 50 51 52 52 53 54 55 56 58 60 60 60 60 60 61 62 61 61 61
30 31 31 31 32 32 33 34 35 36 37 38 38 39 41 41 42 43 44 46 47 48 50 51 52 53 54 54 55 55 56 57 58 60 61 61 61 62 62 63 64 63 64
31 31 31 32 33 34 34 35 36 37 37 38 39 40 41 42 43 44 45 47 48 49 51 53 54 55 56 57 57 58 58 58 59 60 61 61 62 63 64 64 64 64 64
32 32 33 34 35 35 36 36 37 38 39 40 41 42 42 43 44 45 46 47 49 50 52 53 55 56 57 58 59 59 60 60 60 62 63 63 63 63 65 66 66 65 64
32 33 34 35 36 36 37 38 39 40 41 42 43 43 44 45 45 46 48 49 51 53 54 55 56 57 58 59 60 61 62 62 62 63 64 64 64 65 64 65 66 68 68
33 34 35 36 37 37 38 39 40 42 43 44 45 45 46 46 47 48 48 50 52 53 55 56 57 58 58 59 60 60 61 62 62 62 64 64 64 65 64 64 65 66 68
35 36 36 37 38 39 40 41 42 43 44 45 46 47 47 47 48 49 50 51 52 53 54 55 57 57 58 58 59 59 60 61 62 61 62 63 63 63 63 62 63 65 67

GEFSMA_500_meanwind_126.txt.gz
Wind_Speed
34 35 36 37 37 38 38 38 38 39 39 40 41 41 42 42 42 42 41 41 41 41 41 41 40 40 39 38 38 37 37 37 36 36 35 35 34 34 33 33 32 32 31
35 36 37 39 39 40 40 40 40 40 40 41 42 42 43 43 44 44 44 44 43 43 43 43 43 42 41 41 40 39 39 39 38 37 36 36 36 36 35 34 33 33 32
35 36 37 38 39 41 42 42 42 42 43 43 43 44 45 45 45 46 46 45 45 45 45 45 45 44 44 44 43 42 41 41 40 39 38 38 38 37 36 36 35 34 33
36 36 38 38 40 41 43 44 44 45 45 46 46 45 45 46 45 46 46 46 46 46 46 47 47 46 46 46 45 44 43 42 41 41 40 40 39 38 37 37 37 36 35
37 38 39 39 40 41 42 44 45 46 46 46 46 45 45 45 46 46 47 47 47 46 46 46 47 48 48 46 45 44 44 43 43 42 41 41 40 39 38 38 38 37 37
38 39 39 39 41 42 43 44 44 44 44 45 44 44 45 45 46 47 47 48 49 49 47 46 46 46 47 46 46 46 45 45 44 44 43 43 43 42 41 41 40 40 39
38 38 39 40 40 41 41 42 42 42 42 43 44 44 45 45 46 47 48 49 49 49 49 47 46 46 47 47 46 46 47 46 45 44 44 44 43 43 43 41 41 41 40
38 38 39 39 39 40 40 40 41 40 41 41 43 44 45 45 46 47 48 48 48 48 49 50 49 47 47 48 48 48 48 48 47 46 45 45 44 44 43 42 41 41 40
37 37 38 38 38 38 39 40 40 40 40 41 41 42 43 44 45 45 47 47 47 47 48 50 51 50 50 50 49 50 50 50 49 48 47 47 46 46 45 45 43 42 42
36 37 37 37 37 38 38 38 39 40 40 40 40 41 40 41 42 43 43 45 46 47 48 48 49 50 51 51 51 51 52 52 51 50 49 48 47 47 48 47 46 45 44
36 36 36 36 37 37 37 37 38 39 39 39 39 39 39 39 40 40 41 42 44 45 47 47 48 48 49 51 51 50 51 53 53 52 52 51 50 50 50 50 50 49 48
36 36 36 36 36 36 36 36 37 37 37 38 38 39 40 40 40 40 41 42 42 43 44 45 46 47 47 49 49 49 48 49 51 52 52 53 53 52 50 51 51 50 50
35 36 36 35 35 35 35 35 36 36 37 38 38 39 39 40 40 41 41 42 42 42 43 44 44 45 45 46 47 47 48 48 49 50 51 52 53 53 53 53 53 53 52
35 35 35 35 35 35 35 35 36 36 36 37 37 38 39 39 39 40 41 42 43 43 44 44 45 46 46 47 47 46 48 49 50 50 51 51 52 53 54 55 55 54 54
34 34 34 35 35 35 35 35 35 35 35 35 36 37 38 39 40 40 41 42 42 42 43 44 45 46 47 48 49 49 49 50 51 52 52 53 53 54 55 55 55 54 55
35 35 35 35 35 35 35 35 35 35 35 35 36 37 38 38 39 39 41 42 42 43 43 44 46 47 47 48 49 50 51 52 52 52 53 54 54 54 55 56 56 56 56
35 35 36 36 35 35 35 35 35 35 35 36 37 37 38 38 39 40 40 41 42 43 43 44 46 47 48 48 49 50 51 53 53 53 52 53 54 55 57 56 56 57 57
34 35 35 35 35 36 36 36 36 36 36 36 37 37 38 39 40 40 40 41 42 43 44 45 46 47 47 48 49 50 51 52 53 53 53 53 53 53 54 56 58 59 60
33 33 34 35 36 36 36 36 36 37 37 37 37 38 38 39 39 40 41 41 41 42 43 44 45 46 46 47 48 49 50 51 51 52 53 54 54 54 54 55 57 59 60
32 33 35 35 36 36 36 36 36 37 37 38 38 38 38 38 38 39 40 41 41 42 43 44 45 46 47 47 47 48 48 49 50 51 52 54 55 56 57 57 58 59 60
34 35 36 36 36 36 37 37 37 38 38 39 39 39 39 39 39 39 39 40 41 42 43 45 46 47 48 48 48 49 49 50 51 51 52 53 55 56 58 59 59 60 61
35 36 36 37 37 37 37 38 38 38 38 38 39 39 40 40 41 41 41 41 42 43 44 45 46 47 48 49 50 50 50 51 52 53 53 55 56 57 58 59 60 61 62
35 36 36 36 37 37 37 37 38 38 38 39 39 39 40 41 41 42 42 43 43 44 44 45 46 48 49 50 51 52 52 53 53 55 55 56 57 57 58 60 61 61 62
35 35 36 37 37 37 37 38 39 40 40 40 40 40 41 41 42 43 43 44 45 46 46 47 48 49 50 51 52 52 53 54 55 56 57 57 58 58 59 60 60 60 61
35 36 37 37 37 38 38 39 40 40 40 41 41 42 42 43 43 44 45 45 46 47 47 48 49 49 50 51 52 53 54 55 55 56 57 58 58 58 59 59 59 59 60
37 38 38 38 39 39 40 40 41 41 41 41 42 43 43 44 44 45 45 46 46 47 48 48 49 50 51 52 53 54 55 56 56 56 57 57 57 57 57 57 58 59 60

GEFSMA_500_meanwind_132.txt.gz
Wind_Speed
31 31 31 31 32 32 33 33 33 34 34 35 35 35 35 35 36 37 38 38 38 38 38 38 39 39 39 39 39 38 38 38 37 37 37 37 36 36 35 35 34 34 33
31 31 31 32 32 32 33 34 34 35 36 36 37 37 37 37 37 38 38 39 40 40 40 39 39 39 40 40 40 40 40 40 39 39 39 38 38 38 37 37 36 35 35
32 32 32 33 33 33 34 35 36 36 37 38 38 39 39 39 40 40 40 40 40 41 41 40 40 39 39 40 41 42 42 41 41 41 40 40 40 40 40 39 38 37 36
32 33 33 34 34 35 35 36 37 37 38 38 38 39 40 40 40 40 40 40 41 40 41 41 42 41 41 41 42 42 43 43 42 42 42 43 43 42 41 40 40 39 38
33 34 34 35 35 35 35 36 36 37 37 38 38 39 40 40 41 41 41 41 41 41 41 42 42 42 42 43 43 42 43 44 44 43 43 44 44 44 43 42 41 40 39
35 35 35 35 35 35 36 36 36 37 37 38 39 39 40 41 42 42 41 41 41 42 42 42 42 42 43 43 44 44 44 44 44 44 45 44 44 45 43 43 43 42 41
35 35 35 35 36 36 35 35 36 36 37 37 38 39 40 40 40 40 40 41 41 42 42 43 43 43 43 44 44 45 46 46 45 45 45 45 45 45 44 44 43 43 43
35 35 35 35 35 35 35 35 36 36 37 37 37 38 38 38 38 39 39 39 40 40 41 42 43 43 43 43 44 44 44 45 46 45 45 44 45 44 45 45 44 44 43
35 35 35 35 35 36 36 37 37 37 37 37 37 37 37 37 37 37 37 37 37 37 39 40 42 42 42 42 43 44 45 45 45 45 44 44 44 45 45 46 46 46 46
35 36 36 36 37 37 37 37 37 37 37 37 37 37 37 37 36 36 37 38 39 39 37 37 39 40 41 42 44 45 45 44 45 46 45 44 44 45 45 46 46 47 47
36 37 37 37 37 37 37 37 37 37 37 37 36 36 36 36 36 36 36 38 39 40 40 39 39 40 41 42 43 44 44 44 44 45 45 45 45 46 46 45 45 47 48
38 38 38 37 37 37 36 36 36 37 37 36 36 36 36 37 37 37 37 37 38 39 40 40 40 40 40 41 42 42 44 45 46 46 46 46 46 47 47 46 47 47 48
38 38 37 37 37 37 37 36 36 36 36 36 36 36 37 37 38 38 38 38 38 39 39 40 41 41 41 41 42 42 43 45 46 48 48 49 49 48 48 48 48 48 49
38 38 38 38 37 37 37 36 36 36 36 37 37 37 37 37 37 37 38 38 39 39 39 40 40 41 42 42 42 42 43 44 45 46 48 49 49 49 50 49 49 49 50
38 38 38 37 37 37 36 36 36 37 37 37 37 37 38 38 38 39 39 40 41 41 41 42 42 43 43 44 43 43 44 45 45 46 47 48 48 49 49 49 48 48 48
39 38 38 37 37 37 37 38 38 38 38 38 38 38 38 39 39 40 40 41 42 42 42 42 42 43 43 43 43 43 43 44 45 45 46 47 47 48 48 48 49 49 49
38 38 37 37 37 38 38 39 39 39 39 39 39 39 39 40 40 41 41 42 42 42 43 42 43 43 43 42 41 41 41 42 42 44 45 47 48 49 49 49 50 50 49
37 37 37 38 38 39 39 39 39 39 39 40 40 41 41 41 42 42 42 42 42 42 43 43 43 43 42 41 41 41 41 41 42 43 44 45 47 49 49 50 49 49 49
36 36 37 37 38 38 38 39 39 39 39 40 40 41 42 42 42 42 42 42 42 43 43 42 42 42 41 41 41 41 41 41 42 43 44 46 47 49 49 50 50 50 50
35 36 37 37 37 38 39 39 40 40 40 41 41 41 42 42 42 42 42 42 43 43 43 42 42 42 42 42 42 42 42 42 43 43 44 46 47 48 49 50 51 52 52
36 36 37 37 38 38 39 40 40 41 41 41 41 41 42 42 42 42 42 42 42 42 42 42 42 42 42 42 42 43 44 45 46 46 46 46 47 49 50 51 52 53 54
37 38 38 38 38 39 39 40 41 41 42 42 42 42 43 43 43 43 43 43 43 42 42 42 42 43 43 43 44 45 46 46 47 47 48 49 49 50 51 52 53 54 55
38 38 38 38 39 39 40 40 41 42 42 42 42 42 42 43 43 44 44 44 43 43 43 43 43 43 44 45 46 47 48 48 49 49 50 50 52 52 52 53 54 56 57
38 38 39 39 39 40 41 41 42 42 42 42 43 43 43 43 43 44 44 43 43 43 44 44 44 44 45 46 47 48 49 49 50 51 51 51 52 53 54 55 55 56 56
39 39 39 40 40 41 42 42 42 42 43 43 43 43 43 43 44 44 44 43 43 44 44 44 44 45 46 47 48 49 49 49 50 51 52 52 52 52 53 54 54 54 54
40 40 40 41 41 42 42 43 43 43 43 43 43 43 44 44 44 44 44 44 43 43 44 44 45 46 46 47 48 49 49 50 50 51 51 52 52 52 51 51 52 53 53

GEFSMA_500_meanwind_138.txt.gz
Wind_Speed
29 29 29 29 29 29 30 30 31 31 31 32 33 33 34 34 34 34 34 34 33 34 35 35 36 36 37 38 38 37 38 38 38 38 38 38 38 38 37 37 37 37 36
30 30 30 30 30 30 31 31 32 32 32 33 33 34 33 34 34 34 34 35 35 35 35 36 36 37 38 38 38 38 38 39 39 39 39 40 40 40 40 40 39 38 38
31 31 31 31 31 31 32 32 32 32 32 32 32 33 33 33 33 34 34 34 35 35 36 37 37 38 39 39 39 39 38 38 39 40 41 41 41 41 41 42 41 41 40
32 32 32 32 32 32 32 32 31 31 31 32 32 32 33 34 33 33 34 34 35 36 37 37 37 38 39 40 40 41 41 39 38 39 40 41 42 42 42 43 42 42 42
32 32 31 32 32 32 32 32 31 31 32 32 33 33 33 33 33 34 35 36 36 36 37 37 37 38 38 40 41 41 41 41 40 39 39 39 40 42 43 43 42 42 42
32 32 32 31 32 32 33 32 32 33 33 33 33 33 33 34 34 35 36 37 37 37 38 38 38 38 38 38 39 39 40 40 40 40 40 40 39 40 42 42 41 41 41
33 33 32 32 32 32 33 33 34 34 34 34 34 35 35 35 36 36 37 37 37 38 38 39 39 39 39 39 39 39 41 41 41 41 41 41 40 40 41 42 41 41 41
33 33 33 34 34 34 34 34 35 35 35 35 36 36 36 35 36 37 37 37 37 37 37 37 38 39 39 40 40 41 41 42 43 43 43 42 43 42 42 42 41 42 42
34 34 34 35 35 35 36 36 36 37 37 37 37 37 36 36 36 36 37 37 37 37 36 37 37 39 39 40 40 39 40 42 44 45 46 45 44 44 44 42 42 42 42
36 36 36 37 36 36 37 37 38 38 38 38 38 38 37 37 37 37 37 37 37 37 37 37 38 39 39 39 39 40 41 41 42 43 44 45 45 44 44 44 43 42 42
37 37 38 38 38 39 39 39 39 39 39 39 38 38 38 37 37 37 36 36 37 37 37 38 39 39 39 40 40 41 41 41 42 43 44 45 46 46 46 47 47 46 45
37 38 38 39 39 40 40 40 40 40 40 39 38 38 37 37 37 37 36 36 36 37 37 38 39 39 39 40 41 42 42 43 43 43 45 45 46 48 48 48 48 48 47
38 39 39 40 40 40 41 41 41 40 40 39 38 38 38 38 38 38 38 38 38 38 39 39 39 40 40 41 41 42 43 43 44 45 45 45 46 47 48 48 48 48 47
39 40 40 40 41 41 41 41 41 41 40 39 39 39 39 39 39 39 39 39 40 40 40 40 41 41 42 42 42 42 43 43 44 45 46 46 46 46 46 48 49 49 49
40 40 41 41 41 41 41 42 41 41 40 40 40 41 41 40 40 40 40 41 41 41 41 41 42 42 42 43 43 43 44 44 45 45 46 47 47 47 46 46 48 48 49
41 41 41 40 41 41 41 41 41 41 41 41 42 42 41 41 41 42 42 43 43 43 43 42 43 43 44 44 44 44 44 45 45 45 45 46 47 47 47 47 47 47 48
40 40 40 40 40 41 41 40 41 41 41 42 42 42 42 42 43 43 44 44 44 44 44 43 43 44 44 45 45 45 46 45 46 46 46 46 46 47 47 47 48 48 48
39 40 40 40 41 40 40 40 40 41 41 41 42 42 42 43 44 44 44 44 45 45 45 44 45 45 46 46 46 46 46 45 45 44 45 45 45 45 45 46 47 47 47
39 40 41 41 41 41 41 41 42 42 42 42 42 43 43 44 44 45 45 45 46 46 46 46 45 46 46 46 46 46 45 44 43 43 43 44 44 44 45 45 46 46 47
41 41 42 41 41 42 42 43 43 42 43 43 43 43 44 44 45 45 45 45 46 46 46 46 46 46 46 46 45 45 44 43 43 43 43 43 44 45 46 46 46 47 48
42 42 41 41 42 42 42 43 42 43 43 44 43 44 44 44 45 45 45 46 46 46 46 46 47 46 46 45 45 44 44 44 44 44 44 44 45 46 47 48 48 49 49
42 42 42 42 42 42 42 43 43 43 44 44 44 44 45 45 45 45 46 46 47 47 47 47 47 47 46 46 46 45 45 45 44 44 44 45 46 47 48 48 49 50 51
42 42 42 43 43 43 44 44 44 44 45 45 45 46 46 46 46 46 47 47 47 47 47 47 47 47 46 46 46 46 46 45 45 45 45 45 46 47 48 49 50 50 52
42 42 42 42 43 43 44 44 45 45 45 46 46 46 46 46 46 47 47 47 47 47 47 47 47 47 47 47 46 46 46 46 46 46 46 46 47 48 49 50 50 51 51
41 41 42 42 43 43 44 45 46 46 46 46 46 46 45 46 46 46 47 47 47 47 47 47 47 47 47 47 47 47 46 46 46 47 47 47 47 47 48 50 51 51 52
42 42 43 43 43 44 45 46 46 46 46 46 46 45 46 46 46 47 47 47 47 47 46 46 46 46 46 46 46 45 46 46 46 46 47 47 47 48 47 49 50 51 51

GEFSMA_500_meanwind_144.txt.gz
Wind_Speed
26 26 26 27 27 28 28 28 28 29 29 29 29 28 28 28 28 28 29 29 29 29 29 30 30 31 31 32 32 33 34 35 35 35 35 35 35 36 36 37 37 36 36
27 28 28 28 28 28 29 29 30 29 29 29 29 29 29 29 29 30 30 29 29 30 30 30 31 31 32 33 34 34 35 36 36 36 36 36 36 36 36 37 37 37 37
29 29 29 29 29 29 30 30 30 30 30 30 30 31 31 31 30 31 31 31 31 31 31 32 33 33 34 35 35 36 36 36 37 37 37 38 38 37 37 37 37 37 37
30 30 30 30 31 31 30 30 30 30 31 31 32 32 32 33 33 32 32 32 32 33 33 34 35 34 35 36 36 36 37 37 37 37 37 38 38 38 38 38 38 38 38
30 30 30 30 31 31 30 31 31 31 32 32 33 33 33 33 33 33 34 34 34 34 35 35 35 35 35 35 36 36 36 37 37 36 37 38 39 40 40 39 39 40 39
31 30 30 31 31 31 32 32 32 32 33 33 34 34 34 34 34 35 35 35 35 35 36 36 36 36 36 36 36 36 36 37 38 38 39 39 40 41 41 40 40 40 40
32 31 31 32 32 32 32 33 33 33 34 34 35 35 35 35 35 35 36 36 36 36 37 37 37 37 37 37 37 37 37 38 38 39 40 40 41 40 41 41 42 41 42
33 33 33 33 33 33 34 34 34 35 35 36 36 36 36 36 36 36 36 37 37 37 37 37 37 37 37 37 37 38 38 39 39 40 40 41 41 41 41 41 42 43 43
34 35 35 35 35 36 35 35 36 36 36 37 38 38 39 39 38 38 38 38 38 38 37 37 37 37 37 37 37 38 39 39 40 41 41 41 41 42 42 42 42 43 43
36 36 36 36 35 36 37 37 38 38 39 40 40 40 40 40 40 40 40 39 38 38 38 38 37 37 37 38 38 39 39 40 40 40 40 41 41 41 41 42 42 43 43
36 36 37 37 37 38 39 39 40 40 41 42 42 42 42 42 42 42 40 40 39 39 39 39 39 39 39 39 39 40 40 40 41 41 40 40 41 41 41 42 43 43 44
36 37 39 39 39 40 41 41 42 42 43 43 43 43 44 43 43 43 41 40 40 40 40 40 40 40 40 40 41 41 41 41 41 41 41 41 42 42 42 42 43 43 44
38 39 40 41 42 42 42 41 42 43 43 43 44 45 45 45 44 43 42 42 42 41 41 42 42 42 42 42 42 42 42 42 42 42 42 43 43 44 43 43 44 44 43
41 42 42 42 43 43 42 42 42 43 44 45 46 45 45 44 44 43 42 43 43 43 43 43 43 43 44 44 44 43 43 43 43 43 43 44 44 45 44 44 45 45 44
42 43 43 43 42 42 43 44 44 44 44 45 44 44 44 44 44 44 44 44 44 44 44 44 45 45 46 46 45 45 44 44 44 44 44 45 45 46 46 45 45 45 45
42 42 42 43 43 43 44 44 43 43 43 43 43 43 44 44 44 45 45 46 46 46 46 46 46 46 47 47 47 46 46 46 46 46 46 46 46 47 48 48 47 47 46
42 42 42 43 43 44 43 43 44 44 44 44 44 44 44 44 44 45 46 47 47 47 48 47 47 47 47 47 47 47 47 47 47 47 47 47 47 47 48 48 48 48 47
42 43 43 44 44 44 44 45 45 46 46 46 45 45 45 46 46 47 47 48 48 48 48 48 48 47 47 47 47 48 48 48 48 48 47 47 47 47 47 47 47 47 47
43 44 44 45 45 45 46 47 47 47 47 47 47 47 47 47 47 48 48 48 49 49 48 48 48 48 48 48 48 48 48 48 48 47 47 46 47 47 47 47 47 47 47
44 44 44 44 45 46 47 47 47 47 48 48 48 48 48 48 48 48 48 48 48 48 48 48 48 48 48 49 48 48 48 48 47 47 47 47 48 48 48 48 48 48 48
45 45 45 46 47 47 48 48 48 49 49 49 49 49 49 49 48 48 48 48 48 48 48 48 48 49 49 49 49 49 48 48 48 48 47 48 48 48 48 48 49 48 48
46 46 46 46 47 48 48 48 48 48 48 49 49 49 49 48 48 48 48 48 48 48 49 49 49 49 49 49 49 49 49 49 49 48 48 48 49 48 49 49 49 48 48
47 47 46 46 46 47 47 47 47 47 47 48 49 49 49 49 49 49 49 49 49 49 49 49 49 49 49 49 49 49 49 49 49 48 48 48 49 49 49 49 49 49 48
46 46 45 46 46 46 47 47 46 46 47 48 49 49 49 50 50 50 49 49 49 49 49 50 50 50 49 49 50 50 49 49 49 49 49 48 48 48 49 49 49 49 48
45 45 45 46 46 46 47 47 47 47 48 49 50 50 50 51 51 51 50 49 49 49 50 51 50 50 50 50 50 50 49 49 49 49 49 48 48 48 48 48 48 47 47
45 45 46 46 47 47 48 48 48 48 49 49 49 50 50 50 50 50 49 49 49 49 50 50 50 49 49 49 49 49 48 48 47 47 47 47 47 46 45 46 47 47 46

GEFSMA_500_meanwind_150.txt.gz
Wind_Speed
26 26 26 26 26 26 26 26 25 25 25 26 26 26 26 27 27 28 27 28 28 28 28 28 28 28 29 29 29 29 29 30 30 31 32 32 33 33 33 32 32 32 32
27 28 27 26 26 26 26 26 26 26 26 26 27 27 27 28 28 29 29 29 29 29 30 30 30 30 30 30 31 31 32 32 32 33 33 34 34 34 35 35 34 33 33
29 28 28 27 27 27 27 27 28 28 27 28 28 28 28 29 30 30 30 30 30 30 30 31 31 31 31 32 32 33 33 34 34 34 34 35 35 34 34 35 35 35 35
30 29 29 29 29 28 28 29 29 29 29 29 29 29 30 30 30 30 30 31 31 31 31 32 32 32 33 34 34 35 35 35 35 36 36 36 36 35 35 35 36 36 37
30 30 30 30 30 30 30 30 30 30 30 31 31 31 31 31 31 32 32 33 33 33 33 33 34 35 35 35 35 36 36 36 36 36 37 37 37 37 37 37 37 38 38
31 30 31 31 31 32 32 32 32 32 32 32 32 32 32 33 33 34 34 35 35 35 35 35 35 35 36 36 36 37 37 36 36 36 37 37 38 38 38 38 38 38 38
32 32 32 32 33 33 33 33 33 34 33 32 33 33 34 35 35 36 36 37 37 37 37 38 37 37 38 38 38 38 38 37 37 36 36 37 38 38 39 38 39 39 40
34 33 34 34 34 34 34 34 35 34 35 34 35 36 36 36 37 37 38 38 38 39 39 40 39 39 39 38 38 38 38 38 37 37 37 38 38 39 39 39 39 39 40
36 36 35 35 34 34 35 35 36 36 37 37 37 37 38 38 38 39 39 40 40 40 41 42 41 40 40 40 40 39 39 38 38 38 38 39 40 40 40 40 41 40 40
36 36 35 35 36 36 37 37 37 38 39 39 39 40 40 40 40 40 41 41 41 41 42 42 42 42 42 42 42 41 40 40 40 40 40 41 41 41 42 42 42 41 41
36 36 37 37 37 38 38 39 39 40 40 41 41 41 42 42 42 42 42 42 43 43 43 43 43 43 43 43 42 42 42 42 42 42 42 42 42 42 42 42 42 42 42
37 37 38 38 39 39 40 41 41 42 42 43 44 44 44 44 44 44 44 44 45 44 43 43 43 44 43 43 43 43 44 44 44 44 44 43 43 43 42 42 42 42 42
37 38 39 40 41 41 42 43 43 44 45 45 45 45 45 46 46 46 45 45 45 43 43 43 43 44 44 44 44 44 45 45 45 45 44 44 44 44 44 43 44 44 44
38 39 41 42 43 43 43 44 44 45 45 46 46 46 46 46 46 45 45 45 45 44 44 44 44 45 46 46 46 46 46 46 46 46 46 45 45 45 45 45 45 45 45
40 41 42 42 43 44 44 45 45 45 45 46 47 46 46 46 46 46 46 46 46 46 45 45 46 46 47 48 48 48 48 47 48 47 47 47 47 46 46 46 45 45 45
41 42 43 43 44 45 45 46 46 47 47 47 48 49 48 47 47 48 48 48 48 47 47 47 47 48 49 49 49 48 48 48 48 48 48 47 47 47 46 46 45 45 45
41 42 43 44 44 44 45 46 47 47 48 49 49 50 49 49 49 48 49 48 48 48 49 49 49 49 49 50 49 49 49 48 48 48 48 48 47 47 47 46 46 46 46
42 42 43 43 43 44 45 46 46 47 47 48 49 49 49 49 49 49 49 49 49 49 49 49 50 50 50 49 49 48 48 48 48 48 48 48 47 48 48 48 47 47 47
43 43 42 43 44 44 45 46 46 46 46 46 47 48 48 49 49 48 48 48 49 49 50 50 50 50 50 50 49 49 48 49 49 49 49 49 49 49 49 49 49 48 48
43 44 43 44 45 45 45 45 46 46 46 47 47 47 48 48 48 48 48 48 49 50 50 50 50 50 50 50 50 49 49 49 49 50 50 50 50 50 50 50 49 49 49
44 45 45 45 46 46 46 46 46 46 47 47 46 47 47 47 47 48 48 49 50 50 50 50 50 50 50 50 50 49 49 49 48 49 49 49 50 50 50 50 50 49 49
44 45 46 46 46 47 46 46 46 46 47 47 48 48 47 48 49 49 50 50 51 51 50 50 50 49 49 50 50 49 49 49 49 49 49 49 50 49 50 49 49 49 49
45 46 46 46 46 46 47 47 47 48 48 49 49 49 50 50 51 51 51 51 51 51 51 51 50 50 49 49 49 49 49 49 49 49 49 49 49 49 49 49 50 49 49
45 46 46 46 46 46 47 47 47 48 49 49 50 50 51 51 51 52 52 51 51 51 51 51 51 50 49 49 49 49 49 49 48 48 48 48 48 49 49 49 49 49 49
44 45 45 46 46 46 47 47 48 48 49 49 50 50 51 51 51 51 51 51 51 50 50 50 50 49 48 48 48 49 48 48 48 47 48 48 48 48 48 48 49 48 48
44 45 45 46 46 47 47 48 49 49 49 50 50 50 50 50 50 51 51 50 49 49 49 49 49 49 49 48 48 48 48 48 47 47 46 46 46 47 46 47 48 48 47

GEFSMA_500_meanwind_156.txt.gz
Wind_Speed
26 26 25 25 26 26 26 25 25 25 25 24 25 25 25 25 24 25 25 26 27 27 27 27 27 28 28 28 29 29 30 30 30 30 30 30 30 30 30 30 30 29 29
28 28 27 27 27 27 27 27 27 26 26 26 26 26 26 26 26 27 27 28 28 28 29 29 29 30 30 31 31 31 31 31 31 31 31 31 32 32 32 32 32 31 31
29 30 30 30 30 29 29 29 28 28 27 27 27 27 27 28 28 29 29 29 29 29 30 30 31 31 32 32 32 32 32 33 33 33 33 33 33 33 33 33 33 33 33
31 30 30 31 31 31 30 30 29 29 29 28 28 29 29 30 30 30 30 31 31 31 31 32 32 32 33 33 33 33 33 34 34 34 35 35 35 35 35 34 34 34 34
33 33 32 32 32 31 31 30 30 30 30 30 30 31 31 31 31 32 32 32 32 32 33 33 34 34 35 35 35 35 35 35 36 36 36 36 36 36 36 36 36 36 36
34 33 33 33 33 32 32 32 31 32 32 31 32 32 32 33 34 34 33 34 34 34 35 35 35 36 36 36 36 37 37 37 38 38 38 38 37 37 37 37 37 37 37
34 34 33 33 33 33 33 33 33 33 33 33 33 34 35 35 35 35 35 35 35 36 37 37 37 37 37 37 38 38 39 39 40 40 39 39 38 38 37 37 38 38 37
34 34 34 34 34 34 34 34 34 34 35 35 36 37 37 36 37 37 37 37 38 38 39 39 40 39 39 39 40 40 41 41 41 40 40 40 40 39 39 39 39 39 38
36 35 35 35 36 36 36 36 35 35 36 37 38 38 38 38 38 38 39 40 40 40 41 41 41 41 42 42 42 42 42 42 42 41 41 41 41 41 41 41 41 41 41
37 37 37 37 37 38 38 37 37 37 38 38 39 39 40 40 41 41 41 42 42 42 43 43 44 44 44 44 44 44 43 43 42 42 42 42 42 42 42 43 43 43 43
37 37 38 38 38 38 38 38 38 38 38 38 38 39 40 41 42 42 43 43 44 45 45 45 46 46 46 45 45 45 44 43 43 43 43 43 43 44 44 44 45 45 44
37 37 37 38 37 38 38 37 38 38 39 40 40 41 42 43 44 44 45 45 46 46 47 47 47 47 47 46 45 45 44 44 45 44 45 45 46 46 46 46 46 46 45
37 37 37 37 36 37 39 39 39 40 41 41 42 43 44 45 46 46 47 47 47 47 47 48 48 48 47 47 47 46 46 46 46 46 47 47 48 48 48 48 48 47 46
37 37 37 37 38 38 39 40 41 42 43 43 44 45 45 46 47 47 47 48 48 48 48 49 49 48 48 49 49 49 49 49 49 48 49 49 49 49 49 49 49 48 47
37 37 37 38 39 39 40 42 43 43 44 45 45 45 46 46 47 47 48 49 49 49 49 49 49 50 50 50 51 51 51 50 50 50 50 50 50 50 49 49 49 48 48
39 39 39 40 40 41 42 42 43 44 45 45 46 46 47 47 47 48 49 49 49 50 49 49 49 50 51 51 51 51 50 51 51 51 51 51 51 50 50 50 50 50 49
39 40 41 41 42 43 43 44 44 44 45 45 46 47 47 48 48 49 49 49 50 50 49 49 50 50 50 50 50 50 50 51 51 51 51 51 51 51 51 50 50 50 50
40 41 42 42 43 43 44 44 45 45 45 46 47 48 48 49 49 49 49 50 50 50 50 49 49 50 50 50 50 50 50 51 52 52 52 52 52 52 51 51 50 50 49
41 42 43 43 44 44 45 45 45 46 46 47 47 48 49 49 49 49 49 49 50 50 50 50 50 51 51 50 51 51 52 53 53 52 52 52 51 51 51 51 50 50 50
42 43 44 44 45 45 45 47 47 46 46 47 48 48 49 49 49 49 49 49 49 50 51 51 51 51 51 52 53 53 53 53 53 52 52 52 52 51 51 50 50 50 50
43 44 44 45 45 45 46 47 47 47 47 47 48 48 49 49 49 49 49 50 50 51 51 51 51 51 52 53 54 54 53 53 53 53 52 52 52 52 51 51 50 50 50
43 43 44 45 45 46 46 47 47 47 47 47 48 49 49 49 49 49 50 50 51 51 51 51 51 52 52 53 53 53 53 53 52 52 51 51 51 51 51 50 50 50 49
43 43 44 45 45 46 46 46 47 47 47 47 48 49 49 49 49 50 50 51 52 52 52 52 52 52 52 53 53 52 52 53 52 51 51 50 50 49 49 49 49 49 48
42 43 44 44 45 45 45 45 46 46 47 47 48 48 48 49 49 50 50 51 51 52 52 53 53 52 52 52 52 52 52 52 51 50 50 49 48 48 48 48 48 48 47
42 43 43 44 44 44 45 45 46 47 47 48 48 49 49 49 50 50 51 51 52 52 52 52 52 52 51 52 52 52 51 51 49 48 48 48 48 47 47 46 47 47 46
42 43 43 44 45 45 46 46 47 47 47 48 47 48 49 49 50 50 51 51 51 51 51 51 51 50 50 51 51 51 51 50 50 48 47 47 47 46 44 44 45 45 45

GEFSMA_500_meanwind_162.txt.gz
Wind_Speed
28 28 27 27 26 26 26 25 25 25 25 25 25 24 24 24 24 24 24 24 24 24 25 25 25 25 25 26 27 28 28 29 30 30 30 30 30 30 30 30 30 30 30
29 28 28 27 27 27 28 28 27 26 26 26 26 26 26 25 25 25 25 25 25 25 26 26 27 27 27 28 29 29 30 31 31 32 31 31 31 31 31 31 31 31 32
30 30 29 29 29 29 28 28 29 29 28 27 27 27 27 27 27 27 27 27 27 27 28 28 29 29 29 30 31 31 32 32 32 32 32 32 32 32 32 32 32 33 33
31 31 32 31 31 30 30 30 30 31 30 30 29 28 28 29 29 29 29 29 29 30 30 31 31 31 31 31 32 32 33 33 33 33 34 34 34 34 34 34 35 35 35
32 32 33 33 33 32 32 33 32 32 32 32 32 31 30 30 30 31 32 32 32 32 32 33 33 33 33 33 33 34 34 34 35 35 35 36 36 37 37 37 37 37 37
33 33 34 34 34 34 34 34 33 33 34 33 33 33 32 31 32 32 33 33 33 34 34 34 34 35 35 35 35 36 36 36 36 37 37 38 39 39 40 40 40 40 39
33 34 35 35 36 36 35 35 35 35 35 35 34 34 34 33 34 34 34 34 35 35 36 36 37 37 37 37 38 38 38 38 39 39 39 40 40 41 41 42 42 41 40
35 35 36 36 37 37 36 36 36 36 36 36 35 35 36 36 36 36 36 36 37 37 38 38 38 39 39 39 40 40 40 41 41 40 41 41 41 42 42 42 42 42 42
36 36 37 38 38 38 37 37 37 36 36 37 37 37 38 37 38 37 38 39 39 40 40 41 41 41 41 41 42 42 42 42 43 42 42 43 43 43 43 43 42 42 42
37 37 38 38 38 38 38 38 38 38 38 38 38 39 39 40 40 40 40 40 40 41 41 42 43 43 43 43 44 44 44 44 44 44 44 44 44 44 44 44 44 43 44
37 37 37 38 39 38 39 39 39 39 40 40 40 41 41 42 42 42 41 41 41 42 43 44 44 45 45 45 45 45 45 45 45 45 45 45 46 46 46 45 45 45 45
38 38 38 39 39 39 39 40 40 41 41 41 42 42 43 43 43 43 43 43 43 44 45 46 46 46 46 45 45 46 46 46 46 46 46 46 46 46 47 47 47 47 47
37 37 38 39 39 39 40 41 41 42 42 42 42 42 43 44 44 44 44 45 45 45 46 47 47 47 47 46 46 46 46 47 47 46 47 47 47 47 48 48 48 49 49
36 37 38 39 39 40 42 42 42 43 43 42 42 43 43 43 44 45 45 46 46 46 46 47 47 47 47 47 47 47 48 48 48 48 48 48 48 49 50 50 50 50 50
36 36 37 38 40 41 42 42 42 43 42 42 43 43 44 45 45 45 46 47 47 46 46 47 47 48 48 48 48 49 49 49 49 49 50 50 50 50 51 51 51 51 51
38 38 38 39 40 41 41 42 42 43 43 43 44 44 45 46 46 47 47 47 48 48 47 47 48 48 48 49 49 50 50 50 50 50 50 50 50 50 51 51 51 51 52
38 39 39 40 40 41 42 43 43 44 44 45 46 46 47 48 48 49 49 49 49 49 49 48 49 49 50 50 50 51 51 50 50 50 50 50 50 51 51 51 51 51 51
39 39 40 40 41 41 42 42 44 45 46 47 47 48 49 49 50 51 51 51 51 51 50 50 50 50 51 51 51 51 51 51 50 51 51 51 52 52 51 51 51 52 51
39 40 41 41 41 41 42 44 45 46 47 48 49 49 50 50 51 52 52 52 52 52 52 52 51 51 52 52 52 52 51 51 52 52 52 52 52 52 52 52 52 52 52
40 41 41 41 42 43 43 44 45 46 47 48 49 49 50 50 51 52 52 52 52 53 53 53 53 52 53 52 52 51 52 52 53 53 53 53 52 53 53 53 53 53 53
40 41 42 42 43 43 44 44 45 46 46 47 48 48 49 50 51 51 52 52 53 53 53 53 53 53 53 52 52 53 53 53 53 54 53 53 53 53 53 53 53 53 54
40 41 42 42 43 44 44 45 45 46 47 47 47 48 49 50 50 51 52 52 52 53 53 53 53 53 53 54 54 54 54 54 55 55 54 54 54 53 53 53 53 53 53
41 42 42 42 43 44 45 45 46 46 47 48 48 49 49 50 51 52 51 51 52 52 53 53 53 53 53 53 54 54 55 55 54 54 54 53 53 53 53 52 52 52 51
41 41 42 43 43 44 45 46 46 47 48 49 49 50 50 50 50 50 50 51 52 53 53 53 53 53 53 53 54 54 54 54 53 54 54 53 52 52 51 51 51 51 51
40 41 42 43 44 44 45 45 46 47 48 50 50 51 51 50 50 51 51 51 51 52 52 52 52 52 53 53 53 53 53 53 52 52 52 52 52 51 50 49 49 49 48
40 41 41 42 44 45 45 46 47 47 48 49 50 50 50 50 51 52 52 51 50 50 50 50 51 52 52 53 53 53 53 53 52 51 51 52 51 50 49 47 47 47 47

GEFSMA_500_meanwind_168.txt.gz
Wind_Speed
28 28 27 27 26 27 27 27 26 25 25 24 23 23 23 23 24 24 24 24 24 24 25 24 24 25 25 25 25 26 26 26 27 27 27 28 29 29 30 30 30 30 30
28 28 27 27 27 27 26 27 27 27 26 26 26 25 25 25 26 26 26 26 26 26 26 26 26 27 27 27 27 28 28 28 28 29 29 30 30 31 31 31 31 32 31
29 29 28 28 28 28 28 28 28 28 27 27 27 27 27 27 27 27 28 28 28 27 27 27 28 28 29 29 29 30 30 30 31 31 32 32 33 33 33 33 33 33 33
30 30 29 29 29 28 29 29 29 29 28 29 29 29 29 29 29 29 29 29 29 29 29 29 29 30 31 31 32 32 33 33 33 34 34 34 35 35 35 35 35 35 35
31 31 30 29 30 30 30 30 30 30 30 31 31 31 31 31 30 30 31 31 31 32 32 32 32 33 34 34 34 35 35 35 36 36 36 36 37 37 37 37 37 37 37
31 31 31 30 30 31 31 31 31 32 32 32 33 33 33 34 33 33 33 33 34 33 34 35 35 36 36 36 36 37 37 38 38 38 38 38 38 38 38 38 38 39 38
33 32 32 32 32 32 32 33 33 33 33 34 35 35 35 35 36 36 35 35 35 35 36 36 37 37 38 38 39 39 39 40 40 40 40 40 40 40 40 40 40 39 40
34 35 34 33 33 33 34 34 34 34 35 35 35 36 36 37 37 38 37 37 37 37 38 38 38 39 40 40 40 41 41 41 42 42 41 41 41 41 41 41 41 41 41
35 35 34 34 35 35 35 35 36 36 37 37 37 37 37 37 37 38 39 39 38 39 40 40 41 41 42 43 43 43 43 43 43 43 43 43 43 43 43 42 43 43 42
36 36 35 35 35 36 36 36 37 37 38 38 39 39 38 38 39 39 40 41 40 41 41 41 42 43 43 44 44 44 44 44 44 44 45 45 45 44 44 44 44 44 44
36 37 36 36 37 38 38 38 38 39 39 40 40 39 40 40 41 41 41 42 42 42 42 42 42 44 45 45 45 45 45 45 46 46 46 46 46 46 45 45 45 45 45
38 38 38 37 38 39 39 39 39 39 40 40 41 41 41 41 41 42 43 43 43 43 43 44 44 45 46 46 46 47 47 47 47 47 47 47 47 47 46 46 46 46 46
39 39 39 39 39 39 39 39 40 40 40 41 42 42 43 43 43 43 44 44 44 44 44 45 46 46 47 47 48 48 48 48 49 48 48 48 48 48 47 47 47 47 47
38 39 40 40 39 38 38 38 40 41 42 42 43 43 44 44 45 45 45 45 45 46 46 47 47 48 48 49 49 49 49 50 50 50 49 49 49 49 49 48 48 48 48
38 39 40 39 40 40 40 40 41 42 43 43 44 44 45 46 47 47 47 47 48 48 48 49 49 50 50 50 50 50 50 50 50 50 50 50 51 51 51 51 51 51 51
37 38 39 39 40 41 42 42 42 43 43 44 45 46 46 48 49 49 49 49 50 51 50 50 51 52 52 52 52 52 51 51 51 52 52 53 53 53 53 53 53 53 53
36 38 38 39 40 41 43 42 43 44 44 45 46 46 47 48 49 50 50 50 51 52 52 51 52 52 53 54 54 54 54 53 53 54 54 54 54 54 54 54 54 54 53
37 38 38 39 40 41 43 43 43 44 44 45 46 47 48 48 49 50 50 51 52 52 52 52 53 53 54 54 55 55 55 55 55 55 56 55 55 55 55 55 55 54 53
39 39 40 40 41 42 43 44 44 44 45 45 46 47 48 49 49 50 50 51 52 52 53 53 53 54 55 55 56 56 56 56 56 56 57 57 56 56 55 55 54 54 54
39 40 40 41 42 43 43 43 44 45 45 46 47 48 49 49 49 49 50 51 51 53 53 54 54 54 55 55 56 56 56 56 56 56 56 56 56 56 55 55 55 56 56
40 40 41 41 42 43 43 44 44 45 46 47 47 48 48 49 50 50 51 51 52 53 54 55 55 55 55 56 56 56 55 55 55 55 55 55 55 55 55 55 56 57 56
41 41 42 42 42 43 44 46 46 46 47 47 47 48 49 50 51 51 52 53 53 54 55 55 56 55 55 55 55 55 55 54 54 54 54 54 55 55 55 55 55 56 55
41 43 43 43 44 45 45 46 47 47 47 48 48 49 50 50 51 52 53 53 54 55 55 56 55 55 55 55 54 53 53 53 52 53 53 52 53 53 54 54 53 53 53
41 42 43 44 44 45 45 45 46 47 47 48 49 50 50 51 52 52 53 54 54 54 55 56 55 55 55 54 53 53 53 53 53 53 54 52 52 52 52 52 52 52 52
41 42 42 43 43 44 44 45 46 47 48 48 49 50 51 51 52 53 54 54 54 54 55 54 54 54 54 53 53 53 53 54 53 52 53 53 52 52 51 50 51 51 51
41 42 42 42 43 44 44 45 45 47 48 48 49 50 51 51 52 52 53 53 53 53 53 53 52 52 52 52 52 53 53 53 53 52 52 52 52 52 51 50 50 50 50

GEFSMA_500_meanwind_174.txt.gz
Wind_Speed
30 30 29 28 27 26 25 25 24 24 24 23 23 23 23 23 23 22 22 23 23 23 23 23 23 24 24 24 24 24 25 25 25 25 26 26 26 26 26 27 27 27 28
31 30 30 30 29 28 27 27 26 25 25 25 25 25 25 25 25 24 24 24 24 24 24 25 25 25 26 26 26 26 27 27 27 27 28 28 28 29 29 29 29 29 29
32 32 31 30 29 29 29 29 28 27 27 26 27 27 27 26 27 27 26 26 26 27 27 27 27 27 28 28 28 28 29 29 30 30 31 31 31 31 32 32 32 32 32
33 33 32 31 30 30 30 30 30 29 28 28 28 28 28 28 28 28 28 28 28 29 29 29 30 30 30 30 30 31 31 32 32 33 34 34 34 34 34 33 34 34 34
32 33 33 31 31 31 31 31 31 30 30 29 29 29 30 30 30 30 30 30 30 31 31 31 32 32 32 32 33 33 34 34 35 35 36 36 36 36 36 35 36 36 36
33 33 33 32 32 32 32 32 32 31 30 30 31 31 31 32 32 32 32 33 33 32 32 33 34 34 34 35 35 35 36 36 37 37 37 37 37 38 38 38 39 39 39
35 35 35 34 33 32 32 33 33 32 32 31 32 32 33 34 34 34 35 35 34 34 34 35 36 36 37 37 37 37 38 39 39 39 39 39 39 40 41 41 41 41 41
35 35 35 34 34 34 34 34 34 33 34 34 34 34 34 35 36 36 37 37 37 37 37 38 38 39 39 39 39 39 40 40 40 41 41 41 41 42 42 43 43 43 42
35 35 35 35 35 36 36 36 36 36 36 36 37 37 38 37 37 37 37 38 39 39 40 40 40 41 41 41 41 41 41 42 42 43 43 43 43 44 44 44 44 45 44
36 35 36 36 36 37 37 37 37 38 38 38 39 39 39 39 38 38 38 39 40 40 41 42 42 42 42 43 43 43 43 44 44 45 45 45 46 46 46 46 46 46 46
37 37 37 37 37 38 38 39 39 40 40 40 40 41 41 41 40 40 40 41 41 42 43 43 44 44 44 44 44 44 45 45 46 46 47 47 47 47 47 47 47 48 48
37 38 38 38 39 39 40 40 40 40 41 41 42 42 42 42 42 42 42 42 42 43 44 44 45 45 45 45 45 45 46 47 48 48 49 49 49 48 48 49 49 49 49
37 38 38 39 40 41 42 42 42 41 41 42 43 43 43 43 43 44 44 44 44 44 45 45 45 45 46 46 47 47 48 49 50 50 50 50 50 49 49 49 50 50 50
38 38 39 40 41 42 42 43 43 43 43 44 44 44 44 45 45 46 46 46 46 46 47 47 48 48 47 48 49 50 50 51 51 52 51 51 51 50 50 51 51 51 51
38 39 40 40 41 42 42 44 45 45 45 45 45 45 46 46 47 47 48 48 48 48 48 48 49 50 50 51 51 52 52 53 53 53 53 52 52 52 52 53 53 53 52
37 38 40 41 42 43 44 45 46 46 46 46 47 48 47 48 49 49 48 48 49 50 50 50 51 52 54 55 54 54 53 54 54 55 55 55 55 55 54 54 54 55 55
38 39 39 41 42 43 44 45 46 47 47 47 48 49 49 49 50 50 49 50 50 51 51 51 52 53 55 55 55 55 55 55 55 56 56 56 56 56 56 56 56 56 56
38 39 39 40 42 42 42 44 45 46 46 48 48 49 49 50 50 50 50 50 51 52 53 53 53 54 55 55 55 55 55 55 55 55 56 56 57 57 57 57 57 57 57
37 38 38 39 40 41 42 44 45 45 46 46 47 48 49 49 49 50 51 51 52 53 54 54 55 55 55 54 55 55 54 54 56 55 56 56 57 58 58 58 58 57 57
37 38 39 40 40 41 42 43 45 45 46 46 47 48 48 48 49 50 51 52 53 53 54 54 54 54 55 54 54 54 55 56 56 55 55 55 55 55 56 57 57 57 57
38 39 40 41 41 42 43 44 44 45 45 45 46 48 48 48 49 49 50 51 52 53 54 54 54 54 54 54 53 54 54 54 55 55 54 54 54 54 54 54 54 54 54
38 39 39 41 41 41 41 42 43 44 44 45 45 46 47 48 49 49 50 51 52 53 53 53 53 53 53 53 53 53 53 53 53 53 54 54 54 53 53 52 52 52 52
39 40 41 41 41 42 42 43 43 45 45 46 45 45 46 47 48 49 49 50 50 51 52 52 52 52 53 53 53 53 53 53 52 52 53 53 53 53 53 52 52 51 51
39 40 41 41 41 41 42 42 43 44 45 45 46 46 47 47 48 48 49 49 49 50 51 51 51 52 52 52 52 51 51 51 51 52 52 51 51 51 51 52 52 52 51
40 40 41 42 42 42 42 42 43 44 44 45 45 46 46 47 47 48 49 49 50 51 51 51 51 51 51 51 51 50 50 51 50 50 51 51 50 50 50 51 52 53 52
40 40 41 42 42 42 42 43 43 44 44 45 45 45 46 46 47 48 49 49 50 50 51 51 51 51 51 50 50 50 51 51 51 50 50 50 50 49 48 49 51 52 52

GEFSMA_500_meanwind_180.txt.gz
Wind_Speed
34 32 31 30 30 30 29 29 28 28 27 26 26 25 24 23 23 22 22 23 23 23 23 23 23 23 23 24 24 24 24 25 26 26 26 26 27 27 27 27 27 27 28
33 32 32 32 31 31 31 30 30 29 29 28 28 27 26 26 25 24 24 24 25 25 25 25 25 25 25 26 26 26 26 27 27 28 28 28 29 29 29 29 29 30 30
34 33 33 33 32 31 30 30 30 30 30 30 29 29 28 27 27 26 26 26 26 26 27 26 27 27 27 28 28 28 28 28 29 29 30 30 31 31 31 31 32 32 32
34 34 32 32 32 31 31 30 31 31 31 31 31 31 30 30 29 29 28 28 28 28 29 29 28 29 29 29 29 29 30 30 31 31 31 32 32 32 33 34 34 34 34
33 34 34 33 32 32 32 33 33 31 31 32 32 31 31 31 31 30 30 30 30 29 30 30 30 31 31 31 31 32 32 33 33 33 33 33 34 34 35 35 36 36 36
34 34 34 34 33 33 33 34 34 34 33 32 32 32 32 31 32 32 32 32 32 32 32 32 33 33 33 33 34 34 34 35 35 35 36 36 36 37 37 38 38 38 38
36 35 34 35 35 34 34 34 34 34 35 34 33 33 32 32 31 32 33 33 34 34 34 34 35 35 35 36 36 36 36 37 37 37 38 38 38 39 40 40 40 41 41
37 37 36 36 36 36 36 35 35 35 35 35 35 34 34 34 34 34 34 35 35 36 36 36 36 37 37 38 38 39 39 39 40 40 40 41 41 42 42 43 43 43 43
37 38 38 37 36 37 38 37 36 36 36 36 36 36 36 36 36 36 36 37 37 37 37 38 38 39 39 40 40 41 42 42 42 42 43 43 44 44 45 45 45 45 45
35 37 38 37 37 36 37 38 38 38 37 37 38 38 38 38 39 38 38 39 39 39 39 39 40 40 42 42 43 44 44 45 44 45 45 46 46 46 47 47 47 47 47
32 34 36 37 37 37 37 38 38 39 39 39 40 39 40 40 41 41 41 41 41 41 41 42 42 43 43 44 44 45 46 46 46 47 47 48 48 48 48 49 49 49 49
33 33 34 36 37 37 37 37 38 39 39 40 41 41 42 42 42 43 43 43 43 43 43 44 45 45 45 45 46 46 46 47 47 48 48 49 50 50 50 50 50 50 49
34 34 34 35 36 37 38 38 39 39 40 40 42 43 43 44 44 44 44 45 45 45 46 46 47 47 47 47 47 48 48 49 49 49 50 50 51 51 52 52 51 51 50
33 34 35 35 37 38 39 40 40 41 41 42 42 43 44 44 45 46 46 46 46 47 47 48 48 48 49 49 49 49 50 51 50 51 51 52 53 53 53 53 52 52 51
33 34 35 37 37 38 40 40 40 41 42 43 43 44 45 45 45 47 48 48 49 50 49 50 50 50 50 50 50 51 52 52 52 52 53 54 54 54 53 53 53 53 53
34 35 36 37 38 39 40 41 42 43 44 45 46 46 46 47 47 48 49 50 51 51 51 50 51 52 52 52 52 53 54 54 54 54 54 55 55 55 55 55 55 54 55
35 36 37 39 40 41 42 43 43 44 45 46 46 47 48 48 49 50 50 50 51 51 52 51 52 52 52 53 54 54 54 54 54 54 55 55 56 56 56 55 55 55 56
36 37 38 39 41 42 43 44 44 45 46 46 47 48 48 49 49 49 50 51 51 52 52 52 52 52 53 53 53 54 54 55 55 55 55 55 56 56 56 55 55 56 56
37 39 40 41 42 42 43 44 44 45 45 46 47 47 48 49 50 50 51 51 52 52 52 52 52 52 53 53 53 54 54 55 55 55 55 55 55 56 56 55 55 55 55
38 38 39 41 43 43 43 44 44 44 44 45 46 47 48 48 49 50 51 51 52 53 53 52 52 52 52 53 54 54 53 54 55 55 55 55 54 54 54 54 54 54 54
39 40 40 41 41 42 43 44 44 44 44 45 46 47 48 49 49 50 51 51 51 52 53 52 52 52 52 53 53 53 54 54 54 54 54 55 54 53 53 53 53 53 53
39 39 40 40 41 42 43 44 45 45 45 46 47 47 48 49 49 50 50 50 51 52 52 52 52 52 52 53 53 53 53 53 53 53 53 52 53 52 52 52 52 52 51
38 39 39 39 39 40 41 42 43 44 45 45 46 48 48 49 49 48 49 50 50 50 51 52 52 52 52 52 53 53 53 52 52 52 51 51 52 52 52 51 51 51 50
37 38 38 39 40 40 42 42 44 44 45 46 46 47 48 48 48 48 49 49 49 50 50 50 51 51 51 52 53 53 52 52 52 52 52 51 51 51 51 51 51 50 49
37 39 40 40 40 41 42 43 45 45 46 46 45 45 46 46 47 47 48 49 49 50 50 50 50 50 51 51 52 52 52 51 51 51 52 51 50 50 49 50 49 49 48
38 39 40 40 41 41 42 43 44 44 44 44 44 44 45 45 45 46 47 47 48 48 48 48 48 49 50 50 50 51 51 51 51 50 51 51 50 49 48 48 48 48 47

GEFSMA_500_meanwind_186.txt.gz
Wind_Speed
36 35 35 34 33 33 33 32 31 30 31 30 29 29 28 27 27 26 26 25 25 25 24 24 24 24 24 24 24 24 24 24 24 24 24 24 24 24 25 25 25 25 25
37 36 36 35 35 34 33 33 33 33 32 32 31 30 29 29 29 28 28 27 27 27 26 26 26 26 26 25 26 26 26 26 26 26 26 26 26 26 26 27 27 27 27
37 37 36 36 36 36 35 33 33 34 33 33 32 32 31 31 31 30 29 30 29 29 29 28 28 28 28 28 28 28 28 28 28 28 28 28 28 28 29 29 29 30 30
37 37 38 37 37 36 36 34 34 34 34 34 33 33 32 32 33 32 32 32 32 31 31 31 30 30 30 30 30 30 30 30 30 31 30 30 31 31 31 32 32 32 32
37 37 38 38 37 36 36 36 36 35 34 34 34 34 34 33 33 33 33 33 33 33 33 33 32 32 32 32 32 33 32 32 32 33 32 32 33 33 33 34 34 34 34
36 36 37 38 37 36 35 36 36 35 35 34 34 34 34 34 34 34 33 33 33 34 34 34 34 34 34 34 34 34 34 34 34 34 34 35 35 35 35 35 36 36 36
37 36 36 36 36 36 34 34 35 35 35 35 35 35 34 34 34 34 34 33 34 34 34 35 35 35 35 35 35 35 35 35 36 36 37 37 37 38 38 38 38 38 39
36 36 35 36 36 36 36 35 34 34 35 36 37 36 36 35 36 35 35 35 35 35 36 36 36 36 36 37 37 38 38 38 38 38 39 39 40 40 40 40 40 41 41
34 34 34 35 35 35 36 36 35 34 35 37 37 37 37 37 37 37 37 38 38 38 39 39 39 39 39 39 39 40 40 40 41 41 41 41 42 43 43 43 43 43 43
32 33 33 33 33 33 35 35 36 36 36 37 38 39 39 38 38 38 38 39 40 40 40 41 41 41 42 42 42 42 42 42 42 43 43 44 44 45 45 45 46 46 46
32 33 33 33 33 33 34 34 35 36 36 37 38 39 39 39 40 40 39 40 40 41 42 42 43 43 44 44 44 43 44 44 44 44 45 46 46 47 47 48 48 48 48
32 33 34 34 34 34 34 35 36 37 37 38 39 39 40 40 40 41 41 42 42 43 43 44 45 45 45 45 45 45 45 46 46 47 47 48 48 48 49 49 50 50 50
33 34 35 35 34 35 35 36 38 39 39 39 40 40 41 42 42 42 43 44 44 44 45 45 46 46 46 46 47 47 47 48 49 50 50 50 50 50 50 51 51 51 52
34 34 35 35 35 35 35 37 39 40 41 41 41 41 42 43 43 44 44 45 45 46 46 46 47 47 47 48 48 49 50 51 51 51 52 52 52 52 52 52 53 54 54
34 35 35 35 35 36 37 38 39 41 42 42 42 42 43 44 45 46 47 47 47 46 47 47 47 48 49 50 50 51 52 53 53 54 54 54 55 54 54 54 54 55 55
35 36 36 37 37 38 38 38 39 40 42 43 44 44 45 45 46 48 48 48 49 49 49 48 49 49 50 51 51 53 53 54 54 54 55 54 54 55 55 55 55 55 56
35 36 37 37 37 37 38 38 39 41 42 44 45 45 46 47 48 48 49 49 50 50 50 50 50 50 51 52 53 54 54 55 55 55 55 55 54 54 55 56 56 56 56
35 35 36 36 36 37 38 39 40 41 43 44 46 46 46 47 49 49 49 50 50 50 51 51 51 52 53 53 54 54 54 55 55 55 55 55 55 55 55 56 57 57 57
34 34 35 37 37 38 38 39 41 42 43 44 46 47 47 47 48 48 49 50 51 52 52 52 53 54 55 56 55 55 56 56 55 55 55 55 56 57 57 57 57 57 58
36 37 37 38 38 39 40 41 42 43 44 46 47 48 48 49 49 49 50 51 52 52 53 54 54 54 55 56 56 56 56 57 56 57 57 57 57 58 58 58 58 58 59
35 37 38 39 40 40 41 42 43 44 45 47 48 48 49 50 50 50 51 51 52 53 53 54 54 54 54 55 55 56 57 57 57 58 58 58 58 58 58 58 58 58 58
34 36 38 40 41 42 43 44 44 44 46 47 48 49 49 49 50 50 51 51 51 51 52 53 53 54 54 54 54 56 57 57 57 57 58 58 58 58 57 57 56 56 56
33 34 36 39 40 42 44 44 44 45 45 46 47 47 48 48 48 49 49 50 50 51 52 52 52 52 52 52 54 55 56 56 56 56 57 56 57 57 57 56 56 55 54
34 36 37 38 39 41 42 43 43 44 44 45 45 45 46 46 47 48 48 49 50 50 51 51 51 51 52 52 53 54 54 54 54 55 56 55 55 55 55 55 54 53 53
36 36 37 38 39 40 41 42 43 43 44 44 44 45 46 47 47 48 48 49 49 49 49 49 50 50 50 51 52 53 52 52 52 52 53 52 52 52 52 52 52 52 52
37 38 38 38 39 40 40 41 42 43 43 43 44 45 46 46 47 47 48 48 48 48 48 48 49 50 50 50 51 51 51 51 51 50 50 50 50 50 50 50 50 50 50

GEFSMA_500_meanwind_192.txt.gz
Wind_Speed
38 37 36 35 35 35 34 33 32 32 32 32 31 30 29 28 28 28 27 27 27 26 26 26 26 25 25 25 25 25 25 25 25 24 24 24 25 25 25 25 25 25 25
38 38 37 37 36 35 35 35 34 33 34 33 33 32 31 30 29 29 29 28 28 28 28 28 28 27 27 27 27 27 27 27 27 27 27 27 27 27 27 27 27 27 27
38 37 38 38 38 37 36 35 34 33 32 33 33 34 33 32 31 30 30 30 29 29 30 30 30 30 30 30 30 29 29 29 30 30 29 29 29 29 29 29 28 28 29
37 38 38 39 39 39 37 36 36 35 35 34 33 33 34 34 32 31 31 32 31 31 31 32 32 32 32 32 31 31 31 31 31 31 31 31 31 31 31 31 30 30 30
36 36 38 39 38 39 38 37 36 36 36 35 35 34 34 34 33 33 32 33 33 33 33 33 33 33 33 33 33 33 33 33 32 32 33 33 33 33 33 33 33 33 32
37 37 37 37 38 38 38 38 37 36 36 36 36 35 35 34 34 34 33 33 33 33 33 33 33 34 34 34 34 34 34 34 34 34 34 35 35 35 35 36 35 35 35
37 36 36 35 36 37 37 37 38 37 36 36 36 36 35 34 34 34 34 35 34 34 34 34 34 34 34 35 35 35 35 36 36 36 36 37 37 38 38 38 37 37 37
36 36 36 35 35 36 36 36 37 37 37 37 36 36 36 36 35 36 36 36 37 36 36 36 37 36 36 36 37 38 38 39 39 38 38 39 40 40 40 39 39 39 39
36 35 36 36 37 36 36 35 34 35 36 36 36 36 36 37 37 37 38 38 37 37 37 37 38 38 38 39 40 40 40 41 41 41 40 41 41 41 41 41 41 41 42
37 36 36 36 37 37 38 37 36 35 35 35 36 37 37 37 38 37 38 38 39 39 38 39 40 40 40 41 42 42 42 42 43 43 43 42 43 43 44 43 43 44 45
38 38 37 37 37 36 37 38 38 37 36 36 36 37 37 38 38 38 38 39 40 40 41 41 42 42 42 43 43 44 44 44 44 45 46 45 45 45 45 45 46 46 47
36 36 37 37 37 36 37 37 37 37 36 36 37 37 38 38 38 39 40 40 41 41 42 42 43 44 44 45 45 45 46 46 47 47 48 48 47 47 47 47 48 49 49
35 36 37 37 38 37 38 38 37 37 37 37 38 38 39 40 41 42 42 42 43 43 43 43 44 45 45 46 47 47 48 48 49 49 49 49 49 49 49 50 50 51 52
35 36 38 39 39 38 39 38 37 37 38 38 38 40 41 42 43 43 44 44 45 44 44 45 45 46 47 48 48 48 49 49 49 50 50 50 51 51 51 51 52 53 54
33 35 37 38 38 38 38 39 39 39 39 39 39 40 42 43 44 44 45 45 46 46 46 46 46 47 49 50 50 50 50 50 50 51 52 52 52 53 54 54 54 55 55
32 33 35 37 38 38 38 40 41 40 41 40 41 42 43 44 45 46 46 47 47 47 48 47 47 48 49 50 51 51 51 51 52 52 53 54 54 55 55 56 56 56 56
33 34 35 37 38 40 40 40 41 41 42 42 42 43 45 45 46 46 46 47 47 48 49 49 49 49 50 50 51 52 52 52 52 53 54 55 56 57 57 57 58 58 58
32 34 35 37 39 39 40 40 41 42 43 43 43 44 45 46 47 47 47 48 48 49 50 50 50 51 51 51 51 52 53 53 53 54 55 56 56 57 57 58 58 58 58
32 33 35 37 38 39 40 41 41 42 44 45 45 46 46 47 47 47 48 49 49 49 50 51 51 51 51 51 51 52 53 53 54 55 55 56 56 56 57 57 58 57 58
30 32 34 36 38 39 40 41 41 42 44 45 46 46 46 47 47 47 48 49 50 50 51 52 52 51 52 51 52 53 53 53 54 54 55 55 56 57 57 57 58 57 57
30 32 33 35 37 38 40 40 42 43 44 45 45 46 46 47 47 48 48 49 50 51 52 52 52 52 52 52 53 53 52 53 53 54 54 55 56 57 58 58 58 58 58
29 31 32 34 36 37 39 40 42 43 44 44 45 45 46 46 47 48 49 49 50 51 52 52 53 53 53 53 54 54 53 53 53 53 54 55 57 57 58 58 58 58 58
30 32 33 33 35 36 38 40 41 42 42 43 44 45 46 47 47 47 48 49 49 50 51 51 51 51 52 53 53 54 54 54 53 53 54 54 55 56 57 58 58 57 56
31 31 32 33 34 36 38 39 39 40 41 42 43 44 45 46 46 47 48 48 49 49 50 50 50 50 50 51 51 52 52 52 52 52 53 52 53 54 55 56 56 55 54
31 32 33 34 35 36 37 38 38 40 41 41 43 44 44 44 45 46 47 48 48 48 49 49 49 50 50 50 50 50 51 51 51 52 53 52 52 52 52 53 53 53 52
33 34 35 36 36 37 38 38 39 40 41 42 43 43 44 44 45 46 47 47 48 48 49 49 49 49 49 49 49 50 51 51 52 52 52 52 51 51 50 50 50 51 50

GEFSMA_500_meanwind_198.txt.gz
Wind_Speed
37 37 36 35 36 36 36 35 34 34 34 33 33 32 31 31 30 30 29 29 29 28 28 27 27 27 26 26 25 25 25 25 24 24 24 24 24 25 25 24 24 24 24
37 38 37 36 37 37 37 37 36 36 36 35 34 34 34 33 32 32 32 32 31 30 30 29 29 29 28 27 27 27 27 27 27 26 26 26 26 26 26 26 26 26 26
37 37 38 37 37 38 38 37 37 38 37 36 35 35 34 34 33 33 33 33 33 32 31 31 30 30 30 29 29 29 29 29 28 28 28 28 28 27 28 28 28 28 28
37 37 39 38 37 39 39 38 39 39 38 37 37 36 35 35 35 34 34 35 34 34 33 33 32 32 31 31 31 31 31 31 31 30 30 30 29 29 30 30 30 30 30
36 36 38 39 38 38 38 38 38 38 37 37 38 37 36 36 35 35 35 35 36 35 35 35 35 34 33 32 33 33 33 33 32 32 31 31 31 31 31 31 31 31 31
36 35 36 38 38 38 39 38 38 39 38 37 37 37 37 37 36 36 36 36 36 37 37 37 36 36 35 34 34 34 34 34 34 33 33 33 33 33 33 33 33 33 34
36 35 36 37 37 36 38 39 38 39 39 38 38 38 38 37 36 36 36 36 36 36 37 37 37 36 36 36 36 36 36 35 35 35 35 35 35 36 35 35 36 36 36
35 35 36 37 38 36 37 38 38 38 38 38 38 38 38 37 37 37 37 37 36 36 37 37 37 37 37 37 37 37 37 37 38 38 38 38 38 38 38 38 38 38 38
35 35 36 37 38 37 38 38 38 38 38 38 37 38 38 38 38 37 37 38 38 38 38 38 38 39 39 39 40 39 40 40 40 41 41 41 40 40 40 41 41 41 41
34 35 37 37 39 39 39 38 38 39 39 39 39 39 39 38 38 37 38 39 39 40 40 40 40 40 41 42 41 41 42 42 42 42 43 44 44 43 43 43 44 43 43
34 35 36 38 38 39 39 39 39 39 39 40 40 40 40 40 40 39 39 40 41 41 41 41 41 42 42 43 43 43 44 44 44 45 46 46 46 45 44 44 45 45 45
33 34 36 37 38 39 40 40 40 40 40 40 41 41 41 41 41 41 41 41 41 42 43 43 43 43 44 44 45 45 45 46 47 47 47 48 48 47 46 47 47 48 48
31 33 34 37 37 38 40 40 39 40 41 41 42 41 42 42 42 43 43 43 43 43 44 45 44 45 46 46 46 47 47 47 48 49 49 49 50 50 50 50 49 50 51
30 31 33 35 36 38 39 39 38 40 41 42 42 42 42 42 43 43 44 44 44 44 45 45 46 47 48 48 48 48 48 49 49 50 50 51 52 52 52 52 51 51 52
28 30 32 33 34 36 38 39 39 41 41 41 42 42 43 43 44 45 45 45 46 46 46 47 47 48 49 50 50 50 50 50 51 52 52 52 53 53 54 53 53 53 53
28 29 31 33 33 35 37 39 40 40 41 41 41 42 43 44 45 45 46 46 47 48 48 48 48 49 50 51 51 52 53 52 52 53 53 53 53 53 54 54 55 54 54
28 29 30 32 34 36 36 39 39 41 42 42 42 43 44 44 45 45 46 47 49 49 49 50 51 51 52 52 52 52 53 54 54 54 54 54 55 54 54 55 55 56 55
28 28 29 31 34 36 37 39 40 40 42 43 43 44 43 44 44 45 46 47 48 49 49 50 51 51 51 52 52 53 54 54 54 54 54 54 55 56 55 55 55 56 57
28 29 30 31 33 35 38 40 41 40 41 42 44 44 44 45 45 45 46 47 47 48 49 50 50 49 50 50 51 52 52 53 54 55 55 55 56 56 57 57 57 57 58
28 29 30 31 32 33 34 37 39 39 40 41 42 43 45 46 47 47 47 48 48 48 49 50 50 50 50 50 50 50 50 52 54 55 55 56 56 57 57 58 58 58 58
28 29 30 31 32 33 34 35 37 39 40 40 42 43 44 45 45 47 48 48 48 48 49 49 49 49 49 49 50 51 51 53 54 55 56 56 57 56 56 57 57 57 57
28 29 30 30 31 33 34 36 37 38 40 40 41 42 42 43 44 46 47 48 48 48 49 49 49 49 49 50 51 52 52 53 54 54 56 55 56 56 56 56 56 56 57
27 29 30 31 32 33 34 35 35 37 39 40 41 42 43 43 44 45 46 47 48 49 50 50 50 50 50 51 53 53 53 53 53 53 54 54 54 54 54 55 55 55 55
28 29 30 31 32 32 33 34 35 36 37 38 40 40 41 42 44 45 45 46 47 48 49 49 50 50 51 52 53 52 52 52 52 52 53 52 53 54 54 54 55 55 55
29 29 31 32 32 33 34 34 35 35 37 38 39 40 42 43 43 45 45 45 46 47 47 48 49 50 50 51 52 53 52 52 51 51 52 52 51 52 52 53 54 54 54
31 31 32 33 33 33 34 35 35 37 38 39 40 41 42 42 43 44 45 45 46 46 46 47 48 49 50 51 52 52 51 50 50 50 51 51 50 50 49 50 51 52 52

GEFSMA_500_meanwind_204.txt.gz
Wind_Speed
35 36 37 36 36 35 35 35 36 35 35 34 33 33 33 32 30 30 30 30 29 29 29 29 28 28 27 27 27 26 26 26 26 25 25 25 25 25 25 25 24 24 24
37 36 36 36 36 36 36 36 37 36 36 36 35 35 34 34 33 32 32 31 30 30 30 30 30 30 30 29 28 28 28 28 28 28 27 27 27 27 27 27 26 26 26
36 37 36 37 37 37 37 37 37 37 36 37 36 35 35 35 35 34 34 33 33 32 32 32 31 31 31 31 31 31 30 30 30 30 30 29 29 29 29 29 29 28 28
35 36 37 37 38 38 38 38 37 38 37 37 37 37 36 36 36 36 35 35 35 34 34 33 33 33 32 32 32 32 32 32 32 32 31 31 31 31 31 31 31 30 30
34 35 36 36 37 38 37 38 38 37 38 37 38 38 38 37 37 37 37 37 37 36 35 35 34 34 34 34 34 34 33 34 33 33 33 33 33 33 32 32 32 32 32
34 35 36 35 36 37 36 37 38 38 39 39 39 39 39 39 38 38 38 37 37 36 37 37 36 36 36 36 36 35 35 34 35 34 34 34 34 34 34 35 35 34 34
35 34 35 35 36 35 35 36 37 37 38 39 39 39 40 40 40 39 38 37 37 37 37 37 37 38 38 38 38 37 37 37 37 36 36 36 36 37 37 37 37 36 36
33 33 33 34 36 35 35 36 36 38 38 39 40 40 41 40 40 39 39 38 37 36 36 37 37 38 39 39 40 40 39 39 38 38 38 38 39 39 39 39 39 39 38
31 32 32 33 35 35 36 37 37 37 38 39 39 40 40 40 40 40 39 38 38 39 39 38 39 39 39 39 40 41 41 41 41 40 40 40 41 41 41 41 41 42 41
29 31 32 32 34 35 35 36 36 38 39 40 40 40 41 40 40 39 39 39 39 39 40 40 40 40 40 40 40 41 41 42 43 43 42 43 43 43 43 43 43 43 43
27 29 31 32 33 35 36 36 36 38 39 40 40 40 41 41 41 40 40 40 41 41 41 41 41 42 42 42 41 42 43 44 44 44 44 45 44 45 45 45 45 45 45
27 28 31 32 33 35 36 37 37 38 38 39 39 40 41 41 41 42 41 41 41 41 41 42 42 42 43 44 44 44 45 45 46 46 46 47 46 46 47 47 47 47 47
28 29 31 32 33 35 36 37 37 38 38 39 39 39 41 42 42 43 43 42 42 42 42 43 43 44 44 45 46 46 47 47 48 48 48 48 49 48 48 49 49 50 50
29 30 31 32 33 34 36 37 37 38 38 39 40 41 42 43 44 45 44 44 44 44 44 44 45 45 45 47 48 48 48 49 49 50 50 50 50 50 50 51 51 52 53
29 29 30 31 32 34 35 36 37 38 38 39 40 41 43 44 45 45 45 45 45 45 44 45 45 45 46 47 47 48 49 49 50 51 51 52 51 52 52 52 53 54 55
29 30 30 31 32 33 35 36 37 38 39 40 40 41 42 43 45 45 45 46 46 46 45 45 46 46 46 47 49 49 49 49 50 52 53 54 54 55 55 55 55 56 57
29 29 31 31 33 34 35 36 37 38 39 40 41 42 42 42 43 44 43 44 46 46 46 46 47 47 47 48 49 50 50 50 51 53 54 55 56 57 58 57 57 58 59
30 31 31 31 32 34 34 35 37 38 38 39 41 42 42 42 43 43 43 44 45 46 47 47 48 49 49 50 51 52 52 53 54 55 56 56 57 56 58 58 58 59 59
30 31 31 30 30 31 32 34 35 36 37 39 40 41 42 42 42 42 43 44 45 46 47 48 49 50 51 51 52 53 54 55 56 57 57 57 57 57 58 58 58 58 58
29 30 31 30 30 30 31 32 33 35 36 38 38 39 41 42 41 42 43 44 44 46 47 49 49 50 50 51 52 53 54 55 56 56 56 56 56 56 56 56 56 56 56
29 29 30 30 30 29 29 30 32 33 34 36 38 39 40 42 42 43 44 45 46 46 48 48 49 49 50 51 51 52 53 54 54 54 55 55 55 55 55 55 56 56 56
28 28 28 29 29 29 29 29 30 32 34 35 36 38 39 40 41 43 44 46 46 47 48 48 49 49 50 50 51 52 53 53 53 53 54 53 54 54 54 55 55 56 56
29 29 29 29 30 30 30 30 31 32 34 35 36 38 39 41 41 42 43 45 46 47 48 48 48 49 49 50 50 50 51 51 52 52 52 51 52 53 54 55 55 54 54
29 29 30 30 30 30 31 32 32 33 34 35 37 37 39 40 41 42 43 44 44 45 45 47 47 47 48 49 50 50 51 51 51 51 52 52 52 52 52 52 52 52 51
31 31 31 31 30 31 31 32 33 34 35 36 37 38 39 40 41 42 42 42 42 43 44 45 46 46 47 48 49 50 49 49 49 49 50 51 50 49 49 49 50 51 50
32 32 32 31 31 32 33 33 34 35 35 36 37 39 40 40 41 41 42 42 42 42 43 43 44 44 45 46 47 48 48 47 48 48 48 48 47 47 46 46 48 48 48

GEFSMA_500_meanwind_210.txt.gz
Wind_Speed
32 34 35 34 34 34 36 36 36 36 36 36 35 35 34 33 34 34 32 32 31 30 29 29 29 29 29 29 28 28 28 27 27 27 26 26 26 26 26 26 25 25 25
33 35 35 35 35 35 37 38 39 38 38 37 37 37 36 35 36 36 35 34 33 32 31 31 31 31 31 31 30 30 30 29 29 28 28 28 28 28 28 28 27 27 27
32 34 34 34 34 35 37 39 40 40 39 39 39 39 38 38 38 37 37 36 35 35 34 33 33 33 32 32 32 31 31 31 30 30 30 30 30 30 29 29 29 29 29
31 33 34 35 35 36 37 39 39 40 40 40 39 39 39 40 39 38 38 38 37 37 36 36 35 35 34 34 34 33 33 33 32 32 32 31 32 32 31 31 31 31 31
30 32 33 34 36 37 38 39 39 40 40 40 40 40 39 40 40 39 39 39 39 39 39 38 37 37 37 37 36 36 36 35 35 35 34 34 34 34 33 33 33 33 33
30 30 31 32 33 34 36 37 37 39 40 40 40 40 39 39 39 40 40 40 40 40 40 40 39 39 39 39 38 38 38 38 38 37 37 37 37 36 36 36 36 35 35
29 30 31 30 30 31 33 35 36 37 38 39 40 41 40 39 40 41 41 41 41 41 41 41 41 41 41 41 40 40 40 40 40 39 39 39 39 39 39 39 39 39 38
29 30 29 30 30 31 33 34 34 35 37 38 39 40 40 39 41 41 42 43 43 42 42 42 42 42 42 42 42 42 42 42 41 41 41 41 42 42 42 42 42 41 41
28 28 28 29 30 31 31 33 33 34 37 37 38 39 40 41 41 41 42 43 43 43 42 42 43 43 43 43 43 43 43 43 43 43 43 43 43 43 43 44 44 44 44
27 28 28 28 29 30 30 33 33 34 35 36 37 38 39 40 41 42 43 43 44 44 43 43 42 42 42 43 44 44 45 44 45 44 44 44 44 45 45 45 45 46 46
28 28 28 28 28 29 31 32 33 34 35 36 38 38 39 40 41 42 42 44 44 44 43 43 43 43 43 43 43 44 44 45 46 46 46 46 46 47 47 47 47 48 48
28 28 28 28 28 29 29 31 34 34 36 37 38 39 39 40 41 42 43 43 43 43 43 43 44 44 43 43 43 44 44 45 45 46 47 48 48 48 48 48 49 49 50
27 28 28 28 28 28 29 31 33 35 35 37 38 39 40 41 40 41 42 43 43 43 44 44 44 45 45 46 46 46 46 46 46 47 47 47 48 49 50 50 51 51 52
28 28 29 28 28 28 29 31 33 35 36 36 37 39 40 41 41 41 42 42 43 45 45 45 45 46 47 48 48 48 48 47 47 48 48 48 49 50 50 51 52 53 53
28 29 29 29 29 29 31 31 33 34 35 36 37 38 40 40 41 42 42 43 44 46 46 46 46 47 48 49 49 49 49 49 48 48 49 50 51 51 51 51 52 53 54
29 29 30 31 30 30 31 32 33 35 37 37 39 40 41 41 41 42 43 44 45 46 46 46 47 48 48 49 49 49 49 49 50 50 50 52 53 53 53 53 54 55 56
29 29 30 31 31 31 32 33 34 35 37 38 39 40 41 41 41 42 44 44 44 46 47 47 48 49 49 49 50 50 51 51 52 52 52 53 54 54 54 55 56 57 58
29 30 31 31 31 32 32 33 34 36 37 38 38 39 40 42 41 42 44 44 45 45 47 48 49 50 49 50 50 51 52 52 53 54 54 54 55 56 56 57 58 59 60
30 31 31 31 31 32 32 32 33 34 35 35 36 37 39 41 41 42 42 43 44 45 47 48 48 49 49 50 51 51 52 53 54 55 55 56 56 57 58 59 59 60 61
32 32 31 31 31 31 32 31 32 33 34 35 36 37 39 40 41 41 41 42 43 44 45 46 47 47 48 49 50 51 52 53 54 54 55 57 57 59 59 59 58 58 58
33 32 31 31 31 31 31 32 33 34 34 35 36 36 37 38 39 39 40 41 42 43 44 45 46 47 48 48 49 50 51 53 53 54 55 55 56 57 57 57 56 56 57
33 32 31 31 31 32 32 33 34 34 34 34 34 34 35 36 38 39 40 41 42 43 43 44 45 46 47 48 49 50 51 52 52 52 53 53 54 55 55 55 55 55 55
34 34 33 33 32 32 33 33 33 34 34 33 33 33 34 35 37 39 40 41 42 43 44 44 45 46 47 48 49 50 51 51 50 51 52 51 52 53 54 54 53 54 54
35 35 34 34 33 33 33 33 33 34 34 34 33 34 34 35 36 38 40 40 40 41 43 44 44 45 46 46 48 48 49 49 48 49 49 49 49 51 51 52 51 51 51
35 35 35 34 34 34 34 34 33 33 33 34 34 35 36 36 36 37 39 40 41 42 43 45 45 45 45 45 46 46 47 48 47 47 48 48 48 48 48 49 49 48 48
36 35 35 35 35 35 35 35 34 34 33 33 34 35 35 36 36 37 39 40 41 42 44 45 45 45 45 45 46 46 47 47 47 46 46 47 47 46 45 46 47 46 46

GEFSMA_500_meanwind_216.txt.gz
Wind_Speed
26 27 27 28 28 28 28 30 31 32 32 33 33 33 33 33 33 33 32 32 32 31 31 30 29 29 29 28 27 27 27 27 27 27 27 26 26 26 25 24 24 24 24
27 27 27 28 29 29 30 31 32 33 33 34 35 36 35 35 35 35 34 34 34 34 33 33 32 31 31 31 31 30 30 30 29 29 28 28 28 27 26 26 26 26 26
28 27 27 28 29 30 31 32 33 34 34 35 37 37 38 37 37 37 36 35 35 35 35 35 34 34 33 33 33 33 33 32 32 31 31 30 30 30 29 29 28 28 28
28 28 28 29 30 30 31 31 32 31 32 35 36 38 39 39 38 38 38 38 37 37 37 37 37 36 36 35 35 35 34 34 34 33 33 33 33 32 32 32 31 31 31
28 29 29 30 30 30 31 31 32 31 32 34 36 37 38 39 38 39 39 39 39 39 38 39 39 38 38 38 37 36 36 35 35 36 35 35 35 35 35 35 34 33 33
29 29 30 30 30 31 31 31 31 33 33 34 35 37 39 38 39 39 39 40 40 40 40 40 40 40 40 40 40 39 38 38 38 38 38 37 37 37 37 37 37 36 36
29 30 30 30 30 30 32 32 32 32 33 34 36 37 38 38 39 39 40 40 41 41 41 42 42 41 41 41 42 41 41 40 40 40 40 39 39 39 39 39 39 39 39
30 30 30 30 30 30 31 32 33 32 32 33 35 36 37 38 39 39 40 40 41 42 42 42 41 41 42 42 43 43 42 42 41 41 41 41 41 41 42 42 42 42 42
30 30 30 30 30 30 30 31 31 32 32 32 33 34 34 35 38 38 39 40 40 41 42 42 43 42 43 43 43 43 43 43 43 43 43 43 43 43 43 43 43 43 43
30 30 30 30 30 30 30 30 30 31 31 32 33 34 35 35 37 38 39 40 40 41 42 42 43 44 44 44 44 44 44 44 44 45 45 45 45 45 45 45 45 45 46
30 30 30 30 30 30 31 31 31 31 31 32 33 33 34 35 36 38 39 39 40 41 43 43 43 44 45 46 46 46 46 46 46 45 45 45 46 46 46 47 47 47 47
30 30 30 30 30 30 31 31 31 31 32 33 33 33 33 35 35 37 39 39 39 40 42 43 44 44 45 45 46 46 46 47 47 47 47 47 47 48 48 48 48 48 49
32 32 32 31 31 31 31 31 31 31 32 32 33 33 33 35 36 36 37 38 39 40 41 43 44 45 46 45 45 46 46 46 47 48 48 48 49 49 49 50 50 50 51
32 32 32 32 32 32 32 33 33 33 33 33 33 33 34 35 36 37 37 38 39 40 41 42 43 44 45 45 45 46 46 46 48 48 48 49 49 50 52 52 52 51 52
32 32 33 33 33 33 34 34 34 33 33 34 34 34 34 34 36 37 38 40 41 41 41 41 42 43 44 45 46 46 47 48 48 48 48 49 50 51 52 53 53 53 53
33 33 33 33 33 33 34 34 34 34 34 34 34 35 35 35 35 37 38 39 40 41 41 41 42 42 44 45 46 47 48 49 49 50 50 50 50 51 52 53 54 55 56
34 34 34 34 34 34 34 34 34 35 35 34 34 35 35 35 36 37 38 39 40 40 41 41 42 43 44 45 46 46 47 49 50 51 51 51 51 52 53 54 54 55 56
35 34 34 34 34 35 34 34 35 35 34 35 36 36 36 36 36 37 38 38 38 39 40 40 41 42 43 45 46 47 48 49 50 51 51 52 52 53 54 54 54 55 56
36 35 35 34 35 36 36 35 35 35 35 35 36 36 36 36 36 37 37 37 37 39 40 40 40 41 43 44 46 47 49 50 50 51 52 53 53 54 55 55 56 56 57
36 36 36 35 36 37 37 37 36 35 35 35 35 36 36 36 37 37 37 38 38 39 39 40 40 41 42 44 46 47 48 49 50 51 52 53 54 55 55 56 56 57 57
37 37 37 36 36 36 37 37 37 36 35 35 35 35 36 36 37 37 37 38 39 39 39 40 41 42 43 43 45 46 47 48 48 49 50 52 53 54 54 55 55 56 56
38 38 38 37 37 37 37 37 37 37 36 36 36 36 36 36 37 38 38 39 40 40 40 40 42 43 43 44 44 45 46 47 48 49 50 51 52 52 53 54 54 55 54
39 39 39 39 39 38 38 37 36 37 37 37 37 37 37 38 38 38 39 40 40 41 41 42 42 43 43 43 44 45 46 47 48 49 50 50 51 51 52 52 53 53 52
40 39 40 40 39 39 39 38 38 38 38 38 38 37 38 38 38 39 39 39 40 41 41 42 41 42 42 43 44 45 46 47 48 49 50 50 50 50 51 51 51 51 51
39 40 40 40 39 39 39 39 39 39 39 39 38 38 38 38 39 40 39 39 40 41 42 42 42 42 42 42 42 43 44 46 47 48 49 49 48 49 49 50 50 49 49
39 39 40 39 39 39 40 39 39 39 39 39 39 39 39 39 39 40 39 39 39 39 40 41 41 42 42 42 42 43 44 44 45 45 46 46 46 47 46 47 48 48 47

GEFSMA_500_meanwind_222.txt.gz
Wind_Speed
26 26 27 27 27 27 27 27 28 29 29 29 29 29 29 29 29 30 30 31 31 31 31 31 31 30 30 30 29 29 29 29 28 29 28 28 28 27 27 27 27 26 26
26 27 27 28 28 27 27 27 28 29 30 29 30 30 29 30 30 31 32 33 33 34 34 34 34 34 33 33 32 31 31 31 31 31 31 30 30 30 30 29 29 29 29
27 27 27 28 29 28 28 28 28 29 29 29 30 31 31 31 32 32 33 34 35 35 36 36 36 36 36 36 35 34 33 33 33 33 33 33 32 32 32 32 31 31 31
28 29 28 28 29 29 28 28 28 29 30 30 30 31 31 32 33 33 34 35 36 36 37 38 38 37 37 38 37 37 36 36 36 35 35 35 34 34 34 34 34 34 33
29 29 30 29 29 29 29 29 29 29 30 30 30 31 32 33 34 34 35 37 37 37 37 38 38 38 39 39 39 38 38 37 37 37 37 36 36 36 36 36 36 36 36
30 30 30 30 31 30 30 30 30 30 30 30 31 31 32 33 34 35 35 37 38 38 39 39 39 39 39 39 40 39 39 39 38 39 39 38 38 38 38 38 38 38 39
31 31 31 31 31 31 31 31 31 31 32 32 32 32 33 33 34 34 35 36 37 38 39 40 40 40 40 40 41 41 41 41 40 40 40 40 39 39 40 40 40 40 40
31 31 31 32 32 32 32 32 32 32 31 32 33 33 33 34 35 35 35 36 37 38 39 40 40 41 41 41 41 42 43 42 42 42 42 41 41 41 41 42 42 42 42
31 31 32 32 33 33 33 33 33 33 33 33 33 33 33 34 35 36 37 36 36 37 38 39 40 40 41 41 42 41 42 42 43 43 43 44 44 44 44 44 44 45 44
31 32 32 33 33 33 34 34 34 34 34 34 34 34 34 34 35 35 36 37 36 36 38 39 40 41 41 42 43 42 43 43 43 44 44 44 44 45 45 45 46 46 46
33 33 33 33 33 34 34 34 35 34 34 34 34 34 35 35 35 35 36 37 38 38 37 38 39 40 41 42 43 44 44 44 44 44 44 45 45 46 45 45 45 46 46
35 35 35 34 34 34 35 35 35 35 35 35 36 35 35 35 35 35 36 37 38 39 39 39 40 40 40 42 43 45 45 45 45 45 45 45 45 46 46 45 45 46 47
36 36 36 35 35 36 36 36 36 36 36 36 36 36 36 35 35 35 36 36 37 38 39 39 40 42 41 41 42 43 45 45 45 46 46 46 46 46 46 45 45 46 46
37 37 37 37 36 37 37 37 37 37 37 36 36 37 36 36 35 36 36 36 37 39 39 39 39 41 40 41 42 43 44 45 45 46 48 47 47 47 47 47 48 48 48
38 37 37 37 37 37 37 37 37 37 37 37 37 36 36 37 37 36 36 36 37 38 38 38 39 40 40 40 42 43 44 45 45 45 46 47 47 48 49 50 50 51 51
39 39 39 38 38 38 38 38 37 37 37 37 37 37 37 37 38 38 38 37 38 39 39 39 39 40 40 41 41 41 42 44 45 45 46 47 48 48 49 50 51 51 52
40 40 40 39 39 38 38 38 38 38 38 37 37 37 38 38 38 39 38 38 39 39 39 39 40 41 42 42 41 41 41 42 44 45 46 47 48 49 49 50 51 51 52
40 40 40 40 39 39 39 38 38 39 39 39 39 39 38 38 38 38 38 38 38 39 39 40 40 40 41 43 43 43 42 43 43 45 46 47 48 49 49 50 51 52 53
39 39 39 39 39 39 39 39 39 40 40 40 40 39 38 37 37 37 37 37 37 38 38 39 39 40 40 41 42 42 42 42 43 44 45 47 48 48 49 50 51 52 53
39 39 38 38 38 38 38 38 39 39 39 40 39 38 37 37 37 37 38 38 37 37 38 39 39 39 40 40 41 41 41 42 43 45 46 47 48 49 50 51 52 54 55
39 39 38 38 37 38 38 37 37 38 38 38 39 38 37 37 38 38 38 38 38 38 38 38 39 39 39 40 41 42 42 43 44 45 47 48 49 50 51 52 53 54 55
40 39 38 38 37 37 37 37 38 38 38 38 39 39 39 38 38 37 37 37 38 38 39 39 39 38 39 41 42 42 43 43 44 45 47 48 49 50 51 53 53 54 54
40 40 39 38 37 36 37 37 37 37 38 39 39 39 39 39 38 38 38 38 38 38 39 40 40 40 41 42 42 42 43 45 45 46 47 48 49 50 52 53 54 54 54
40 40 39 38 37 37 37 37 37 38 39 39 39 39 39 39 39 38 38 38 39 39 39 40 41 41 41 41 41 42 42 43 44 45 46 46 47 48 49 50 51 52 53
41 40 39 39 39 39 39 39 39 39 39 39 39 39 39 38 38 39 39 39 39 39 38 39 39 39 39 40 40 41 41 41 41 42 43 45 46 46 47 48 48 49 49
41 40 40 40 40 40 40 39 39 39 39 39 39 39 39 39 39 39 39 39 38 38 38 38 37 37 38 39 39 40 41 41 41 41 42 44 45 45 45 46 47 48 48

GEFSMA_500_meanwind_228.txt.gz
Wind_Speed
27 27 27 26 25 25 27 27 27 26 26 26 26 27 27 26 27 27 27 26 27 27 27 27 27 27 27 27 28 28 28 28 28 27 27 28 28 28 27 27 27 27 27
26 27 28 27 27 26 26 27 28 27 27 27 27 27 27 27 27 28 28 27 28 28 28 28 29 29 29 30 30 30 30 31 31 30 30 30 30 30 30 30 30 29 29
28 28 28 28 28 28 28 28 28 28 27 27 27 27 28 28 28 29 30 30 29 30 30 31 30 30 31 31 32 32 32 33 33 33 33 32 32 32 31 31 31 32 31
29 29 28 28 28 29 28 28 29 29 29 28 28 29 29 28 29 30 30 30 31 31 31 32 33 33 33 33 34 33 34 34 34 34 34 34 34 34 33 34 33 33 33
29 29 29 29 29 29 29 29 30 30 30 30 30 30 30 30 30 30 31 31 32 32 33 34 35 35 35 35 35 34 34 35 35 35 35 35 35 35 35 35 35 35 35
30 30 30 30 30 30 30 30 30 31 31 31 31 31 31 30 31 32 32 32 32 33 34 34 35 35 36 36 36 36 36 36 36 36 36 36 36 36 36 36 36 36 37
31 31 31 31 32 32 32 32 31 31 31 31 32 32 32 31 31 32 32 33 34 34 34 34 35 36 36 36 37 37 37 37 37 37 37 37 37 38 38 38 38 38 38
33 32 31 32 32 33 32 32 32 32 31 31 32 32 32 32 32 32 32 33 34 34 34 35 35 36 37 38 38 38 38 38 38 37 38 38 39 40 40 40 40 40 40
34 33 33 33 33 33 33 32 32 32 32 33 33 33 33 33 33 33 33 34 34 35 35 35 36 37 37 38 38 38 39 39 39 39 40 40 41 41 41 41 41 41 42
35 35 34 34 34 34 34 33 33 32 33 33 34 34 34 34 34 34 34 35 35 35 35 35 36 37 38 38 39 39 39 40 40 41 42 42 42 42 42 42 42 42 42
36 36 36 36 35 35 35 35 34 34 33 34 34 35 35 36 35 35 35 36 36 36 37 37 37 37 38 38 39 39 40 40 40 42 42 43 42 43 43 44 43 43 43
38 37 38 37 36 36 36 36 36 35 35 35 36 36 36 37 37 37 37 37 37 36 37 37 37 37 38 38 38 39 40 41 41 42 42 42 42 43 43 43 43 43 44
39 38 38 38 37 37 37 37 37 37 37 37 37 37 38 38 38 38 38 38 38 37 37 37 37 37 38 38 38 39 40 41 42 42 43 43 44 43 43 43 43 43 44
40 40 40 40 38 38 38 38 38 38 39 38 38 38 39 39 39 39 39 39 38 37 38 38 39 38 38 39 39 40 40 40 41 42 42 43 44 44 44 44 44 44 45
41 41 41 41 40 40 40 40 39 40 40 40 39 39 39 39 39 39 39 39 39 39 39 39 39 39 39 39 40 40 39 40 42 42 43 43 43 44 44 45 45 45 45
42 41 41 41 41 41 40 40 41 40 40 40 40 39 39 39 39 39 39 40 40 40 39 39 39 39 39 40 39 40 41 42 42 43 43 43 43 43 43 44 45 45 45
43 42 42 41 42 42 42 42 41 41 41 41 40 40 40 40 40 40 40 40 39 39 39 39 39 38 39 39 39 40 40 41 41 42 43 43 43 43 44 44 44 45 46
43 43 43 43 43 43 42 42 42 42 42 41 41 41 40 39 39 39 39 39 39 39 40 40 38 38 39 40 40 41 41 40 41 42 42 43 44 45 45 45 45 46 46
43 43 43 44 44 43 43 43 43 42 42 41 41 40 40 40 39 39 39 40 40 40 40 40 39 39 38 39 40 40 40 40 40 41 42 42 43 44 45 45 46 46 47
44 44 43 44 44 43 43 43 43 43 42 41 40 40 39 39 39 40 40 40 40 39 39 40 39 39 39 39 39 39 39 39 39 40 41 41 42 42 43 44 45 46 47
44 44 44 44 43 43 42 42 42 41 41 40 39 39 39 39 39 40 39 39 39 39 39 39 39 39 38 38 38 38 38 38 39 39 41 41 41 41 42 43 44 45 46
44 44 44 44 43 43 42 41 41 40 39 39 39 39 39 39 39 39 38 38 38 38 39 39 39 38 38 38 38 39 39 39 39 40 41 40 41 41 41 43 44 44 46
45 44 44 44 43 42 41 41 39 39 38 38 38 37 38 38 38 37 38 38 38 38 38 38 39 39 38 38 39 40 40 40 40 40 40 40 41 41 42 43 44 45 46
45 45 45 44 43 42 41 40 39 39 38 38 38 38 38 38 38 38 38 38 38 38 38 38 38 38 39 39 40 40 41 41 41 40 40 41 41 42 43 44 45 46 47
44 45 45 44 44 43 42 40 40 40 40 39 39 39 39 40 39 39 39 38 38 38 38 38 39 39 40 40 41 41 42 42 41 41 41 41 42 43 43 44 45 46 48
43 43 44 44 44 43 42 41 41 41 40 39 39 38 39 39 39 39 39 39 39 38 38 39 39 40 40 41 42 42 42 42 41 41 41 42 43 44 43 43 44 45 46

GEFSMA_500_meanwind_234.txt.gz
Wind_Speed
27 27 27 26 26 26 26 26 26 26 27 26 25 24 25 25 25 26 26 26 26 26 26 26 27 27 27 27 27 27 27 26 26 27 27 27 27 27 27 27 27 27 27
29 28 28 27 28 28 27 27 28 28 28 28 27 26 25 25 26 27 27 27 27 28 28 27 27 27 28 28 29 29 29 29 28 28 28 28 28 29 29 29 29 29 29
30 30 29 28 29 29 29 28 28 29 29 29 29 28 27 26 26 26 27 28 28 29 29 29 29 29 29 29 30 30 30 30 30 31 31 30 30 30 30 30 30 30 31
31 31 30 29 29 29 29 29 29 29 30 30 31 31 30 29 28 26 27 28 28 29 30 30 31 31 31 31 31 32 32 31 31 32 32 32 31 31 31 31 31 32 32
32 32 32 31 30 30 30 30 30 30 31 31 31 31 31 30 30 28 28 29 29 29 30 31 32 32 33 33 33 33 33 34 34 34 34 33 33 33 34 33 33 33 34
34 33 33 32 32 32 31 31 31 31 31 31 32 32 32 32 32 31 30 30 30 30 30 31 32 33 33 34 34 35 35 35 35 35 36 35 35 35 35 35 35 35 35
35 35 34 34 34 33 33 33 32 32 32 33 33 33 33 33 33 32 31 31 31 31 32 32 33 33 34 34 35 36 36 36 36 36 37 37 37 36 36 37 37 36 36
37 36 36 36 35 35 34 34 34 33 33 34 34 34 33 33 34 33 33 33 33 33 34 34 34 34 34 35 36 36 36 37 37 37 37 37 37 37 37 38 38 38 38
38 38 37 37 37 37 36 35 35 34 34 35 35 35 34 33 33 34 34 34 34 34 35 35 36 35 36 36 36 36 37 38 38 39 39 38 38 38 38 39 39 39 39
39 38 38 38 38 38 37 37 36 35 35 35 35 36 36 35 35 34 34 35 35 35 36 36 36 36 37 37 37 38 38 38 39 39 39 39 39 39 39 39 40 41 41
41 40 40 40 40 40 39 38 38 37 37 36 36 36 36 36 35 35 35 36 36 36 37 37 37 38 38 38 39 39 38 38 39 39 40 40 40 40 40 40 40 41 41
43 42 42 42 41 41 41 40 39 39 39 38 38 37 37 37 36 36 36 37 37 38 38 38 38 39 40 40 40 39 39 39 38 39 39 39 40 40 41 40 41 41 41
43 43 42 42 42 41 41 41 40 40 39 39 39 39 39 38 37 38 38 38 39 39 39 39 39 39 39 40 40 40 40 39 39 39 39 38 39 41 41 40 41 41 41
44 43 42 43 42 42 41 42 41 41 40 40 40 39 40 39 39 39 39 39 39 39 39 39 39 39 39 39 39 39 40 40 40 39 39 39 39 40 40 40 40 40 41
44 44 43 43 44 44 43 43 42 42 42 41 41 40 40 41 41 41 40 40 40 40 39 39 39 39 39 39 39 39 39 39 39 38 38 39 39 39 40 40 40 41 41
45 45 45 44 44 43 44 44 43 44 43 42 42 42 42 42 42 42 42 41 41 40 39 39 39 40 40 40 40 40 40 40 40 40 39 40 40 40 39 39 40 41 42
46 46 46 45 45 45 44 45 45 44 44 44 43 43 43 43 43 43 43 42 42 42 41 40 40 40 41 41 41 41 41 40 40 40 40 41 41 40 40 40 41 42 43
47 47 46 45 45 45 45 45 45 45 45 45 44 44 44 44 44 44 43 43 43 43 42 42 41 41 41 42 41 41 42 41 41 41 41 42 42 42 42 42 42 42 43
47 47 47 46 46 46 46 46 45 45 45 45 46 46 45 45 44 43 43 43 43 44 43 43 42 42 42 42 42 42 42 41 41 42 42 42 42 43 43 43 43 43 43
47 47 47 47 48 47 47 47 46 46 45 46 46 46 45 45 44 44 44 44 44 43 43 43 42 42 42 43 43 42 41 42 42 42 42 42 42 42 42 42 43 43 44
47 48 48 47 48 48 48 48 48 48 47 46 46 45 46 45 45 45 45 44 44 44 43 43 42 42 42 42 42 42 42 42 42 41 41 42 42 42 42 43 43 44 45
46 47 48 47 47 48 48 48 48 49 48 47 46 46 46 46 46 45 45 45 44 44 43 42 42 41 41 41 42 42 42 41 40 39 40 40 40 41 42 43 44 45 46
44 45 46 47 47 47 47 47 47 48 48 47 47 47 47 46 45 45 44 44 43 43 42 41 41 41 41 41 41 40 40 38 38 39 39 40 40 41 42 43 44 45 46
43 43 44 44 45 45 46 46 46 46 47 46 46 47 46 45 44 43 43 43 43 42 42 41 41 41 41 40 40 39 39 39 39 40 40 40 40 41 42 43 44 45 46
42 42 42 42 42 43 44 45 45 45 45 45 46 45 45 44 44 44 44 43 42 42 41 41 40 40 39 39 39 39 39 40 40 40 40 41 41 42 43 44 45 46 47
41 41 41 41 42 42 43 43 44 44 44 44 44 44 45 44 44 44 43 43 42 41 41 40 40 39 39 39 38 39 40 40 40 40 41 42 42 43 44 44 46 46 47